<?xml version="1.0" encoding="UTF-8" standalone="no" ?>
<gpx xmlns="http://www.topografix.com/GPX/1/1" xmlns:xsi="http://www.w3.org/2001/XMLSchema-instance" xsi:schemaLocation="http://www.topografix.com/GPX/1/1 http://www.topografix.com/GPX/1/1/gpx.xsd" version="1.1" creator="VisuGPX - https://www.visugpx.com">
  <metadata>
    <name>Rando Peyruis 2017</name>
    <desc><![CDATA[Belle rando XC, superbe montée finale en lacets... quelques belles descentes.]]></desc>
  </metadata>
  <trk>
    <name><![CDATA[Peyruis Cyclisme]]></name>
    <trkseg>
      <trkpt lat="44.02896" lon="5.93855">
        <ele>430.79998779297</ele>
        <time>2017-04-09T06:20:47.000Z</time>
      </trkpt>
      <trkpt lat="44.02915" lon="5.93854">
        <ele>434.20001220703</ele>
        <time>2017-04-09T06:20:54.000Z</time>
      </trkpt>
      <trkpt lat="44.02935" lon="5.93862">
        <ele>435.39999389648</ele>
        <time>2017-04-09T06:21:00.000Z</time>
      </trkpt>
      <trkpt lat="44.02955" lon="5.93869">
        <ele>437</ele>
        <time>2017-04-09T06:21:06.000Z</time>
      </trkpt>
      <trkpt lat="44.02974" lon="5.9387">
        <ele>439</ele>
        <time>2017-04-09T06:21:12.000Z</time>
      </trkpt>
      <trkpt lat="44.02995" lon="5.93873">
        <ele>441</ele>
        <time>2017-04-09T06:21:19.000Z</time>
      </trkpt>
      <trkpt lat="44.03014" lon="5.93874">
        <ele>443.20001220703</ele>
        <time>2017-04-09T06:21:25.000Z</time>
      </trkpt>
      <trkpt lat="44.03032" lon="5.93882">
        <ele>443.60000610352</ele>
        <time>2017-04-09T06:21:31.000Z</time>
      </trkpt>
      <trkpt lat="44.03051" lon="5.93887">
        <ele>444</ele>
        <time>2017-04-09T06:21:37.000Z</time>
      </trkpt>
      <trkpt lat="44.03071" lon="5.93896">
        <ele>442.79998779297</ele>
        <time>2017-04-09T06:21:44.000Z</time>
      </trkpt>
      <trkpt lat="44.03074" lon="5.93896">
        <ele>443.20001220703</ele>
        <time>2017-04-09T06:21:45.000Z</time>
      </trkpt>
      <trkpt lat="44.03083" lon="5.93882">
        <ele>446.60000610352</ele>
        <time>2017-04-09T06:21:49.000Z</time>
      </trkpt>
      <trkpt lat="44.03094" lon="5.93857">
        <ele>450</ele>
        <time>2017-04-09T06:21:55.000Z</time>
      </trkpt>
      <trkpt lat="44.03103" lon="5.93835">
        <ele>452.79998779297</ele>
        <time>2017-04-09T06:22:01.000Z</time>
      </trkpt>
      <trkpt lat="44.0311" lon="5.9382">
        <ele>454.79998779297</ele>
        <time>2017-04-09T06:22:11.000Z</time>
      </trkpt>
      <trkpt lat="44.03122" lon="5.93817">
        <ele>455.60000610352</ele>
        <time>2017-04-09T06:22:17.000Z</time>
      </trkpt>
      <trkpt lat="44.03141" lon="5.93823">
        <ele>455.60000610352</ele>
        <time>2017-04-09T06:22:23.000Z</time>
      </trkpt>
      <trkpt lat="44.03158" lon="5.93837">
        <ele>455</ele>
        <time>2017-04-09T06:22:29.000Z</time>
      </trkpt>
      <trkpt lat="44.03176" lon="5.9385">
        <ele>454.60000610352</ele>
        <time>2017-04-09T06:22:35.000Z</time>
      </trkpt>
      <trkpt lat="44.03194" lon="5.93854">
        <ele>454.79998779297</ele>
        <time>2017-04-09T06:22:40.000Z</time>
      </trkpt>
      <trkpt lat="44.03214" lon="5.93857">
        <ele>455.60000610352</ele>
        <time>2017-04-09T06:22:46.000Z</time>
      </trkpt>
      <trkpt lat="44.03232" lon="5.93857">
        <ele>456.79998779297</ele>
        <time>2017-04-09T06:22:52.000Z</time>
      </trkpt>
      <trkpt lat="44.03251" lon="5.93857">
        <ele>457.79998779297</ele>
        <time>2017-04-09T06:22:58.000Z</time>
      </trkpt>
      <trkpt lat="44.03261" lon="5.93836">
        <ele>459.60000610352</ele>
        <time>2017-04-09T06:23:05.000Z</time>
      </trkpt>
      <trkpt lat="44.03265" lon="5.93811">
        <ele>461.39999389648</ele>
        <time>2017-04-09T06:23:14.000Z</time>
      </trkpt>
      <trkpt lat="44.0327" lon="5.93783">
        <ele>463.20001220703</ele>
        <time>2017-04-09T06:23:24.000Z</time>
      </trkpt>
      <trkpt lat="44.03275" lon="5.93757">
        <ele>465</ele>
        <time>2017-04-09T06:23:33.000Z</time>
      </trkpt>
      <trkpt lat="44.03278" lon="5.9373">
        <ele>466.60000610352</ele>
        <time>2017-04-09T06:23:42.000Z</time>
      </trkpt>
      <trkpt lat="44.03283" lon="5.93705">
        <ele>468.20001220703</ele>
        <time>2017-04-09T06:23:51.000Z</time>
      </trkpt>
      <trkpt lat="44.03288" lon="5.93679">
        <ele>469.60000610352</ele>
        <time>2017-04-09T06:24:00.000Z</time>
      </trkpt>
      <trkpt lat="44.03293" lon="5.93666">
        <ele>470.39999389648</ele>
        <time>2017-04-09T06:24:07.000Z</time>
      </trkpt>
      <trkpt lat="44.03291" lon="5.9367">
        <ele>470.20001220703</ele>
        <time>2017-04-09T06:24:12.000Z</time>
      </trkpt>
      <trkpt lat="44.03293" lon="5.93658">
        <ele>471</ele>
        <time>2017-04-09T06:28:46.000Z</time>
      </trkpt>
      <trkpt lat="44.03302" lon="5.93635">
        <ele>472.39999389648</ele>
        <time>2017-04-09T06:28:55.000Z</time>
      </trkpt>
      <trkpt lat="44.03322" lon="5.93629">
        <ele>472.79998779297</ele>
        <time>2017-04-09T06:29:03.000Z</time>
      </trkpt>
      <trkpt lat="44.03341" lon="5.93621">
        <ele>473.20001220703</ele>
        <time>2017-04-09T06:29:11.000Z</time>
      </trkpt>
      <trkpt lat="44.03356" lon="5.93608">
        <ele>474.60000610352</ele>
        <time>2017-04-09T06:29:19.000Z</time>
      </trkpt>
      <trkpt lat="44.03367" lon="5.93586">
        <ele>477</ele>
        <time>2017-04-09T06:29:28.000Z</time>
      </trkpt>
      <trkpt lat="44.03374" lon="5.93561">
        <ele>479</ele>
        <time>2017-04-09T06:29:37.000Z</time>
      </trkpt>
      <trkpt lat="44.03382" lon="5.93538">
        <ele>481</ele>
        <time>2017-04-09T06:29:46.000Z</time>
      </trkpt>
      <trkpt lat="44.03396" lon="5.93521">
        <ele>482.39999389648</ele>
        <time>2017-04-09T06:29:57.000Z</time>
      </trkpt>
      <trkpt lat="44.03413" lon="5.93532">
        <ele>481.79998779297</ele>
        <time>2017-04-09T06:30:04.000Z</time>
      </trkpt>
      <trkpt lat="44.03431" lon="5.93538">
        <ele>482</ele>
        <time>2017-04-09T06:30:10.000Z</time>
      </trkpt>
      <trkpt lat="44.0345" lon="5.93543">
        <ele>483</ele>
        <time>2017-04-09T06:30:16.000Z</time>
      </trkpt>
      <trkpt lat="44.03468" lon="5.93554">
        <ele>483</ele>
        <time>2017-04-09T06:30:22.000Z</time>
      </trkpt>
      <trkpt lat="44.03486" lon="5.93565">
        <ele>483.60000610352</ele>
        <time>2017-04-09T06:30:27.000Z</time>
      </trkpt>
      <trkpt lat="44.03503" lon="5.93576">
        <ele>484.20001220703</ele>
        <time>2017-04-09T06:30:33.000Z</time>
      </trkpt>
      <trkpt lat="44.03523" lon="5.93583">
        <ele>485.60000610352</ele>
        <time>2017-04-09T06:30:39.000Z</time>
      </trkpt>
      <trkpt lat="44.03541" lon="5.93585">
        <ele>486.20001220703</ele>
        <time>2017-04-09T06:30:45.000Z</time>
      </trkpt>
      <trkpt lat="44.0356" lon="5.93586">
        <ele>487</ele>
        <time>2017-04-09T06:30:52.000Z</time>
      </trkpt>
      <trkpt lat="44.03579" lon="5.93582">
        <ele>488.79998779297</ele>
        <time>2017-04-09T06:30:59.000Z</time>
      </trkpt>
      <trkpt lat="44.03598" lon="5.93573">
        <ele>491.39999389648</ele>
        <time>2017-04-09T06:31:06.000Z</time>
      </trkpt>
      <trkpt lat="44.03612" lon="5.93556">
        <ele>494.60000610352</ele>
        <time>2017-04-09T06:31:15.000Z</time>
      </trkpt>
      <trkpt lat="44.03627" lon="5.9354">
        <ele>500.20001220703</ele>
        <time>2017-04-09T06:31:23.000Z</time>
      </trkpt>
      <trkpt lat="44.03643" lon="5.93525">
        <ele>505.60000610352</ele>
        <time>2017-04-09T06:31:32.000Z</time>
      </trkpt>
      <trkpt lat="44.03657" lon="5.93526">
        <ele>507.39999389648</ele>
        <time>2017-04-09T06:31:37.000Z</time>
      </trkpt>
      <trkpt lat="44.03662" lon="5.93542">
        <ele>504.60000610352</ele>
        <time>2017-04-09T06:31:42.000Z</time>
      </trkpt>
      <trkpt lat="44.03665" lon="5.93567">
        <ele>501</ele>
        <time>2017-04-09T06:31:49.000Z</time>
      </trkpt>
      <trkpt lat="44.03672" lon="5.93576">
        <ele>501</ele>
        <time>2017-04-09T06:31:56.000Z</time>
      </trkpt>
      <trkpt lat="44.03685" lon="5.93595">
        <ele>500.79998779297</ele>
        <time>2017-04-09T06:32:09.000Z</time>
      </trkpt>
      <trkpt lat="44.03698" lon="5.93613">
        <ele>501.39999389648</ele>
        <time>2017-04-09T06:32:22.000Z</time>
      </trkpt>
      <trkpt lat="44.03713" lon="5.93629">
        <ele>503.20001220703</ele>
        <time>2017-04-09T06:32:34.000Z</time>
      </trkpt>
      <trkpt lat="44.03729" lon="5.93644">
        <ele>505.39999389648</ele>
        <time>2017-04-09T06:32:45.000Z</time>
      </trkpt>
      <trkpt lat="44.03745" lon="5.93661">
        <ele>506</ele>
        <time>2017-04-09T06:32:55.000Z</time>
      </trkpt>
      <trkpt lat="44.03761" lon="5.93675">
        <ele>507.39999389648</ele>
        <time>2017-04-09T06:33:05.000Z</time>
      </trkpt>
      <trkpt lat="44.03779" lon="5.93684">
        <ele>509.60000610352</ele>
        <time>2017-04-09T06:33:14.000Z</time>
      </trkpt>
      <trkpt lat="44.03798" lon="5.93693">
        <ele>510.20001220703</ele>
        <time>2017-04-09T06:33:23.000Z</time>
      </trkpt>
      <trkpt lat="44.03818" lon="5.93704">
        <ele>510.60000610352</ele>
        <time>2017-04-09T06:33:29.000Z</time>
      </trkpt>
      <trkpt lat="44.03836" lon="5.93714">
        <ele>511</ele>
        <time>2017-04-09T06:33:34.000Z</time>
      </trkpt>
      <trkpt lat="44.03853" lon="5.93726">
        <ele>510.79998779297</ele>
        <time>2017-04-09T06:33:39.000Z</time>
      </trkpt>
      <trkpt lat="44.03869" lon="5.93739">
        <ele>510.39999389648</ele>
        <time>2017-04-09T06:33:44.000Z</time>
      </trkpt>
      <trkpt lat="44.03889" lon="5.9375">
        <ele>510.60000610352</ele>
        <time>2017-04-09T06:33:49.000Z</time>
      </trkpt>
      <trkpt lat="44.03908" lon="5.93765">
        <ele>510</ele>
        <time>2017-04-09T06:33:54.000Z</time>
      </trkpt>
      <trkpt lat="44.03923" lon="5.93779">
        <ele>509.20001220703</ele>
        <time>2017-04-09T06:33:59.000Z</time>
      </trkpt>
      <trkpt lat="44.0394" lon="5.93792">
        <ele>508.60000610352</ele>
        <time>2017-04-09T06:34:04.000Z</time>
      </trkpt>
      <trkpt lat="44.03957" lon="5.93807">
        <ele>508.20001220703</ele>
        <time>2017-04-09T06:34:10.000Z</time>
      </trkpt>
      <trkpt lat="44.03973" lon="5.93822">
        <ele>508</ele>
        <time>2017-04-09T06:34:15.000Z</time>
      </trkpt>
      <trkpt lat="44.03989" lon="5.93836">
        <ele>508.20001220703</ele>
        <time>2017-04-09T06:34:20.000Z</time>
      </trkpt>
      <trkpt lat="44.04007" lon="5.93848">
        <ele>509</ele>
        <time>2017-04-09T06:34:25.000Z</time>
      </trkpt>
      <trkpt lat="44.04025" lon="5.9386">
        <ele>509.79998779297</ele>
        <time>2017-04-09T06:34:29.000Z</time>
      </trkpt>
      <trkpt lat="44.04042" lon="5.93873">
        <ele>509.79998779297</ele>
        <time>2017-04-09T06:34:33.000Z</time>
      </trkpt>
      <trkpt lat="44.0406" lon="5.93888">
        <ele>509.39999389648</ele>
        <time>2017-04-09T06:34:38.000Z</time>
      </trkpt>
      <trkpt lat="44.04077" lon="5.93902">
        <ele>508.79998779297</ele>
        <time>2017-04-09T06:34:42.000Z</time>
      </trkpt>
      <trkpt lat="44.04089" lon="5.9391">
        <ele>508.60000610352</ele>
        <time>2017-04-09T06:34:45.000Z</time>
      </trkpt>
      <trkpt lat="44.04101" lon="5.93914">
        <ele>509.20001220703</ele>
        <time>2017-04-09T06:34:51.000Z</time>
      </trkpt>
      <trkpt lat="44.04112" lon="5.93918">
        <ele>510</ele>
        <time>2017-04-09T06:34:58.000Z</time>
      </trkpt>
      <trkpt lat="44.04128" lon="5.93927">
        <ele>511</ele>
        <time>2017-04-09T06:35:09.000Z</time>
      </trkpt>
      <trkpt lat="44.0413" lon="5.93927">
        <ele>511.20001220703</ele>
        <time>2017-04-09T06:35:10.000Z</time>
      </trkpt>
      <trkpt lat="44.04149" lon="5.93937">
        <ele>512.20001220703</ele>
        <time>2017-04-09T06:35:20.000Z</time>
      </trkpt>
      <trkpt lat="44.0415" lon="5.93938">
        <ele>512.20001220703</ele>
        <time>2017-04-09T06:35:21.000Z</time>
      </trkpt>
      <trkpt lat="44.04168" lon="5.93945">
        <ele>513.79998779297</ele>
        <time>2017-04-09T06:35:33.000Z</time>
      </trkpt>
      <trkpt lat="44.04186" lon="5.93954">
        <ele>515.40002441406</ele>
        <time>2017-04-09T06:35:45.000Z</time>
      </trkpt>
      <trkpt lat="44.04193" lon="5.93956">
        <ele>516.20001220703</ele>
        <time>2017-04-09T06:35:50.000Z</time>
      </trkpt>
      <trkpt lat="44.04212" lon="5.93967">
        <ele>518</ele>
        <time>2017-04-09T06:36:00.000Z</time>
      </trkpt>
      <trkpt lat="44.04228" lon="5.93983">
        <ele>518.40002441406</ele>
        <time>2017-04-09T06:36:08.000Z</time>
      </trkpt>
      <trkpt lat="44.04243" lon="5.93998">
        <ele>518.20001220703</ele>
        <time>2017-04-09T06:36:15.000Z</time>
      </trkpt>
      <trkpt lat="44.04259" lon="5.94013">
        <ele>518.79998779297</ele>
        <time>2017-04-09T06:36:20.000Z</time>
      </trkpt>
      <trkpt lat="44.04274" lon="5.94027">
        <ele>519.20001220703</ele>
        <time>2017-04-09T06:36:27.000Z</time>
      </trkpt>
      <trkpt lat="44.04288" lon="5.94043">
        <ele>519.20001220703</ele>
        <time>2017-04-09T06:36:34.000Z</time>
      </trkpt>
      <trkpt lat="44.04299" lon="5.94065">
        <ele>517</ele>
        <time>2017-04-09T06:36:41.000Z</time>
      </trkpt>
      <trkpt lat="44.04313" lon="5.94084">
        <ele>515.79998779297</ele>
        <time>2017-04-09T06:36:46.000Z</time>
      </trkpt>
      <trkpt lat="44.04329" lon="5.94103">
        <ele>515.40002441406</ele>
        <time>2017-04-09T06:36:52.000Z</time>
      </trkpt>
      <trkpt lat="44.04336" lon="5.9411">
        <ele>515.40002441406</ele>
        <time>2017-04-09T06:36:54.000Z</time>
      </trkpt>
      <trkpt lat="44.04351" lon="5.94126">
        <ele>515.40002441406</ele>
        <time>2017-04-09T06:37:00.000Z</time>
      </trkpt>
      <trkpt lat="44.04368" lon="5.94137">
        <ele>515.59997558594</ele>
        <time>2017-04-09T06:37:07.000Z</time>
      </trkpt>
      <trkpt lat="44.04386" lon="5.94148">
        <ele>514.40002441406</ele>
        <time>2017-04-09T06:37:17.000Z</time>
      </trkpt>
      <trkpt lat="44.04398" lon="5.94151">
        <ele>514.59997558594</ele>
        <time>2017-04-09T06:37:24.000Z</time>
      </trkpt>
      <trkpt lat="44.04415" lon="5.9414">
        <ele>518.20001220703</ele>
        <time>2017-04-09T06:37:31.000Z</time>
      </trkpt>
      <trkpt lat="44.04428" lon="5.94121">
        <ele>523</ele>
        <time>2017-04-09T06:37:36.000Z</time>
      </trkpt>
      <trkpt lat="44.04429" lon="5.94115">
        <ele>524</ele>
        <time>2017-04-09T06:37:38.000Z</time>
      </trkpt>
      <trkpt lat="44.04432" lon="5.94088">
        <ele>528.20001220703</ele>
        <time>2017-04-09T06:37:45.000Z</time>
      </trkpt>
      <trkpt lat="44.04432" lon="5.94081">
        <ele>529.20001220703</ele>
        <time>2017-04-09T06:37:47.000Z</time>
      </trkpt>
      <trkpt lat="44.0443" lon="5.94055">
        <ele>533.40002441406</ele>
        <time>2017-04-09T06:37:55.000Z</time>
      </trkpt>
      <trkpt lat="44.04428" lon="5.94027">
        <ele>535.79998779297</ele>
        <time>2017-04-09T06:38:01.000Z</time>
      </trkpt>
      <trkpt lat="44.04426" lon="5.93999">
        <ele>536.40002441406</ele>
        <time>2017-04-09T06:38:07.000Z</time>
      </trkpt>
      <trkpt lat="44.04424" lon="5.93974">
        <ele>537.20001220703</ele>
        <time>2017-04-09T06:38:12.000Z</time>
      </trkpt>
      <trkpt lat="44.04426" lon="5.93947">
        <ele>539.20001220703</ele>
        <time>2017-04-09T06:38:20.000Z</time>
      </trkpt>
      <trkpt lat="44.04427" lon="5.93941">
        <ele>539</ele>
        <time>2017-04-09T06:38:22.000Z</time>
      </trkpt>
      <trkpt lat="44.04427" lon="5.93931">
        <ele>539.20001220703</ele>
        <time>2017-04-09T06:38:26.000Z</time>
      </trkpt>
      <trkpt lat="44.04431" lon="5.93903">
        <ele>538.20001220703</ele>
        <time>2017-04-09T06:38:34.000Z</time>
      </trkpt>
      <trkpt lat="44.04432" lon="5.93897">
        <ele>538</ele>
        <time>2017-04-09T06:38:35.000Z</time>
      </trkpt>
      <trkpt lat="44.04431" lon="5.93871">
        <ele>539</ele>
        <time>2017-04-09T06:38:40.000Z</time>
      </trkpt>
      <trkpt lat="44.04425" lon="5.93847">
        <ele>541.20001220703</ele>
        <time>2017-04-09T06:38:50.000Z</time>
      </trkpt>
      <trkpt lat="44.04419" lon="5.93822">
        <ele>543</ele>
        <time>2017-04-09T06:38:59.000Z</time>
      </trkpt>
      <trkpt lat="44.04411" lon="5.93797">
        <ele>545.59997558594</ele>
        <time>2017-04-09T06:39:06.000Z</time>
      </trkpt>
      <trkpt lat="44.04411" lon="5.93793">
        <ele>545.59997558594</ele>
        <time>2017-04-09T06:39:07.000Z</time>
      </trkpt>
      <trkpt lat="44.04408" lon="5.93777">
        <ele>545.79998779297</ele>
        <time>2017-04-09T06:39:10.000Z</time>
      </trkpt>
      <trkpt lat="44.04404" lon="5.93758">
        <ele>546.79998779297</ele>
        <time>2017-04-09T06:39:14.000Z</time>
      </trkpt>
      <trkpt lat="44.04398" lon="5.93732">
        <ele>548</ele>
        <time>2017-04-09T06:39:21.000Z</time>
      </trkpt>
      <trkpt lat="44.04389" lon="5.93708">
        <ele>550.20001220703</ele>
        <time>2017-04-09T06:39:29.000Z</time>
      </trkpt>
      <trkpt lat="44.04388" lon="5.93696">
        <ele>550</ele>
        <time>2017-04-09T06:39:31.000Z</time>
      </trkpt>
      <trkpt lat="44.04383" lon="5.9368">
        <ele>550.79998779297</ele>
        <time>2017-04-09T06:39:35.000Z</time>
      </trkpt>
      <trkpt lat="44.04378" lon="5.93654">
        <ele>551.59997558594</ele>
        <time>2017-04-09T06:39:40.000Z</time>
      </trkpt>
      <trkpt lat="44.0437" lon="5.93631">
        <ele>554</ele>
        <time>2017-04-09T06:39:47.000Z</time>
      </trkpt>
      <trkpt lat="44.0436" lon="5.93608">
        <ele>556</ele>
        <time>2017-04-09T06:39:57.000Z</time>
      </trkpt>
      <trkpt lat="44.0435" lon="5.93586">
        <ele>558.40002441406</ele>
        <time>2017-04-09T06:40:08.000Z</time>
      </trkpt>
      <trkpt lat="44.04349" lon="5.93577">
        <ele>558.59997558594</ele>
        <time>2017-04-09T06:40:12.000Z</time>
      </trkpt>
      <trkpt lat="44.04347" lon="5.93571">
        <ele>559</ele>
        <time>2017-04-09T06:40:15.000Z</time>
      </trkpt>
      <trkpt lat="44.04346" lon="5.93546">
        <ele>558</ele>
        <time>2017-04-09T06:40:26.000Z</time>
      </trkpt>
      <trkpt lat="44.04339" lon="5.93521">
        <ele>559</ele>
        <time>2017-04-09T06:40:37.000Z</time>
      </trkpt>
      <trkpt lat="44.04336" lon="5.93505">
        <ele>559.40002441406</ele>
        <time>2017-04-09T06:40:45.000Z</time>
      </trkpt>
      <trkpt lat="44.04334" lon="5.93502">
        <ele>559.79998779297</ele>
        <time>2017-04-09T06:40:47.000Z</time>
      </trkpt>
      <trkpt lat="44.04329" lon="5.93496">
        <ele>560.79998779297</ele>
        <time>2017-04-09T06:40:51.000Z</time>
      </trkpt>
      <trkpt lat="44.04323" lon="5.93486">
        <ele>561.79998779297</ele>
        <time>2017-04-09T06:40:57.000Z</time>
      </trkpt>
      <trkpt lat="44.04318" lon="5.9349">
        <ele>563.20001220703</ele>
        <time>2017-04-09T06:41:02.000Z</time>
      </trkpt>
      <trkpt lat="44.04315" lon="5.93494">
        <ele>564</ele>
        <time>2017-04-09T06:41:05.000Z</time>
      </trkpt>
      <trkpt lat="44.04307" lon="5.93487">
        <ele>565.79998779297</ele>
        <time>2017-04-09T06:41:17.000Z</time>
      </trkpt>
      <trkpt lat="44.04297" lon="5.93498">
        <ele>568.59997558594</ele>
        <time>2017-04-09T06:41:25.000Z</time>
      </trkpt>
      <trkpt lat="44.04296" lon="5.93482">
        <ele>568.40002441406</ele>
        <time>2017-04-09T06:41:33.000Z</time>
      </trkpt>
      <trkpt lat="44.04294" lon="5.93457">
        <ele>566.79998779297</ele>
        <time>2017-04-09T06:41:45.000Z</time>
      </trkpt>
      <trkpt lat="44.04277" lon="5.93454">
        <ele>570.79998779297</ele>
        <time>2017-04-09T06:42:00.000Z</time>
      </trkpt>
      <trkpt lat="44.04274" lon="5.93465">
        <ele>572.59997558594</ele>
        <time>2017-04-09T06:42:08.000Z</time>
      </trkpt>
      <trkpt lat="44.04269" lon="5.9349">
        <ele>576.59997558594</ele>
        <time>2017-04-09T06:42:20.000Z</time>
      </trkpt>
      <trkpt lat="44.04267" lon="5.93515">
        <ele>579.40002441406</ele>
        <time>2017-04-09T06:42:29.000Z</time>
      </trkpt>
      <trkpt lat="44.04271" lon="5.9354">
        <ele>580</ele>
        <time>2017-04-09T06:42:38.000Z</time>
      </trkpt>
      <trkpt lat="44.04281" lon="5.93562">
        <ele>578.59997558594</ele>
        <time>2017-04-09T06:42:47.000Z</time>
      </trkpt>
      <trkpt lat="44.04289" lon="5.93585">
        <ele>577</ele>
        <time>2017-04-09T06:42:54.000Z</time>
      </trkpt>
      <trkpt lat="44.04293" lon="5.93611">
        <ele>576.59997558594</ele>
        <time>2017-04-09T06:43:02.000Z</time>
      </trkpt>
      <trkpt lat="44.04299" lon="5.93637">
        <ele>575.79998779297</ele>
        <time>2017-04-09T06:43:11.000Z</time>
      </trkpt>
      <trkpt lat="44.04306" lon="5.9366">
        <ele>574.40002441406</ele>
        <time>2017-04-09T06:43:19.000Z</time>
      </trkpt>
      <trkpt lat="44.04307" lon="5.93685">
        <ele>574.40002441406</ele>
        <time>2017-04-09T06:43:27.000Z</time>
      </trkpt>
      <trkpt lat="44.04309" lon="5.93711">
        <ele>573.20001220703</ele>
        <time>2017-04-09T06:43:36.000Z</time>
      </trkpt>
      <trkpt lat="44.04305" lon="5.93737">
        <ele>574.59997558594</ele>
        <time>2017-04-09T06:43:46.000Z</time>
      </trkpt>
      <trkpt lat="44.04301" lon="5.93763">
        <ele>573.79998779297</ele>
        <time>2017-04-09T06:43:55.000Z</time>
      </trkpt>
      <trkpt lat="44.04306" lon="5.93792">
        <ele>569.40002441406</ele>
        <time>2017-04-09T06:44:02.000Z</time>
      </trkpt>
      <trkpt lat="44.04313" lon="5.93818">
        <ele>566.20001220703</ele>
        <time>2017-04-09T06:44:09.000Z</time>
      </trkpt>
      <trkpt lat="44.04322" lon="5.93843">
        <ele>564.40002441406</ele>
        <time>2017-04-09T06:44:16.000Z</time>
      </trkpt>
      <trkpt lat="44.04329" lon="5.93869">
        <ele>561.40002441406</ele>
        <time>2017-04-09T06:44:21.000Z</time>
      </trkpt>
      <trkpt lat="44.04331" lon="5.93896">
        <ele>556.20001220703</ele>
        <time>2017-04-09T06:44:26.000Z</time>
      </trkpt>
      <trkpt lat="44.0433" lon="5.93902">
        <ele>555.20001220703</ele>
        <time>2017-04-09T06:44:28.000Z</time>
      </trkpt>
      <trkpt lat="44.04317" lon="5.93885">
        <ele>556.59997558594</ele>
        <time>2017-04-09T06:44:40.000Z</time>
      </trkpt>
      <trkpt lat="44.04311" lon="5.93874">
        <ele>558.40002441406</ele>
        <time>2017-04-09T06:44:45.000Z</time>
      </trkpt>
      <trkpt lat="44.043" lon="5.93852">
        <ele>561.79998779297</ele>
        <time>2017-04-09T06:44:55.000Z</time>
      </trkpt>
      <trkpt lat="44.04285" lon="5.93834">
        <ele>564.20001220703</ele>
        <time>2017-04-09T06:45:05.000Z</time>
      </trkpt>
      <trkpt lat="44.04277" lon="5.93811">
        <ele>568.20001220703</ele>
        <time>2017-04-09T06:45:16.000Z</time>
      </trkpt>
      <trkpt lat="44.04265" lon="5.93789">
        <ele>570</ele>
        <time>2017-04-09T06:45:28.000Z</time>
      </trkpt>
      <trkpt lat="44.04253" lon="5.93769">
        <ele>570.59997558594</ele>
        <time>2017-04-09T06:45:39.000Z</time>
      </trkpt>
      <trkpt lat="44.04246" lon="5.93746">
        <ele>572.79998779297</ele>
        <time>2017-04-09T06:45:50.000Z</time>
      </trkpt>
      <trkpt lat="44.04235" lon="5.93725">
        <ele>574</ele>
        <time>2017-04-09T06:46:01.000Z</time>
      </trkpt>
      <trkpt lat="44.04223" lon="5.93703">
        <ele>577.20001220703</ele>
        <time>2017-04-09T06:46:11.000Z</time>
      </trkpt>
      <trkpt lat="44.04211" lon="5.93682">
        <ele>580</ele>
        <time>2017-04-09T06:46:20.000Z</time>
      </trkpt>
      <trkpt lat="44.042" lon="5.93662">
        <ele>583.20001220703</ele>
        <time>2017-04-09T06:46:31.000Z</time>
      </trkpt>
      <trkpt lat="44.04187" lon="5.93645">
        <ele>585.20001220703</ele>
        <time>2017-04-09T06:46:43.000Z</time>
      </trkpt>
      <trkpt lat="44.04176" lon="5.93625">
        <ele>589.79998779297</ele>
        <time>2017-04-09T06:46:57.000Z</time>
      </trkpt>
      <trkpt lat="44.04173" lon="5.93619">
        <ele>591</ele>
        <time>2017-04-09T06:47:02.000Z</time>
      </trkpt>
      <trkpt lat="44.04163" lon="5.93598">
        <ele>594.59997558594</ele>
        <time>2017-04-09T06:47:17.000Z</time>
      </trkpt>
      <trkpt lat="44.04162" lon="5.93596">
        <ele>594.79998779297</ele>
        <time>2017-04-09T06:47:18.000Z</time>
      </trkpt>
      <trkpt lat="44.04149" lon="5.93581">
        <ele>597.59997558594</ele>
        <time>2017-04-09T06:47:30.000Z</time>
      </trkpt>
      <trkpt lat="44.04144" lon="5.93571">
        <ele>599.20001220703</ele>
        <time>2017-04-09T06:47:37.000Z</time>
      </trkpt>
      <trkpt lat="44.04136" lon="5.93557">
        <ele>601.79998779297</ele>
        <time>2017-04-09T06:47:47.000Z</time>
      </trkpt>
      <trkpt lat="44.04132" lon="5.93534">
        <ele>605</ele>
        <time>2017-04-09T06:49:17.000Z</time>
      </trkpt>
      <trkpt lat="44.04119" lon="5.93518">
        <ele>607.59997558594</ele>
        <time>2017-04-09T06:49:28.000Z</time>
      </trkpt>
      <trkpt lat="44.04111" lon="5.93509">
        <ele>609</ele>
        <time>2017-04-09T06:49:34.000Z</time>
      </trkpt>
      <trkpt lat="44.04099" lon="5.93496">
        <ele>610.20001220703</ele>
        <time>2017-04-09T06:49:42.000Z</time>
      </trkpt>
      <trkpt lat="44.04082" lon="5.93481">
        <ele>611</ele>
        <time>2017-04-09T06:49:51.000Z</time>
      </trkpt>
      <trkpt lat="44.04065" lon="5.9347">
        <ele>610.79998779297</ele>
        <time>2017-04-09T06:49:58.000Z</time>
      </trkpt>
      <trkpt lat="44.04056" lon="5.93466">
        <ele>610.20001220703</ele>
        <time>2017-04-09T06:50:02.000Z</time>
      </trkpt>
      <trkpt lat="44.04037" lon="5.93469">
        <ele>608.79998779297</ele>
        <time>2017-04-09T06:50:10.000Z</time>
      </trkpt>
      <trkpt lat="44.04019" lon="5.93475">
        <ele>605.79998779297</ele>
        <time>2017-04-09T06:50:18.000Z</time>
      </trkpt>
      <trkpt lat="44.04009" lon="5.93477">
        <ele>602.79998779297</ele>
        <time>2017-04-09T06:50:22.000Z</time>
      </trkpt>
      <trkpt lat="44.0399" lon="5.93468">
        <ele>599</ele>
        <time>2017-04-09T06:50:28.000Z</time>
      </trkpt>
      <trkpt lat="44.03973" lon="5.93454">
        <ele>595.79998779297</ele>
        <time>2017-04-09T06:50:34.000Z</time>
      </trkpt>
      <trkpt lat="44.03965" lon="5.9344">
        <ele>594.79998779297</ele>
        <time>2017-04-09T06:50:38.000Z</time>
      </trkpt>
      <trkpt lat="44.03954" lon="5.93419">
        <ele>593.59997558594</ele>
        <time>2017-04-09T06:50:42.000Z</time>
      </trkpt>
      <trkpt lat="44.03939" lon="5.93401">
        <ele>591</ele>
        <time>2017-04-09T06:50:45.000Z</time>
      </trkpt>
      <trkpt lat="44.03924" lon="5.93383">
        <ele>588.40002441406</ele>
        <time>2017-04-09T06:50:48.000Z</time>
      </trkpt>
      <trkpt lat="44.03913" lon="5.9337">
        <ele>586.40002441406</ele>
        <time>2017-04-09T06:50:50.000Z</time>
      </trkpt>
      <trkpt lat="44.03893" lon="5.93355">
        <ele>582.20001220703</ele>
        <time>2017-04-09T06:50:53.000Z</time>
      </trkpt>
      <trkpt lat="44.03888" lon="5.93348">
        <ele>581.40002441406</ele>
        <time>2017-04-09T06:50:54.000Z</time>
      </trkpt>
      <trkpt lat="44.03878" lon="5.93337">
        <ele>580</ele>
        <time>2017-04-09T06:50:56.000Z</time>
      </trkpt>
      <trkpt lat="44.03862" lon="5.93318">
        <ele>577.40002441406</ele>
        <time>2017-04-09T06:51:00.000Z</time>
      </trkpt>
      <trkpt lat="44.03856" lon="5.933">
        <ele>578</ele>
        <time>2017-04-09T06:51:03.000Z</time>
      </trkpt>
      <trkpt lat="44.03844" lon="5.93277">
        <ele>578.20001220703</ele>
        <time>2017-04-09T06:51:10.000Z</time>
      </trkpt>
      <trkpt lat="44.03851" lon="5.93262">
        <ele>581.79998779297</ele>
        <time>2017-04-09T06:51:23.000Z</time>
      </trkpt>
      <trkpt lat="44.03857" lon="5.9327">
        <ele>582.40002441406</ele>
        <time>2017-04-09T06:51:28.000Z</time>
      </trkpt>
      <trkpt lat="44.03867" lon="5.93278">
        <ele>583.20001220703</ele>
        <time>2017-04-09T06:51:32.000Z</time>
      </trkpt>
      <trkpt lat="44.03884" lon="5.93279">
        <ele>586</ele>
        <time>2017-04-09T06:51:39.000Z</time>
      </trkpt>
      <trkpt lat="44.03885" lon="5.93282">
        <ele>585.79998779297</ele>
        <time>2017-04-09T06:51:40.000Z</time>
      </trkpt>
      <trkpt lat="44.03891" lon="5.93289">
        <ele>585.79998779297</ele>
        <time>2017-04-09T06:51:43.000Z</time>
      </trkpt>
      <trkpt lat="44.03896" lon="5.93292">
        <ele>586.20001220703</ele>
        <time>2017-04-09T06:51:46.000Z</time>
      </trkpt>
      <trkpt lat="44.03907" lon="5.93274">
        <ele>590.59997558594</ele>
        <time>2017-04-09T06:51:55.000Z</time>
      </trkpt>
      <trkpt lat="44.03915" lon="5.93277">
        <ele>591</ele>
        <time>2017-04-09T06:52:01.000Z</time>
      </trkpt>
      <trkpt lat="44.03917" lon="5.93277">
        <ele>591</ele>
        <time>2017-04-09T06:52:02.000Z</time>
      </trkpt>
      <trkpt lat="44.0393" lon="5.93263">
        <ele>591.59997558594</ele>
        <time>2017-04-09T06:52:13.000Z</time>
      </trkpt>
      <trkpt lat="44.0394" lon="5.93264">
        <ele>592</ele>
        <time>2017-04-09T06:52:17.000Z</time>
      </trkpt>
      <trkpt lat="44.03941" lon="5.93271">
        <ele>592</ele>
        <time>2017-04-09T06:52:21.000Z</time>
      </trkpt>
      <trkpt lat="44.03943" lon="5.9328">
        <ele>592</ele>
        <time>2017-04-09T06:52:25.000Z</time>
      </trkpt>
      <trkpt lat="44.03951" lon="5.93292">
        <ele>592.20001220703</ele>
        <time>2017-04-09T06:52:32.000Z</time>
      </trkpt>
      <trkpt lat="44.03969" lon="5.93287">
        <ele>593</ele>
        <time>2017-04-09T06:52:38.000Z</time>
      </trkpt>
      <trkpt lat="44.03971" lon="5.93284">
        <ele>593</ele>
        <time>2017-04-09T06:52:39.000Z</time>
      </trkpt>
      <trkpt lat="44.03987" lon="5.9327">
        <ele>593.59997558594</ele>
        <time>2017-04-09T06:52:46.000Z</time>
      </trkpt>
      <trkpt lat="44.0399" lon="5.9327">
        <ele>593.59997558594</ele>
        <time>2017-04-09T06:52:47.000Z</time>
      </trkpt>
      <trkpt lat="44.04009" lon="5.93268">
        <ele>593.79998779297</ele>
        <time>2017-04-09T06:53:01.000Z</time>
      </trkpt>
      <trkpt lat="44.04031" lon="5.93273">
        <ele>593.79998779297</ele>
        <time>2017-04-09T06:53:07.000Z</time>
      </trkpt>
      <trkpt lat="44.04034" lon="5.93271">
        <ele>593.40002441406</ele>
        <time>2017-04-09T06:53:08.000Z</time>
      </trkpt>
      <trkpt lat="44.04048" lon="5.93256">
        <ele>591.79998779297</ele>
        <time>2017-04-09T06:53:13.000Z</time>
      </trkpt>
      <trkpt lat="44.04063" lon="5.93258">
        <ele>590.79998779297</ele>
        <time>2017-04-09T06:53:17.000Z</time>
      </trkpt>
      <trkpt lat="44.04077" lon="5.93278">
        <ele>590</ele>
        <time>2017-04-09T06:53:24.000Z</time>
      </trkpt>
      <trkpt lat="44.04095" lon="5.93278">
        <ele>588.79998779297</ele>
        <time>2017-04-09T06:53:31.000Z</time>
      </trkpt>
      <trkpt lat="44.04107" lon="5.93277">
        <ele>588.20001220703</ele>
        <time>2017-04-09T06:53:35.000Z</time>
      </trkpt>
      <trkpt lat="44.04123" lon="5.93276">
        <ele>586.40002441406</ele>
        <time>2017-04-09T06:53:40.000Z</time>
      </trkpt>
      <trkpt lat="44.04141" lon="5.93286">
        <ele>584.20001220703</ele>
        <time>2017-04-09T06:53:46.000Z</time>
      </trkpt>
      <trkpt lat="44.0415" lon="5.93307">
        <ele>583.20001220703</ele>
        <time>2017-04-09T06:53:51.000Z</time>
      </trkpt>
      <trkpt lat="44.04155" lon="5.93333">
        <ele>585</ele>
        <time>2017-04-09T06:54:09.000Z</time>
      </trkpt>
      <trkpt lat="44.0416" lon="5.93343">
        <ele>585.40002441406</ele>
        <time>2017-04-09T06:54:13.000Z</time>
      </trkpt>
      <trkpt lat="44.04178" lon="5.93349">
        <ele>583.59997558594</ele>
        <time>2017-04-09T06:54:18.000Z</time>
      </trkpt>
      <trkpt lat="44.04189" lon="5.93363">
        <ele>583.59997558594</ele>
        <time>2017-04-09T06:54:21.000Z</time>
      </trkpt>
      <trkpt lat="44.04199" lon="5.93372">
        <ele>582.59997558594</ele>
        <time>2017-04-09T06:54:24.000Z</time>
      </trkpt>
      <trkpt lat="44.04204" lon="5.9336">
        <ele>580.20001220703</ele>
        <time>2017-04-09T06:54:33.000Z</time>
      </trkpt>
      <trkpt lat="44.04219" lon="5.93381">
        <ele>578.20001220703</ele>
        <time>2017-04-09T06:54:38.000Z</time>
      </trkpt>
      <trkpt lat="44.04236" lon="5.93377">
        <ele>573.59997558594</ele>
        <time>2017-04-09T06:54:46.000Z</time>
      </trkpt>
      <trkpt lat="44.04251" lon="5.93362">
        <ele>569</ele>
        <time>2017-04-09T06:54:52.000Z</time>
      </trkpt>
      <trkpt lat="44.04253" lon="5.93338">
        <ele>569.20001220703</ele>
        <time>2017-04-09T06:55:01.000Z</time>
      </trkpt>
      <trkpt lat="44.04254" lon="5.93333">
        <ele>569.40002441406</ele>
        <time>2017-04-09T06:55:03.000Z</time>
      </trkpt>
      <trkpt lat="44.04253" lon="5.93317">
        <ele>569.79998779297</ele>
        <time>2017-04-09T06:55:10.000Z</time>
      </trkpt>
      <trkpt lat="44.04265" lon="5.93308">
        <ele>568.40002441406</ele>
        <time>2017-04-09T06:55:22.000Z</time>
      </trkpt>
      <trkpt lat="44.04279" lon="5.93324">
        <ele>566.40002441406</ele>
        <time>2017-04-09T06:55:31.000Z</time>
      </trkpt>
      <trkpt lat="44.04299" lon="5.93324">
        <ele>565.40002441406</ele>
        <time>2017-04-09T06:55:39.000Z</time>
      </trkpt>
      <trkpt lat="44.04318" lon="5.93324">
        <ele>565.79998779297</ele>
        <time>2017-04-09T06:55:48.000Z</time>
      </trkpt>
      <trkpt lat="44.04319" lon="5.93325">
        <ele>565.59997558594</ele>
        <time>2017-04-09T06:55:49.000Z</time>
      </trkpt>
      <trkpt lat="44.04335" lon="5.93336">
        <ele>564.59997558594</ele>
        <time>2017-04-09T06:55:59.000Z</time>
      </trkpt>
      <trkpt lat="44.04351" lon="5.93351">
        <ele>563</ele>
        <time>2017-04-09T06:56:07.000Z</time>
      </trkpt>
      <trkpt lat="44.04358" lon="5.93358">
        <ele>562.20001220703</ele>
        <time>2017-04-09T06:56:11.000Z</time>
      </trkpt>
      <trkpt lat="44.04365" lon="5.93363">
        <ele>562.20001220703</ele>
        <time>2017-04-09T06:56:15.000Z</time>
      </trkpt>
      <trkpt lat="44.04383" lon="5.93372">
        <ele>562.59997558594</ele>
        <time>2017-04-09T06:56:24.000Z</time>
      </trkpt>
      <trkpt lat="44.04402" lon="5.9337">
        <ele>564.40002441406</ele>
        <time>2017-04-09T06:56:32.000Z</time>
      </trkpt>
      <trkpt lat="44.0442" lon="5.93363">
        <ele>566.59997558594</ele>
        <time>2017-04-09T06:56:39.000Z</time>
      </trkpt>
      <trkpt lat="44.04436" lon="5.93348">
        <ele>569.20001220703</ele>
        <time>2017-04-09T06:56:45.000Z</time>
      </trkpt>
      <trkpt lat="44.04449" lon="5.93326">
        <ele>571.59997558594</ele>
        <time>2017-04-09T06:56:51.000Z</time>
      </trkpt>
      <trkpt lat="44.04457" lon="5.933">
        <ele>572.59997558594</ele>
        <time>2017-04-09T06:56:57.000Z</time>
      </trkpt>
      <trkpt lat="44.04461" lon="5.93273">
        <ele>573.79998779297</ele>
        <time>2017-04-09T06:57:03.000Z</time>
      </trkpt>
      <trkpt lat="44.0446" lon="5.93256">
        <ele>575</ele>
        <time>2017-04-09T06:57:08.000Z</time>
      </trkpt>
      <trkpt lat="44.04465" lon="5.9323">
        <ele>574.79998779297</ele>
        <time>2017-04-09T06:57:14.000Z</time>
      </trkpt>
      <trkpt lat="44.04474" lon="5.93203">
        <ele>574.40002441406</ele>
        <time>2017-04-09T06:57:19.000Z</time>
      </trkpt>
      <trkpt lat="44.04481" lon="5.93177">
        <ele>574.79998779297</ele>
        <time>2017-04-09T06:57:24.000Z</time>
      </trkpt>
      <trkpt lat="44.04483" lon="5.93152">
        <ele>575.20001220703</ele>
        <time>2017-04-09T06:57:29.000Z</time>
      </trkpt>
      <trkpt lat="44.04483" lon="5.93127">
        <ele>576.20001220703</ele>
        <time>2017-04-09T06:57:36.000Z</time>
      </trkpt>
      <trkpt lat="44.04488" lon="5.93121">
        <ele>575.20001220703</ele>
        <time>2017-04-09T06:57:41.000Z</time>
      </trkpt>
      <trkpt lat="44.04498" lon="5.93148">
        <ele>572.20001220703</ele>
        <time>2017-04-09T06:57:47.000Z</time>
      </trkpt>
      <trkpt lat="44.04504" lon="5.93176">
        <ele>569.79998779297</ele>
        <time>2017-04-09T06:57:51.000Z</time>
      </trkpt>
      <trkpt lat="44.045" lon="5.93201">
        <ele>569.59997558594</ele>
        <time>2017-04-09T06:57:55.000Z</time>
      </trkpt>
      <trkpt lat="44.04499" lon="5.93208">
        <ele>569.20001220703</ele>
        <time>2017-04-09T06:57:56.000Z</time>
      </trkpt>
      <trkpt lat="44.04508" lon="5.93217">
        <ele>567</ele>
        <time>2017-04-09T06:58:02.000Z</time>
      </trkpt>
      <trkpt lat="44.04515" lon="5.93201">
        <ele>566.20001220703</ele>
        <time>2017-04-09T06:58:05.000Z</time>
      </trkpt>
      <trkpt lat="44.04521" lon="5.93188">
        <ele>565.40002441406</ele>
        <time>2017-04-09T06:58:07.000Z</time>
      </trkpt>
      <trkpt lat="44.0453" lon="5.9317">
        <ele>564.20001220703</ele>
        <time>2017-04-09T06:58:10.000Z</time>
      </trkpt>
      <trkpt lat="44.04535" lon="5.93156">
        <ele>563.59997558594</ele>
        <time>2017-04-09T06:58:12.000Z</time>
      </trkpt>
      <trkpt lat="44.04547" lon="5.93142">
        <ele>561.79998779297</ele>
        <time>2017-04-09T06:58:16.000Z</time>
      </trkpt>
      <trkpt lat="44.04554" lon="5.93136">
        <ele>560.79998779297</ele>
        <time>2017-04-09T06:58:18.000Z</time>
      </trkpt>
      <trkpt lat="44.04562" lon="5.9313">
        <ele>559.59997558594</ele>
        <time>2017-04-09T06:58:20.000Z</time>
      </trkpt>
      <trkpt lat="44.04575" lon="5.93112">
        <ele>557.79998779297</ele>
        <time>2017-04-09T06:58:24.000Z</time>
      </trkpt>
      <trkpt lat="44.04583" lon="5.93106">
        <ele>556.40002441406</ele>
        <time>2017-04-09T06:58:27.000Z</time>
      </trkpt>
      <trkpt lat="44.04592" lon="5.93094">
        <ele>555.20001220703</ele>
        <time>2017-04-09T06:58:35.000Z</time>
      </trkpt>
      <trkpt lat="44.04591" lon="5.93083">
        <ele>555.79998779297</ele>
        <time>2017-04-09T06:58:40.000Z</time>
      </trkpt>
      <trkpt lat="44.04588" lon="5.93072">
        <ele>556.79998779297</ele>
        <time>2017-04-09T06:58:47.000Z</time>
      </trkpt>
      <trkpt lat="44.04586" lon="5.93068">
        <ele>557.40002441406</ele>
        <time>2017-04-09T06:58:50.000Z</time>
      </trkpt>
      <trkpt lat="44.04597" lon="5.93048">
        <ele>556.59997558594</ele>
        <time>2017-04-09T06:58:57.000Z</time>
      </trkpt>
      <trkpt lat="44.04611" lon="5.93055">
        <ele>553.20001220703</ele>
        <time>2017-04-09T06:59:01.000Z</time>
      </trkpt>
      <trkpt lat="44.04627" lon="5.93066">
        <ele>553.20001220703</ele>
        <time>2017-04-09T06:59:07.000Z</time>
      </trkpt>
      <trkpt lat="44.04645" lon="5.93078">
        <ele>553</ele>
        <time>2017-04-09T06:59:14.000Z</time>
      </trkpt>
      <trkpt lat="44.04659" lon="5.93095">
        <ele>552.79998779297</ele>
        <time>2017-04-09T06:59:21.000Z</time>
      </trkpt>
      <trkpt lat="44.04658" lon="5.9311">
        <ele>552.20001220703</ele>
        <time>2017-04-09T06:59:44.000Z</time>
      </trkpt>
      <trkpt lat="44.04646" lon="5.93128">
        <ele>551.40002441406</ele>
        <time>2017-04-09T06:59:50.000Z</time>
      </trkpt>
      <trkpt lat="44.04648" lon="5.93147">
        <ele>550.59997558594</ele>
        <time>2017-04-09T06:59:54.000Z</time>
      </trkpt>
      <trkpt lat="44.04651" lon="5.93176">
        <ele>549.40002441406</ele>
        <time>2017-04-09T07:00:00.000Z</time>
      </trkpt>
      <trkpt lat="44.04655" lon="5.93202">
        <ele>548.40002441406</ele>
        <time>2017-04-09T07:00:04.000Z</time>
      </trkpt>
      <trkpt lat="44.04657" lon="5.93234">
        <ele>546.40002441406</ele>
        <time>2017-04-09T07:00:09.000Z</time>
      </trkpt>
      <trkpt lat="44.04661" lon="5.93247">
        <ele>544.79998779297</ele>
        <time>2017-04-09T07:00:11.000Z</time>
      </trkpt>
      <trkpt lat="44.0467" lon="5.9327">
        <ele>542.20001220703</ele>
        <time>2017-04-09T07:00:15.000Z</time>
      </trkpt>
      <trkpt lat="44.0467" lon="5.93286">
        <ele>540.40002441406</ele>
        <time>2017-04-09T07:00:18.000Z</time>
      </trkpt>
      <trkpt lat="44.04666" lon="5.93305">
        <ele>540.20001220703</ele>
        <time>2017-04-09T07:00:24.000Z</time>
      </trkpt>
      <trkpt lat="44.04675" lon="5.93331">
        <ele>536</ele>
        <time>2017-04-09T07:00:29.000Z</time>
      </trkpt>
      <trkpt lat="44.04692" lon="5.93347">
        <ele>532.40002441406</ele>
        <time>2017-04-09T07:00:35.000Z</time>
      </trkpt>
      <trkpt lat="44.0471" lon="5.93366">
        <ele>530</ele>
        <time>2017-04-09T07:00:40.000Z</time>
      </trkpt>
      <trkpt lat="44.04715" lon="5.93376">
        <ele>528.59997558594</ele>
        <time>2017-04-09T07:00:42.000Z</time>
      </trkpt>
      <trkpt lat="44.04727" lon="5.93401">
        <ele>525.79998779297</ele>
        <time>2017-04-09T07:00:47.000Z</time>
      </trkpt>
      <trkpt lat="44.04734" lon="5.93408">
        <ele>525.20001220703</ele>
        <time>2017-04-09T07:00:49.000Z</time>
      </trkpt>
      <trkpt lat="44.04737" lon="5.93409">
        <ele>525</ele>
        <time>2017-04-09T07:00:50.000Z</time>
      </trkpt>
      <trkpt lat="44.04755" lon="5.93402">
        <ele>526.20001220703</ele>
        <time>2017-04-09T07:00:56.000Z</time>
      </trkpt>
      <trkpt lat="44.04767" lon="5.93382">
        <ele>529</ele>
        <time>2017-04-09T07:01:03.000Z</time>
      </trkpt>
      <trkpt lat="44.04769" lon="5.93357">
        <ele>532.40002441406</ele>
        <time>2017-04-09T07:01:10.000Z</time>
      </trkpt>
      <trkpt lat="44.04772" lon="5.93334">
        <ele>535.40002441406</ele>
        <time>2017-04-09T07:01:18.000Z</time>
      </trkpt>
      <trkpt lat="44.04786" lon="5.93312">
        <ele>538.40002441406</ele>
        <time>2017-04-09T07:01:25.000Z</time>
      </trkpt>
      <trkpt lat="44.048" lon="5.93297">
        <ele>539.40002441406</ele>
        <time>2017-04-09T07:01:31.000Z</time>
      </trkpt>
      <trkpt lat="44.04805" lon="5.93314">
        <ele>537.79998779297</ele>
        <time>2017-04-09T07:01:40.000Z</time>
      </trkpt>
      <trkpt lat="44.04806" lon="5.9332">
        <ele>537.59997558594</ele>
        <time>2017-04-09T07:01:42.000Z</time>
      </trkpt>
      <trkpt lat="44.04806" lon="5.9335">
        <ele>534.79998779297</ele>
        <time>2017-04-09T07:01:50.000Z</time>
      </trkpt>
      <trkpt lat="44.04806" lon="5.9337">
        <ele>532.20001220703</ele>
        <time>2017-04-09T07:01:53.000Z</time>
      </trkpt>
      <trkpt lat="44.04813" lon="5.93397">
        <ele>529.59997558594</ele>
        <time>2017-04-09T07:01:58.000Z</time>
      </trkpt>
      <trkpt lat="44.04823" lon="5.93418">
        <ele>529.59997558594</ele>
        <time>2017-04-09T07:02:04.000Z</time>
      </trkpt>
      <trkpt lat="44.04834" lon="5.9344">
        <ele>529.59997558594</ele>
        <time>2017-04-09T07:02:12.000Z</time>
      </trkpt>
      <trkpt lat="44.04842" lon="5.93467">
        <ele>528.40002441406</ele>
        <time>2017-04-09T07:02:18.000Z</time>
      </trkpt>
      <trkpt lat="44.04843" lon="5.93473">
        <ele>528</ele>
        <time>2017-04-09T07:02:19.000Z</time>
      </trkpt>
      <trkpt lat="44.04855" lon="5.93489">
        <ele>528.59997558594</ele>
        <time>2017-04-09T07:02:25.000Z</time>
      </trkpt>
      <trkpt lat="44.04857" lon="5.93488">
        <ele>529</ele>
        <time>2017-04-09T07:02:26.000Z</time>
      </trkpt>
      <trkpt lat="44.04862" lon="5.93486">
        <ele>529.59997558594</ele>
        <time>2017-04-09T07:02:28.000Z</time>
      </trkpt>
      <trkpt lat="44.04871" lon="5.93504">
        <ele>529</ele>
        <time>2017-04-09T07:02:34.000Z</time>
      </trkpt>
      <trkpt lat="44.04883" lon="5.93524">
        <ele>528.79998779297</ele>
        <time>2017-04-09T07:02:40.000Z</time>
      </trkpt>
      <trkpt lat="44.04902" lon="5.93529">
        <ele>529.79998779297</ele>
        <time>2017-04-09T07:02:46.000Z</time>
      </trkpt>
      <trkpt lat="44.04921" lon="5.93531">
        <ele>531.20001220703</ele>
        <time>2017-04-09T07:02:51.000Z</time>
      </trkpt>
      <trkpt lat="44.04921" lon="5.93547">
        <ele>530</ele>
        <time>2017-04-09T07:02:56.000Z</time>
      </trkpt>
      <trkpt lat="44.04917" lon="5.93549">
        <ele>529.59997558594</ele>
        <time>2017-04-09T07:02:57.000Z</time>
      </trkpt>
      <trkpt lat="44.04899" lon="5.93556">
        <ele>528</ele>
        <time>2017-04-09T07:03:01.000Z</time>
      </trkpt>
      <trkpt lat="44.04882" lon="5.93546">
        <ele>527.40002441406</ele>
        <time>2017-04-09T07:03:07.000Z</time>
      </trkpt>
      <trkpt lat="44.04877" lon="5.9354">
        <ele>527.40002441406</ele>
        <time>2017-04-09T07:03:10.000Z</time>
      </trkpt>
      <trkpt lat="44.04861" lon="5.93542">
        <ele>526</ele>
        <time>2017-04-09T07:03:17.000Z</time>
      </trkpt>
      <trkpt lat="44.0485" lon="5.93566">
        <ele>523.20001220703</ele>
        <time>2017-04-09T07:03:23.000Z</time>
      </trkpt>
      <trkpt lat="44.0485" lon="5.9358">
        <ele>522</ele>
        <time>2017-04-09T07:03:25.000Z</time>
      </trkpt>
      <trkpt lat="44.0485" lon="5.93588">
        <ele>521.40002441406</ele>
        <time>2017-04-09T07:03:26.000Z</time>
      </trkpt>
      <trkpt lat="44.04849" lon="5.93613">
        <ele>519</ele>
        <time>2017-04-09T07:03:30.000Z</time>
      </trkpt>
      <trkpt lat="44.04851" lon="5.93619">
        <ele>518.79998779297</ele>
        <time>2017-04-09T07:03:31.000Z</time>
      </trkpt>
      <trkpt lat="44.04856" lon="5.93639">
        <ele>517.79998779297</ele>
        <time>2017-04-09T07:03:36.000Z</time>
      </trkpt>
      <trkpt lat="44.04874" lon="5.93634">
        <ele>518.59997558594</ele>
        <time>2017-04-09T07:03:42.000Z</time>
      </trkpt>
      <trkpt lat="44.0489" lon="5.93623">
        <ele>519.40002441406</ele>
        <time>2017-04-09T07:03:47.000Z</time>
      </trkpt>
      <trkpt lat="44.04904" lon="5.93644">
        <ele>517.79998779297</ele>
        <time>2017-04-09T07:03:57.000Z</time>
      </trkpt>
      <trkpt lat="44.04905" lon="5.93657">
        <ele>517.40002441406</ele>
        <time>2017-04-09T07:03:59.000Z</time>
      </trkpt>
      <trkpt lat="44.04904" lon="5.93683">
        <ele>516.40002441406</ele>
        <time>2017-04-09T07:04:06.000Z</time>
      </trkpt>
      <trkpt lat="44.04906" lon="5.93685">
        <ele>516.40002441406</ele>
        <time>2017-04-09T07:04:07.000Z</time>
      </trkpt>
      <trkpt lat="44.04925" lon="5.93683">
        <ele>516.40002441406</ele>
        <time>2017-04-09T07:04:19.000Z</time>
      </trkpt>
      <trkpt lat="44.04942" lon="5.93676">
        <ele>516.79998779297</ele>
        <time>2017-04-09T07:04:26.000Z</time>
      </trkpt>
      <trkpt lat="44.04949" lon="5.93675">
        <ele>517.79998779297</ele>
        <time>2017-04-09T07:04:29.000Z</time>
      </trkpt>
      <trkpt lat="44.04959" lon="5.93674">
        <ele>519.20001220703</ele>
        <time>2017-04-09T07:04:33.000Z</time>
      </trkpt>
      <trkpt lat="44.04977" lon="5.93672">
        <ele>521.59997558594</ele>
        <time>2017-04-09T07:04:41.000Z</time>
      </trkpt>
      <trkpt lat="44.0499" lon="5.93688">
        <ele>523</ele>
        <time>2017-04-09T07:04:54.000Z</time>
      </trkpt>
      <trkpt lat="44.04998" lon="5.93695">
        <ele>524</ele>
        <time>2017-04-09T07:05:01.000Z</time>
      </trkpt>
      <trkpt lat="44.05002" lon="5.93715">
        <ele>524</ele>
        <time>2017-04-09T07:06:38.000Z</time>
      </trkpt>
      <trkpt lat="44.05001" lon="5.93741">
        <ele>524.59997558594</ele>
        <time>2017-04-09T07:06:47.000Z</time>
      </trkpt>
      <trkpt lat="44.04993" lon="5.93766">
        <ele>524.79998779297</ele>
        <time>2017-04-09T07:06:58.000Z</time>
      </trkpt>
      <trkpt lat="44.04989" lon="5.93791">
        <ele>526.20001220703</ele>
        <time>2017-04-09T07:07:10.000Z</time>
      </trkpt>
      <trkpt lat="44.04985" lon="5.93816">
        <ele>526.40002441406</ele>
        <time>2017-04-09T07:07:22.000Z</time>
      </trkpt>
      <trkpt lat="44.04979" lon="5.93835">
        <ele>523.79998779297</ele>
        <time>2017-04-09T07:07:37.000Z</time>
      </trkpt>
      <trkpt lat="44.04961" lon="5.93835">
        <ele>521.79998779297</ele>
        <time>2017-04-09T07:07:51.000Z</time>
      </trkpt>
      <trkpt lat="44.04941" lon="5.93836">
        <ele>519.59997558594</ele>
        <time>2017-04-09T07:08:01.000Z</time>
      </trkpt>
      <trkpt lat="44.04923" lon="5.9384">
        <ele>515.20001220703</ele>
        <time>2017-04-09T07:08:09.000Z</time>
      </trkpt>
      <trkpt lat="44.04915" lon="5.93851">
        <ele>512.59997558594</ele>
        <time>2017-04-09T07:08:13.000Z</time>
      </trkpt>
      <trkpt lat="44.04928" lon="5.9387">
        <ele>514</ele>
        <time>2017-04-09T07:08:18.000Z</time>
      </trkpt>
      <trkpt lat="44.04936" lon="5.93874">
        <ele>515.59997558594</ele>
        <time>2017-04-09T07:08:20.000Z</time>
      </trkpt>
      <trkpt lat="44.04948" lon="5.93882">
        <ele>517.20001220703</ele>
        <time>2017-04-09T07:08:23.000Z</time>
      </trkpt>
      <trkpt lat="44.04962" lon="5.93898">
        <ele>517</ele>
        <time>2017-04-09T07:08:27.000Z</time>
      </trkpt>
      <trkpt lat="44.04967" lon="5.93903">
        <ele>516.79998779297</ele>
        <time>2017-04-09T07:08:29.000Z</time>
      </trkpt>
      <trkpt lat="44.04983" lon="5.93918">
        <ele>516.59997558594</ele>
        <time>2017-04-09T07:08:35.000Z</time>
      </trkpt>
      <trkpt lat="44.05002" lon="5.93935">
        <ele>516.40002441406</ele>
        <time>2017-04-09T07:08:40.000Z</time>
      </trkpt>
      <trkpt lat="44.05011" lon="5.93955">
        <ele>514.79998779297</ele>
        <time>2017-04-09T07:08:44.000Z</time>
      </trkpt>
      <trkpt lat="44.04991" lon="5.93967">
        <ele>510</ele>
        <time>2017-04-09T07:08:50.000Z</time>
      </trkpt>
      <trkpt lat="44.04987" lon="5.93969">
        <ele>508.79998779297</ele>
        <time>2017-04-09T07:08:51.000Z</time>
      </trkpt>
      <trkpt lat="44.0497" lon="5.93982">
        <ele>504.60000610352</ele>
        <time>2017-04-09T07:08:56.000Z</time>
      </trkpt>
      <trkpt lat="44.04955" lon="5.93998">
        <ele>500.79998779297</ele>
        <time>2017-04-09T07:09:06.000Z</time>
      </trkpt>
      <trkpt lat="44.04952" lon="5.94001">
        <ele>499.79998779297</ele>
        <time>2017-04-09T07:09:07.000Z</time>
      </trkpt>
      <trkpt lat="44.04935" lon="5.94015">
        <ele>495.60000610352</ele>
        <time>2017-04-09T07:09:11.000Z</time>
      </trkpt>
      <trkpt lat="44.04919" lon="5.94033">
        <ele>491.20001220703</ele>
        <time>2017-04-09T07:09:17.000Z</time>
      </trkpt>
      <trkpt lat="44.04906" lon="5.9405">
        <ele>486.79998779297</ele>
        <time>2017-04-09T07:09:20.000Z</time>
      </trkpt>
      <trkpt lat="44.04894" lon="5.94074">
        <ele>482.60000610352</ele>
        <time>2017-04-09T07:09:23.000Z</time>
      </trkpt>
      <trkpt lat="44.04891" lon="5.9408">
        <ele>481.79998779297</ele>
        <time>2017-04-09T07:09:24.000Z</time>
      </trkpt>
      <trkpt lat="44.0488" lon="5.941">
        <ele>478</ele>
        <time>2017-04-09T07:09:29.000Z</time>
      </trkpt>
      <trkpt lat="44.04881" lon="5.94104">
        <ele>477.60000610352</ele>
        <time>2017-04-09T07:09:31.000Z</time>
      </trkpt>
      <trkpt lat="44.04888" lon="5.9413">
        <ele>476.60000610352</ele>
        <time>2017-04-09T07:09:39.000Z</time>
      </trkpt>
      <trkpt lat="44.04894" lon="5.94144">
        <ele>476.60000610352</ele>
        <time>2017-04-09T07:09:43.000Z</time>
      </trkpt>
      <trkpt lat="44.04889" lon="5.94162">
        <ele>475.79998779297</ele>
        <time>2017-04-09T07:09:47.000Z</time>
      </trkpt>
      <trkpt lat="44.04881" lon="5.94184">
        <ele>473.39999389648</ele>
        <time>2017-04-09T07:09:52.000Z</time>
      </trkpt>
      <trkpt lat="44.0488" lon="5.942">
        <ele>472.60000610352</ele>
        <time>2017-04-09T07:09:56.000Z</time>
      </trkpt>
      <trkpt lat="44.04875" lon="5.94224">
        <ele>470.60000610352</ele>
        <time>2017-04-09T07:11:00.000Z</time>
      </trkpt>
      <trkpt lat="44.0487" lon="5.94247">
        <ele>468.39999389648</ele>
        <time>2017-04-09T07:11:06.000Z</time>
      </trkpt>
      <trkpt lat="44.04865" lon="5.94272">
        <ele>466.60000610352</ele>
        <time>2017-04-09T07:11:10.000Z</time>
      </trkpt>
      <trkpt lat="44.04851" lon="5.94263">
        <ele>467</ele>
        <time>2017-04-09T07:11:17.000Z</time>
      </trkpt>
      <trkpt lat="44.0485" lon="5.94277">
        <ele>466.60000610352</ele>
        <time>2017-04-09T07:11:20.000Z</time>
      </trkpt>
      <trkpt lat="44.04851" lon="5.94284">
        <ele>466.20001220703</ele>
        <time>2017-04-09T07:11:21.000Z</time>
      </trkpt>
      <trkpt lat="44.04855" lon="5.94313">
        <ele>465</ele>
        <time>2017-04-09T07:11:25.000Z</time>
      </trkpt>
      <trkpt lat="44.04857" lon="5.94319">
        <ele>464.39999389648</ele>
        <time>2017-04-09T07:11:26.000Z</time>
      </trkpt>
      <trkpt lat="44.04861" lon="5.94339">
        <ele>463.79998779297</ele>
        <time>2017-04-09T07:11:29.000Z</time>
      </trkpt>
      <trkpt lat="44.04862" lon="5.94356">
        <ele>463.60000610352</ele>
        <time>2017-04-09T07:11:32.000Z</time>
      </trkpt>
      <trkpt lat="44.04871" lon="5.9438">
        <ele>464.20001220703</ele>
        <time>2017-04-09T07:11:38.000Z</time>
      </trkpt>
      <trkpt lat="44.04874" lon="5.94392">
        <ele>464.20001220703</ele>
        <time>2017-04-09T07:11:40.000Z</time>
      </trkpt>
      <trkpt lat="44.04885" lon="5.94415">
        <ele>461.60000610352</ele>
        <time>2017-04-09T07:11:46.000Z</time>
      </trkpt>
      <trkpt lat="44.04892" lon="5.94424">
        <ele>461.20001220703</ele>
        <time>2017-04-09T07:11:50.000Z</time>
      </trkpt>
      <trkpt lat="44.04893" lon="5.94445">
        <ele>462.60000610352</ele>
        <time>2017-04-09T07:11:57.000Z</time>
      </trkpt>
      <trkpt lat="44.04902" lon="5.94468">
        <ele>463.20001220703</ele>
        <time>2017-04-09T07:12:03.000Z</time>
      </trkpt>
      <trkpt lat="44.04918" lon="5.94478">
        <ele>461.39999389648</ele>
        <time>2017-04-09T07:12:12.000Z</time>
      </trkpt>
      <trkpt lat="44.04923" lon="5.94501">
        <ele>459.60000610352</ele>
        <time>2017-04-09T07:13:03.000Z</time>
      </trkpt>
      <trkpt lat="44.04923" lon="5.94529">
        <ele>458.20001220703</ele>
        <time>2017-04-09T07:13:13.000Z</time>
      </trkpt>
      <trkpt lat="44.04924" lon="5.94536">
        <ele>457.60000610352</ele>
        <time>2017-04-09T07:13:14.000Z</time>
      </trkpt>
      <trkpt lat="44.04927" lon="5.94551">
        <ele>458.39999389648</ele>
        <time>2017-04-09T07:13:16.000Z</time>
      </trkpt>
      <trkpt lat="44.0493" lon="5.94582">
        <ele>460</ele>
        <time>2017-04-09T07:13:20.000Z</time>
      </trkpt>
      <trkpt lat="44.04932" lon="5.94608">
        <ele>461.39999389648</ele>
        <time>2017-04-09T07:13:25.000Z</time>
      </trkpt>
      <trkpt lat="44.04937" lon="5.94615">
        <ele>460.20001220703</ele>
        <time>2017-04-09T07:13:27.000Z</time>
      </trkpt>
      <trkpt lat="44.0495" lon="5.94631">
        <ele>458.39999389648</ele>
        <time>2017-04-09T07:13:33.000Z</time>
      </trkpt>
      <trkpt lat="44.04964" lon="5.94649">
        <ele>457</ele>
        <time>2017-04-09T07:13:40.000Z</time>
      </trkpt>
      <trkpt lat="44.04969" lon="5.9466">
        <ele>455.79998779297</ele>
        <time>2017-04-09T07:13:43.000Z</time>
      </trkpt>
      <trkpt lat="44.04983" lon="5.94677">
        <ele>453</ele>
        <time>2017-04-09T07:13:49.000Z</time>
      </trkpt>
      <trkpt lat="44.04986" lon="5.94693">
        <ele>453.60000610352</ele>
        <time>2017-04-09T07:13:52.000Z</time>
      </trkpt>
      <trkpt lat="44.04987" lon="5.947">
        <ele>454</ele>
        <time>2017-04-09T07:13:53.000Z</time>
      </trkpt>
      <trkpt lat="44.05001" lon="5.94722">
        <ele>452.60000610352</ele>
        <time>2017-04-09T07:13:57.000Z</time>
      </trkpt>
      <trkpt lat="44.05009" lon="5.9473">
        <ele>450.60000610352</ele>
        <time>2017-04-09T07:13:59.000Z</time>
      </trkpt>
      <trkpt lat="44.05012" lon="5.94754">
        <ele>449.79998779297</ele>
        <time>2017-04-09T07:14:06.000Z</time>
      </trkpt>
      <trkpt lat="44.05014" lon="5.94772">
        <ele>449.39999389648</ele>
        <time>2017-04-09T07:14:11.000Z</time>
      </trkpt>
      <trkpt lat="44.05019" lon="5.94801">
        <ele>448.20001220703</ele>
        <time>2017-04-09T07:14:16.000Z</time>
      </trkpt>
      <trkpt lat="44.05023" lon="5.9483">
        <ele>445</ele>
        <time>2017-04-09T07:14:21.000Z</time>
      </trkpt>
      <trkpt lat="44.05031" lon="5.94853">
        <ele>442.20001220703</ele>
        <time>2017-04-09T07:14:28.000Z</time>
      </trkpt>
      <trkpt lat="44.05034" lon="5.94879">
        <ele>440</ele>
        <time>2017-04-09T07:14:36.000Z</time>
      </trkpt>
      <trkpt lat="44.05032" lon="5.94905">
        <ele>438.39999389648</ele>
        <time>2017-04-09T07:14:41.000Z</time>
      </trkpt>
      <trkpt lat="44.05029" lon="5.94936">
        <ele>437.79998779297</ele>
        <time>2017-04-09T07:14:46.000Z</time>
      </trkpt>
      <trkpt lat="44.05027" lon="5.94962">
        <ele>437.20001220703</ele>
        <time>2017-04-09T07:14:50.000Z</time>
      </trkpt>
      <trkpt lat="44.05028" lon="5.94969">
        <ele>437</ele>
        <time>2017-04-09T07:14:51.000Z</time>
      </trkpt>
      <trkpt lat="44.05036" lon="5.94986">
        <ele>435.79998779297</ele>
        <time>2017-04-09T07:14:55.000Z</time>
      </trkpt>
      <trkpt lat="44.05046" lon="5.95009">
        <ele>434.20001220703</ele>
        <time>2017-04-09T07:15:01.000Z</time>
      </trkpt>
      <trkpt lat="44.05054" lon="5.95036">
        <ele>432.79998779297</ele>
        <time>2017-04-09T07:15:06.000Z</time>
      </trkpt>
      <trkpt lat="44.05055" lon="5.95053">
        <ele>432</ele>
        <time>2017-04-09T07:15:10.000Z</time>
      </trkpt>
      <trkpt lat="44.05053" lon="5.95059">
        <ele>432</ele>
        <time>2017-04-09T07:15:12.000Z</time>
      </trkpt>
      <trkpt lat="44.05062" lon="5.95081">
        <ele>431.39999389648</ele>
        <time>2017-04-09T07:15:24.000Z</time>
      </trkpt>
      <trkpt lat="44.05064" lon="5.95082">
        <ele>431.20001220703</ele>
        <time>2017-04-09T07:15:25.000Z</time>
      </trkpt>
      <trkpt lat="44.05075" lon="5.95101">
        <ele>430.39999389648</ele>
        <time>2017-04-09T07:15:31.000Z</time>
      </trkpt>
      <trkpt lat="44.05079" lon="5.95109">
        <ele>430.20001220703</ele>
        <time>2017-04-09T07:15:36.000Z</time>
      </trkpt>
      <trkpt lat="44.05079" lon="5.95112">
        <ele>430</ele>
        <time>2017-04-09T07:15:38.000Z</time>
      </trkpt>
      <trkpt lat="44.05074" lon="5.95126">
        <ele>428.60000610352</ele>
        <time>2017-04-09T07:15:44.000Z</time>
      </trkpt>
      <trkpt lat="44.05063" lon="5.95143">
        <ele>427</ele>
        <time>2017-04-09T07:15:54.000Z</time>
      </trkpt>
      <trkpt lat="44.05062" lon="5.95158">
        <ele>427.39999389648</ele>
        <time>2017-04-09T07:15:59.000Z</time>
      </trkpt>
      <trkpt lat="44.05071" lon="5.95181">
        <ele>428.60000610352</ele>
        <time>2017-04-09T07:16:07.000Z</time>
      </trkpt>
      <trkpt lat="44.05084" lon="5.95203">
        <ele>429.39999389648</ele>
        <time>2017-04-09T07:16:15.000Z</time>
      </trkpt>
      <trkpt lat="44.05094" lon="5.95224">
        <ele>429.39999389648</ele>
        <time>2017-04-09T07:16:22.000Z</time>
      </trkpt>
      <trkpt lat="44.05104" lon="5.95245">
        <ele>432.39999389648</ele>
        <time>2017-04-09T07:16:29.000Z</time>
      </trkpt>
      <trkpt lat="44.05116" lon="5.95268">
        <ele>435.60000610352</ele>
        <time>2017-04-09T07:16:38.000Z</time>
      </trkpt>
      <trkpt lat="44.05125" lon="5.95292">
        <ele>438.60000610352</ele>
        <time>2017-04-09T07:16:47.000Z</time>
      </trkpt>
      <trkpt lat="44.05136" lon="5.95312">
        <ele>441.39999389648</ele>
        <time>2017-04-09T07:16:58.000Z</time>
      </trkpt>
      <trkpt lat="44.05146" lon="5.95333">
        <ele>445.39999389648</ele>
        <time>2017-04-09T07:17:09.000Z</time>
      </trkpt>
      <trkpt lat="44.05157" lon="5.9534">
        <ele>447</ele>
        <time>2017-04-09T07:17:21.000Z</time>
      </trkpt>
      <trkpt lat="44.05163" lon="5.9534">
        <ele>447.60000610352</ele>
        <time>2017-04-09T07:17:25.000Z</time>
      </trkpt>
      <trkpt lat="44.05181" lon="5.95347">
        <ele>449.79998779297</ele>
        <time>2017-04-09T07:17:38.000Z</time>
      </trkpt>
      <trkpt lat="44.05198" lon="5.95355">
        <ele>452</ele>
        <time>2017-04-09T07:17:52.000Z</time>
      </trkpt>
      <trkpt lat="44.05215" lon="5.95364">
        <ele>453.60000610352</ele>
        <time>2017-04-09T07:18:03.000Z</time>
      </trkpt>
      <trkpt lat="44.05231" lon="5.95377">
        <ele>455.79998779297</ele>
        <time>2017-04-09T07:18:17.000Z</time>
      </trkpt>
      <trkpt lat="44.05249" lon="5.95384">
        <ele>457.39999389648</ele>
        <time>2017-04-09T07:18:28.000Z</time>
      </trkpt>
      <trkpt lat="44.05268" lon="5.95391">
        <ele>458.79998779297</ele>
        <time>2017-04-09T07:18:37.000Z</time>
      </trkpt>
      <trkpt lat="44.05282" lon="5.95395">
        <ele>460</ele>
        <time>2017-04-09T07:18:47.000Z</time>
      </trkpt>
      <trkpt lat="44.05291" lon="5.95399">
        <ele>460.39999389648</ele>
        <time>2017-04-09T07:18:51.000Z</time>
      </trkpt>
      <trkpt lat="44.05312" lon="5.95394">
        <ele>458.79998779297</ele>
        <time>2017-04-09T07:18:56.000Z</time>
      </trkpt>
      <trkpt lat="44.05325" lon="5.95389">
        <ele>457.60000610352</ele>
        <time>2017-04-09T07:18:59.000Z</time>
      </trkpt>
      <trkpt lat="44.05341" lon="5.95379">
        <ele>455.20001220703</ele>
        <time>2017-04-09T07:19:04.000Z</time>
      </trkpt>
      <trkpt lat="44.05363" lon="5.95375">
        <ele>454.39999389648</ele>
        <time>2017-04-09T07:19:10.000Z</time>
      </trkpt>
      <trkpt lat="44.05372" lon="5.95372">
        <ele>453.60000610352</ele>
        <time>2017-04-09T07:19:12.000Z</time>
      </trkpt>
      <trkpt lat="44.05391" lon="5.95383">
        <ele>454.60000610352</ele>
        <time>2017-04-09T07:19:18.000Z</time>
      </trkpt>
      <trkpt lat="44.05406" lon="5.95398">
        <ele>457</ele>
        <time>2017-04-09T07:19:25.000Z</time>
      </trkpt>
      <trkpt lat="44.05423" lon="5.95413">
        <ele>459.79998779297</ele>
        <time>2017-04-09T07:19:33.000Z</time>
      </trkpt>
      <trkpt lat="44.0543" lon="5.95422">
        <ele>461.60000610352</ele>
        <time>2017-04-09T07:19:40.000Z</time>
      </trkpt>
      <trkpt lat="44.05436" lon="5.95429">
        <ele>462.79998779297</ele>
        <time>2017-04-09T07:19:46.000Z</time>
      </trkpt>
      <trkpt lat="44.05449" lon="5.95442">
        <ele>465</ele>
        <time>2017-04-09T07:21:09.000Z</time>
      </trkpt>
      <trkpt lat="44.05466" lon="5.95456">
        <ele>465.79998779297</ele>
        <time>2017-04-09T07:21:20.000Z</time>
      </trkpt>
      <trkpt lat="44.05482" lon="5.9547">
        <ele>466.79998779297</ele>
        <time>2017-04-09T07:21:27.000Z</time>
      </trkpt>
      <trkpt lat="44.05498" lon="5.95486">
        <ele>468.39999389648</ele>
        <time>2017-04-09T07:21:35.000Z</time>
      </trkpt>
      <trkpt lat="44.05516" lon="5.955">
        <ele>469.60000610352</ele>
        <time>2017-04-09T07:21:42.000Z</time>
      </trkpt>
      <trkpt lat="44.05521" lon="5.95507">
        <ele>470.60000610352</ele>
        <time>2017-04-09T07:21:45.000Z</time>
      </trkpt>
      <trkpt lat="44.05529" lon="5.9553">
        <ele>475.20001220703</ele>
        <time>2017-04-09T07:21:55.000Z</time>
      </trkpt>
      <trkpt lat="44.05535" lon="5.9554">
        <ele>476.60000610352</ele>
        <time>2017-04-09T07:21:59.000Z</time>
      </trkpt>
      <trkpt lat="44.05554" lon="5.95542">
        <ele>475</ele>
        <time>2017-04-09T07:22:07.000Z</time>
      </trkpt>
      <trkpt lat="44.05565" lon="5.95562">
        <ele>478.39999389648</ele>
        <time>2017-04-09T07:22:18.000Z</time>
      </trkpt>
      <trkpt lat="44.0558" lon="5.95577">
        <ele>480</ele>
        <time>2017-04-09T07:22:29.000Z</time>
      </trkpt>
      <trkpt lat="44.05594" lon="5.95595">
        <ele>482.20001220703</ele>
        <time>2017-04-09T07:22:37.000Z</time>
      </trkpt>
      <trkpt lat="44.05604" lon="5.95608">
        <ele>484</ele>
        <time>2017-04-09T07:22:44.000Z</time>
      </trkpt>
      <trkpt lat="44.05619" lon="5.95622">
        <ele>484.60000610352</ele>
        <time>2017-04-09T07:22:54.000Z</time>
      </trkpt>
      <trkpt lat="44.05634" lon="5.95641">
        <ele>485.79998779297</ele>
        <time>2017-04-09T07:23:05.000Z</time>
      </trkpt>
      <trkpt lat="44.05647" lon="5.95662">
        <ele>488</ele>
        <time>2017-04-09T07:23:15.000Z</time>
      </trkpt>
      <trkpt lat="44.05661" lon="5.9568">
        <ele>489.79998779297</ele>
        <time>2017-04-09T07:23:26.000Z</time>
      </trkpt>
      <trkpt lat="44.05668" lon="5.95703">
        <ele>493.79998779297</ele>
        <time>2017-04-09T07:23:38.000Z</time>
      </trkpt>
      <trkpt lat="44.05679" lon="5.95724">
        <ele>496.20001220703</ele>
        <time>2017-04-09T07:23:49.000Z</time>
      </trkpt>
      <trkpt lat="44.05693" lon="5.95739">
        <ele>497.39999389648</ele>
        <time>2017-04-09T07:23:58.000Z</time>
      </trkpt>
      <trkpt lat="44.05703" lon="5.95747">
        <ele>498.39999389648</ele>
        <time>2017-04-09T07:24:05.000Z</time>
      </trkpt>
      <trkpt lat="44.05713" lon="5.95753">
        <ele>498.39999389648</ele>
        <time>2017-04-09T07:24:10.000Z</time>
      </trkpt>
      <trkpt lat="44.05729" lon="5.9577">
        <ele>500.60000610352</ele>
        <time>2017-04-09T07:24:18.000Z</time>
      </trkpt>
      <trkpt lat="44.05744" lon="5.95783">
        <ele>502</ele>
        <time>2017-04-09T07:24:26.000Z</time>
      </trkpt>
      <trkpt lat="44.05761" lon="5.95798">
        <ele>503.39999389648</ele>
        <time>2017-04-09T07:24:36.000Z</time>
      </trkpt>
      <trkpt lat="44.05774" lon="5.95816">
        <ele>505.60000610352</ele>
        <time>2017-04-09T07:24:45.000Z</time>
      </trkpt>
      <trkpt lat="44.05786" lon="5.95837">
        <ele>507.20001220703</ele>
        <time>2017-04-09T07:24:54.000Z</time>
      </trkpt>
      <trkpt lat="44.05803" lon="5.9585">
        <ele>507</ele>
        <time>2017-04-09T07:25:04.000Z</time>
      </trkpt>
      <trkpt lat="44.05813" lon="5.95863">
        <ele>507.79998779297</ele>
        <time>2017-04-09T07:25:11.000Z</time>
      </trkpt>
      <trkpt lat="44.05825" lon="5.95864">
        <ele>506.39999389648</ele>
        <time>2017-04-09T07:25:15.000Z</time>
      </trkpt>
      <trkpt lat="44.05838" lon="5.95876">
        <ele>506.39999389648</ele>
        <time>2017-04-09T07:25:20.000Z</time>
      </trkpt>
      <trkpt lat="44.05846" lon="5.95899">
        <ele>509</ele>
        <time>2017-04-09T07:25:30.000Z</time>
      </trkpt>
      <trkpt lat="44.05848" lon="5.95907">
        <ele>509.79998779297</ele>
        <time>2017-04-09T07:25:34.000Z</time>
      </trkpt>
      <trkpt lat="44.0586" lon="5.95928">
        <ele>511.20001220703</ele>
        <time>2017-04-09T07:25:45.000Z</time>
      </trkpt>
      <trkpt lat="44.05877" lon="5.95942">
        <ele>512.20001220703</ele>
        <time>2017-04-09T07:25:56.000Z</time>
      </trkpt>
      <trkpt lat="44.05889" lon="5.9596">
        <ele>514.20001220703</ele>
        <time>2017-04-09T07:26:05.000Z</time>
      </trkpt>
      <trkpt lat="44.05896" lon="5.95986">
        <ele>516.59997558594</ele>
        <time>2017-04-09T07:26:16.000Z</time>
      </trkpt>
      <trkpt lat="44.05905" lon="5.9601">
        <ele>517.79998779297</ele>
        <time>2017-04-09T07:26:26.000Z</time>
      </trkpt>
      <trkpt lat="44.05921" lon="5.96023">
        <ele>517.79998779297</ele>
        <time>2017-04-09T07:26:36.000Z</time>
      </trkpt>
      <trkpt lat="44.05937" lon="5.96037">
        <ele>517.79998779297</ele>
        <time>2017-04-09T07:26:46.000Z</time>
      </trkpt>
      <trkpt lat="44.05937" lon="5.96039">
        <ele>518</ele>
        <time>2017-04-09T07:26:47.000Z</time>
      </trkpt>
      <trkpt lat="44.05936" lon="5.96051">
        <ele>519</ele>
        <time>2017-04-09T07:26:53.000Z</time>
      </trkpt>
      <trkpt lat="44.05931" lon="5.96076">
        <ele>519.40002441406</ele>
        <time>2017-04-09T07:27:06.000Z</time>
      </trkpt>
      <trkpt lat="44.05931" lon="5.96099">
        <ele>518</ele>
        <time>2017-04-09T07:27:29.000Z</time>
      </trkpt>
      <trkpt lat="44.05926" lon="5.9611">
        <ele>518.20001220703</ele>
        <time>2017-04-09T07:27:35.000Z</time>
      </trkpt>
      <trkpt lat="44.0592" lon="5.96135">
        <ele>517.40002441406</ele>
        <time>2017-04-09T07:27:39.000Z</time>
      </trkpt>
      <trkpt lat="44.05918" lon="5.96143">
        <ele>517</ele>
        <time>2017-04-09T07:27:41.000Z</time>
      </trkpt>
      <trkpt lat="44.05912" lon="5.96171">
        <ele>515.20001220703</ele>
        <time>2017-04-09T07:27:46.000Z</time>
      </trkpt>
      <trkpt lat="44.05907" lon="5.96197">
        <ele>512.40002441406</ele>
        <time>2017-04-09T07:27:51.000Z</time>
      </trkpt>
      <trkpt lat="44.05898" lon="5.96222">
        <ele>507.20001220703</ele>
        <time>2017-04-09T07:27:55.000Z</time>
      </trkpt>
      <trkpt lat="44.05887" lon="5.96243">
        <ele>506.60000610352</ele>
        <time>2017-04-09T07:27:58.000Z</time>
      </trkpt>
      <trkpt lat="44.05876" lon="5.96263">
        <ele>504.20001220703</ele>
        <time>2017-04-09T07:28:01.000Z</time>
      </trkpt>
      <trkpt lat="44.05871" lon="5.96268">
        <ele>503.20001220703</ele>
        <time>2017-04-09T07:28:02.000Z</time>
      </trkpt>
      <trkpt lat="44.0585" lon="5.96282">
        <ele>500.20001220703</ele>
        <time>2017-04-09T07:28:05.000Z</time>
      </trkpt>
      <trkpt lat="44.05842" lon="5.96285">
        <ele>500</ele>
        <time>2017-04-09T07:28:06.000Z</time>
      </trkpt>
      <trkpt lat="44.05816" lon="5.96291">
        <ele>499</ele>
        <time>2017-04-09T07:28:09.000Z</time>
      </trkpt>
      <trkpt lat="44.05796" lon="5.96298">
        <ele>497.60000610352</ele>
        <time>2017-04-09T07:28:12.000Z</time>
      </trkpt>
      <trkpt lat="44.05777" lon="5.96312">
        <ele>495.79998779297</ele>
        <time>2017-04-09T07:28:19.000Z</time>
      </trkpt>
      <trkpt lat="44.0576" lon="5.96322">
        <ele>496.20001220703</ele>
        <time>2017-04-09T07:28:24.000Z</time>
      </trkpt>
      <trkpt lat="44.05752" lon="5.96346">
        <ele>494.79998779297</ele>
        <time>2017-04-09T07:28:30.000Z</time>
      </trkpt>
      <trkpt lat="44.05744" lon="5.96372">
        <ele>492.60000610352</ele>
        <time>2017-04-09T07:28:34.000Z</time>
      </trkpt>
      <trkpt lat="44.05738" lon="5.96396">
        <ele>490</ele>
        <time>2017-04-09T07:28:39.000Z</time>
      </trkpt>
      <trkpt lat="44.05752" lon="5.96418">
        <ele>489.60000610352</ele>
        <time>2017-04-09T07:28:48.000Z</time>
      </trkpt>
      <trkpt lat="44.05768" lon="5.96432">
        <ele>489.20001220703</ele>
        <time>2017-04-09T07:28:54.000Z</time>
      </trkpt>
      <trkpt lat="44.05777" lon="5.96432">
        <ele>489.20001220703</ele>
        <time>2017-04-09T07:29:01.000Z</time>
      </trkpt>
      <trkpt lat="44.05782" lon="5.96427">
        <ele>490.39999389648</ele>
        <time>2017-04-09T07:29:05.000Z</time>
      </trkpt>
      <trkpt lat="44.05797" lon="5.96413">
        <ele>493.79998779297</ele>
        <time>2017-04-09T07:29:15.000Z</time>
      </trkpt>
      <trkpt lat="44.05811" lon="5.96398">
        <ele>493.39999389648</ele>
        <time>2017-04-09T07:29:26.000Z</time>
      </trkpt>
      <trkpt lat="44.05827" lon="5.96383">
        <ele>494.60000610352</ele>
        <time>2017-04-09T07:29:36.000Z</time>
      </trkpt>
      <trkpt lat="44.05842" lon="5.96368">
        <ele>496.79998779297</ele>
        <time>2017-04-09T07:29:45.000Z</time>
      </trkpt>
      <trkpt lat="44.05857" lon="5.96356">
        <ele>497</ele>
        <time>2017-04-09T07:29:53.000Z</time>
      </trkpt>
      <trkpt lat="44.05876" lon="5.96348">
        <ele>500.39999389648</ele>
        <time>2017-04-09T07:30:03.000Z</time>
      </trkpt>
      <trkpt lat="44.05895" lon="5.96344">
        <ele>504.39999389648</ele>
        <time>2017-04-09T07:30:12.000Z</time>
      </trkpt>
      <trkpt lat="44.05915" lon="5.96341">
        <ele>506.20001220703</ele>
        <time>2017-04-09T07:30:21.000Z</time>
      </trkpt>
      <trkpt lat="44.05933" lon="5.96341">
        <ele>508.20001220703</ele>
        <time>2017-04-09T07:30:29.000Z</time>
      </trkpt>
      <trkpt lat="44.05952" lon="5.96341">
        <ele>509.79998779297</ele>
        <time>2017-04-09T07:30:37.000Z</time>
      </trkpt>
      <trkpt lat="44.05969" lon="5.96354">
        <ele>512</ele>
        <time>2017-04-09T07:30:45.000Z</time>
      </trkpt>
      <trkpt lat="44.05986" lon="5.96363">
        <ele>514</ele>
        <time>2017-04-09T07:30:53.000Z</time>
      </trkpt>
      <trkpt lat="44.06005" lon="5.96367">
        <ele>515.40002441406</ele>
        <time>2017-04-09T07:31:04.000Z</time>
      </trkpt>
      <trkpt lat="44.06022" lon="5.96376">
        <ele>517</ele>
        <time>2017-04-09T07:31:13.000Z</time>
      </trkpt>
      <trkpt lat="44.0604" lon="5.96386">
        <ele>518.20001220703</ele>
        <time>2017-04-09T07:31:22.000Z</time>
      </trkpt>
      <trkpt lat="44.06059" lon="5.96392">
        <ele>518.79998779297</ele>
        <time>2017-04-09T07:31:30.000Z</time>
      </trkpt>
      <trkpt lat="44.06077" lon="5.96393">
        <ele>518.59997558594</ele>
        <time>2017-04-09T07:31:38.000Z</time>
      </trkpt>
      <trkpt lat="44.06097" lon="5.96394">
        <ele>518.59997558594</ele>
        <time>2017-04-09T07:31:46.000Z</time>
      </trkpt>
      <trkpt lat="44.06118" lon="5.96397">
        <ele>518.59997558594</ele>
        <time>2017-04-09T07:31:53.000Z</time>
      </trkpt>
      <trkpt lat="44.06137" lon="5.96395">
        <ele>518.40002441406</ele>
        <time>2017-04-09T07:32:00.000Z</time>
      </trkpt>
      <trkpt lat="44.06157" lon="5.96399">
        <ele>518.79998779297</ele>
        <time>2017-04-09T07:32:07.000Z</time>
      </trkpt>
      <trkpt lat="44.06161" lon="5.96406">
        <ele>519.40002441406</ele>
        <time>2017-04-09T07:32:09.000Z</time>
      </trkpt>
      <trkpt lat="44.06161" lon="5.96424">
        <ele>521.20001220703</ele>
        <time>2017-04-09T07:32:14.000Z</time>
      </trkpt>
      <trkpt lat="44.06161" lon="5.96428">
        <ele>521.59997558594</ele>
        <time>2017-04-09T07:32:16.000Z</time>
      </trkpt>
      <trkpt lat="44.06169" lon="5.9645">
        <ele>523.59997558594</ele>
        <time>2017-04-09T07:32:27.000Z</time>
      </trkpt>
      <trkpt lat="44.06165" lon="5.96474">
        <ele>527.40002441406</ele>
        <time>2017-04-09T07:34:36.000Z</time>
      </trkpt>
      <trkpt lat="44.06162" lon="5.96479">
        <ele>528.20001220703</ele>
        <time>2017-04-09T07:34:40.000Z</time>
      </trkpt>
      <trkpt lat="44.06145" lon="5.96478">
        <ele>529</ele>
        <time>2017-04-09T07:34:53.000Z</time>
      </trkpt>
      <trkpt lat="44.06124" lon="5.96476">
        <ele>529.59997558594</ele>
        <time>2017-04-09T07:35:04.000Z</time>
      </trkpt>
      <trkpt lat="44.06109" lon="5.9648">
        <ele>531.20001220703</ele>
        <time>2017-04-09T07:35:13.000Z</time>
      </trkpt>
      <trkpt lat="44.06116" lon="5.96487">
        <ele>532.20001220703</ele>
        <time>2017-04-09T07:35:23.000Z</time>
      </trkpt>
      <trkpt lat="44.06118" lon="5.96494">
        <ele>533.59997558594</ele>
        <time>2017-04-09T07:35:28.000Z</time>
      </trkpt>
      <trkpt lat="44.06099" lon="5.96499">
        <ele>536</ele>
        <time>2017-04-09T07:35:40.000Z</time>
      </trkpt>
      <trkpt lat="44.06092" lon="5.96504">
        <ele>537.40002441406</ele>
        <time>2017-04-09T07:35:46.000Z</time>
      </trkpt>
      <trkpt lat="44.06103" lon="5.96518">
        <ele>540.20001220703</ele>
        <time>2017-04-09T07:36:00.000Z</time>
      </trkpt>
      <trkpt lat="44.06107" lon="5.96524">
        <ele>541.40002441406</ele>
        <time>2017-04-09T07:36:05.000Z</time>
      </trkpt>
      <trkpt lat="44.061" lon="5.96528">
        <ele>542.59997558594</ele>
        <time>2017-04-09T07:36:13.000Z</time>
      </trkpt>
      <trkpt lat="44.06083" lon="5.96535">
        <ele>544.40002441406</ele>
        <time>2017-04-09T07:36:27.000Z</time>
      </trkpt>
      <trkpt lat="44.06069" lon="5.96519">
        <ele>541.40002441406</ele>
        <time>2017-04-09T07:36:38.000Z</time>
      </trkpt>
      <trkpt lat="44.06052" lon="5.96504">
        <ele>538.40002441406</ele>
        <time>2017-04-09T07:36:45.000Z</time>
      </trkpt>
      <trkpt lat="44.06032" lon="5.96497">
        <ele>536</ele>
        <time>2017-04-09T07:36:54.000Z</time>
      </trkpt>
      <trkpt lat="44.06011" lon="5.96493">
        <ele>532.79998779297</ele>
        <time>2017-04-09T07:37:01.000Z</time>
      </trkpt>
      <trkpt lat="44.06" lon="5.9649">
        <ele>530.40002441406</ele>
        <time>2017-04-09T07:37:06.000Z</time>
      </trkpt>
      <trkpt lat="44.05998" lon="5.96497">
        <ele>531</ele>
        <time>2017-04-09T07:37:10.000Z</time>
      </trkpt>
      <trkpt lat="44.05995" lon="5.96522">
        <ele>533.59997558594</ele>
        <time>2017-04-09T07:37:19.000Z</time>
      </trkpt>
      <trkpt lat="44.05995" lon="5.96548">
        <ele>537.79998779297</ele>
        <time>2017-04-09T07:37:28.000Z</time>
      </trkpt>
      <trkpt lat="44.05998" lon="5.96569">
        <ele>539.79998779297</ele>
        <time>2017-04-09T07:37:35.000Z</time>
      </trkpt>
      <trkpt lat="44.06002" lon="5.96556">
        <ele>539.79998779297</ele>
        <time>2017-04-09T07:37:44.000Z</time>
      </trkpt>
      <trkpt lat="44.06004" lon="5.96548">
        <ele>538.59997558594</ele>
        <time>2017-04-09T07:37:49.000Z</time>
      </trkpt>
      <trkpt lat="44.06007" lon="5.96559">
        <ele>540.79998779297</ele>
        <time>2017-04-09T07:37:56.000Z</time>
      </trkpt>
      <trkpt lat="44.06008" lon="5.96585">
        <ele>541.59997558594</ele>
        <time>2017-04-09T07:38:09.000Z</time>
      </trkpt>
      <trkpt lat="44.06012" lon="5.9661">
        <ele>542.59997558594</ele>
        <time>2017-04-09T07:38:18.000Z</time>
      </trkpt>
      <trkpt lat="44.06004" lon="5.96633">
        <ele>542</ele>
        <time>2017-04-09T07:38:27.000Z</time>
      </trkpt>
      <trkpt lat="44.05985" lon="5.96645">
        <ele>539.20001220703</ele>
        <time>2017-04-09T07:38:34.000Z</time>
      </trkpt>
      <trkpt lat="44.05969" lon="5.96653">
        <ele>536.20001220703</ele>
        <time>2017-04-09T07:38:42.000Z</time>
      </trkpt>
      <trkpt lat="44.05981" lon="5.96659">
        <ele>537.20001220703</ele>
        <time>2017-04-09T07:39:38.000Z</time>
      </trkpt>
      <trkpt lat="44.06" lon="5.96658">
        <ele>539.79998779297</ele>
        <time>2017-04-09T07:39:45.000Z</time>
      </trkpt>
      <trkpt lat="44.06017" lon="5.96662">
        <ele>541.59997558594</ele>
        <time>2017-04-09T07:39:51.000Z</time>
      </trkpt>
      <trkpt lat="44.06024" lon="5.96636">
        <ele>544.59997558594</ele>
        <time>2017-04-09T07:40:00.000Z</time>
      </trkpt>
      <trkpt lat="44.06025" lon="5.9661">
        <ele>544.20001220703</ele>
        <time>2017-04-09T07:40:07.000Z</time>
      </trkpt>
      <trkpt lat="44.06025" lon="5.96585">
        <ele>543.59997558594</ele>
        <time>2017-04-09T07:40:14.000Z</time>
      </trkpt>
      <trkpt lat="44.06027" lon="5.96568">
        <ele>543.40002441406</ele>
        <time>2017-04-09T07:40:20.000Z</time>
      </trkpt>
      <trkpt lat="44.06029" lon="5.96572">
        <ele>544</ele>
        <time>2017-04-09T07:40:26.000Z</time>
      </trkpt>
      <trkpt lat="44.06033" lon="5.96585">
        <ele>545</ele>
        <time>2017-04-09T07:40:33.000Z</time>
      </trkpt>
      <trkpt lat="44.06038" lon="5.96604">
        <ele>546.40002441406</ele>
        <time>2017-04-09T07:40:42.000Z</time>
      </trkpt>
      <trkpt lat="44.06045" lon="5.96629">
        <ele>548.40002441406</ele>
        <time>2017-04-09T07:40:51.000Z</time>
      </trkpt>
      <trkpt lat="44.06056" lon="5.96649">
        <ele>550.59997558594</ele>
        <time>2017-04-09T07:40:58.000Z</time>
      </trkpt>
      <trkpt lat="44.0607" lon="5.96666">
        <ele>553.20001220703</ele>
        <time>2017-04-09T07:41:07.000Z</time>
      </trkpt>
      <trkpt lat="44.06083" lon="5.96687">
        <ele>555.40002441406</ele>
        <time>2017-04-09T07:41:18.000Z</time>
      </trkpt>
      <trkpt lat="44.06091" lon="5.9671">
        <ele>556.20001220703</ele>
        <time>2017-04-09T07:41:29.000Z</time>
      </trkpt>
      <trkpt lat="44.061" lon="5.96733">
        <ele>556.20001220703</ele>
        <time>2017-04-09T07:41:38.000Z</time>
      </trkpt>
      <trkpt lat="44.0611" lon="5.96753">
        <ele>556.20001220703</ele>
        <time>2017-04-09T07:41:54.000Z</time>
      </trkpt>
      <trkpt lat="44.06112" lon="5.96762">
        <ele>555.20001220703</ele>
        <time>2017-04-09T07:41:58.000Z</time>
      </trkpt>
      <trkpt lat="44.06108" lon="5.96775">
        <ele>552.79998779297</ele>
        <time>2017-04-09T07:42:05.000Z</time>
      </trkpt>
      <trkpt lat="44.06108" lon="5.96779">
        <ele>552.40002441406</ele>
        <time>2017-04-09T07:42:07.000Z</time>
      </trkpt>
      <trkpt lat="44.06115" lon="5.96803">
        <ele>550</ele>
        <time>2017-04-09T07:42:23.000Z</time>
      </trkpt>
      <trkpt lat="44.06129" lon="5.96795">
        <ele>551.59997558594</ele>
        <time>2017-04-09T07:46:56.000Z</time>
      </trkpt>
      <trkpt lat="44.06143" lon="5.9678">
        <ele>554.40002441406</ele>
        <time>2017-04-09T07:47:04.000Z</time>
      </trkpt>
      <trkpt lat="44.06143" lon="5.96754">
        <ele>557.79998779297</ele>
        <time>2017-04-09T07:47:17.000Z</time>
      </trkpt>
      <trkpt lat="44.06143" lon="5.96747">
        <ele>558.79998779297</ele>
        <time>2017-04-09T07:47:20.000Z</time>
      </trkpt>
      <trkpt lat="44.06143" lon="5.96742">
        <ele>559.40002441406</ele>
        <time>2017-04-09T07:47:22.000Z</time>
      </trkpt>
      <trkpt lat="44.06136" lon="5.96719">
        <ele>561.59997558594</ele>
        <time>2017-04-09T07:47:36.000Z</time>
      </trkpt>
      <trkpt lat="44.06135" lon="5.96715">
        <ele>561.59997558594</ele>
        <time>2017-04-09T07:47:38.000Z</time>
      </trkpt>
      <trkpt lat="44.06147" lon="5.96701">
        <ele>562.59997558594</ele>
        <time>2017-04-09T07:47:56.000Z</time>
      </trkpt>
      <trkpt lat="44.06166" lon="5.96701">
        <ele>563.59997558594</ele>
        <time>2017-04-09T07:48:02.000Z</time>
      </trkpt>
      <trkpt lat="44.06185" lon="5.96712">
        <ele>564.40002441406</ele>
        <time>2017-04-09T07:48:07.000Z</time>
      </trkpt>
      <trkpt lat="44.06201" lon="5.96724">
        <ele>563.40002441406</ele>
        <time>2017-04-09T07:48:11.000Z</time>
      </trkpt>
      <trkpt lat="44.06217" lon="5.96737">
        <ele>559.79998779297</ele>
        <time>2017-04-09T07:48:16.000Z</time>
      </trkpt>
      <trkpt lat="44.0623" lon="5.96761">
        <ele>556.59997558594</ele>
        <time>2017-04-09T07:48:22.000Z</time>
      </trkpt>
      <trkpt lat="44.06242" lon="5.96783">
        <ele>552.40002441406</ele>
        <time>2017-04-09T07:48:26.000Z</time>
      </trkpt>
      <trkpt lat="44.06257" lon="5.96805">
        <ele>548</ele>
        <time>2017-04-09T07:48:31.000Z</time>
      </trkpt>
      <trkpt lat="44.06272" lon="5.96826">
        <ele>543.40002441406</ele>
        <time>2017-04-09T07:48:36.000Z</time>
      </trkpt>
      <trkpt lat="44.06281" lon="5.9684">
        <ele>540.20001220703</ele>
        <time>2017-04-09T07:48:39.000Z</time>
      </trkpt>
      <trkpt lat="44.06288" lon="5.96857">
        <ele>536.59997558594</ele>
        <time>2017-04-09T07:48:42.000Z</time>
      </trkpt>
      <trkpt lat="44.063" lon="5.96884">
        <ele>531.20001220703</ele>
        <time>2017-04-09T07:48:46.000Z</time>
      </trkpt>
      <trkpt lat="44.0631" lon="5.96908">
        <ele>528.40002441406</ele>
        <time>2017-04-09T07:48:50.000Z</time>
      </trkpt>
      <trkpt lat="44.06314" lon="5.96926">
        <ele>527.20001220703</ele>
        <time>2017-04-09T07:48:53.000Z</time>
      </trkpt>
      <trkpt lat="44.06315" lon="5.96945">
        <ele>524.40002441406</ele>
        <time>2017-04-09T07:48:56.000Z</time>
      </trkpt>
      <trkpt lat="44.06309" lon="5.96971">
        <ele>519.79998779297</ele>
        <time>2017-04-09T07:49:01.000Z</time>
      </trkpt>
      <trkpt lat="44.06309" lon="5.96977">
        <ele>519.20001220703</ele>
        <time>2017-04-09T07:49:03.000Z</time>
      </trkpt>
      <trkpt lat="44.06319" lon="5.9698">
        <ele>519.79998779297</ele>
        <time>2017-04-09T07:49:12.000Z</time>
      </trkpt>
      <trkpt lat="44.06335" lon="5.96967">
        <ele>521.40002441406</ele>
        <time>2017-04-09T07:49:22.000Z</time>
      </trkpt>
      <trkpt lat="44.06344" lon="5.96945">
        <ele>523.79998779297</ele>
        <time>2017-04-09T07:49:30.000Z</time>
      </trkpt>
      <trkpt lat="44.06348" lon="5.96919">
        <ele>524.59997558594</ele>
        <time>2017-04-09T07:49:37.000Z</time>
      </trkpt>
      <trkpt lat="44.06351" lon="5.96892">
        <ele>525.59997558594</ele>
        <time>2017-04-09T07:49:44.000Z</time>
      </trkpt>
      <trkpt lat="44.06355" lon="5.96867">
        <ele>527.40002441406</ele>
        <time>2017-04-09T07:49:51.000Z</time>
      </trkpt>
      <trkpt lat="44.06362" lon="5.9684">
        <ele>527.79998779297</ele>
        <time>2017-04-09T07:49:58.000Z</time>
      </trkpt>
      <trkpt lat="44.06374" lon="5.96821">
        <ele>528</ele>
        <time>2017-04-09T07:50:04.000Z</time>
      </trkpt>
      <trkpt lat="44.06392" lon="5.96809">
        <ele>527.59997558594</ele>
        <time>2017-04-09T07:50:11.000Z</time>
      </trkpt>
      <trkpt lat="44.06408" lon="5.96802">
        <ele>527</ele>
        <time>2017-04-09T07:50:18.000Z</time>
      </trkpt>
      <trkpt lat="44.06425" lon="5.96797">
        <ele>526.20001220703</ele>
        <time>2017-04-09T07:50:29.000Z</time>
      </trkpt>
      <trkpt lat="44.06433" lon="5.96793">
        <ele>526.20001220703</ele>
        <time>2017-04-09T07:50:33.000Z</time>
      </trkpt>
      <trkpt lat="44.06439" lon="5.96785">
        <ele>527.20001220703</ele>
        <time>2017-04-09T07:50:38.000Z</time>
      </trkpt>
      <trkpt lat="44.06448" lon="5.96783">
        <ele>527.20001220703</ele>
        <time>2017-04-09T08:00:44.000Z</time>
      </trkpt>
      <trkpt lat="44.06465" lon="5.96776">
        <ele>528</ele>
        <time>2017-04-09T08:00:52.000Z</time>
      </trkpt>
      <trkpt lat="44.06482" lon="5.9676">
        <ele>529.59997558594</ele>
        <time>2017-04-09T08:00:59.000Z</time>
      </trkpt>
      <trkpt lat="44.06496" lon="5.96743">
        <ele>530.20001220703</ele>
        <time>2017-04-09T08:01:05.000Z</time>
      </trkpt>
      <trkpt lat="44.06509" lon="5.96722">
        <ele>531</ele>
        <time>2017-04-09T08:01:11.000Z</time>
      </trkpt>
      <trkpt lat="44.06521" lon="5.96702">
        <ele>530.20001220703</ele>
        <time>2017-04-09T08:01:17.000Z</time>
      </trkpt>
      <trkpt lat="44.06533" lon="5.9668">
        <ele>529.20001220703</ele>
        <time>2017-04-09T08:01:24.000Z</time>
      </trkpt>
      <trkpt lat="44.06544" lon="5.96657">
        <ele>528.40002441406</ele>
        <time>2017-04-09T08:01:31.000Z</time>
      </trkpt>
      <trkpt lat="44.06556" lon="5.96634">
        <ele>529.59997558594</ele>
        <time>2017-04-09T08:01:38.000Z</time>
      </trkpt>
      <trkpt lat="44.06567" lon="5.9661">
        <ele>530.59997558594</ele>
        <time>2017-04-09T08:01:46.000Z</time>
      </trkpt>
      <trkpt lat="44.06558" lon="5.9659">
        <ele>531.20001220703</ele>
        <time>2017-04-09T08:01:53.000Z</time>
      </trkpt>
      <trkpt lat="44.0654" lon="5.96576">
        <ele>531.59997558594</ele>
        <time>2017-04-09T08:01:59.000Z</time>
      </trkpt>
      <trkpt lat="44.06523" lon="5.96561">
        <ele>531.79998779297</ele>
        <time>2017-04-09T08:02:05.000Z</time>
      </trkpt>
      <trkpt lat="44.06507" lon="5.96547">
        <ele>531.79998779297</ele>
        <time>2017-04-09T08:02:11.000Z</time>
      </trkpt>
      <trkpt lat="44.06492" lon="5.96528">
        <ele>531.59997558594</ele>
        <time>2017-04-09T08:02:17.000Z</time>
      </trkpt>
      <trkpt lat="44.06492" lon="5.9651">
        <ele>533.40002441406</ele>
        <time>2017-04-09T08:02:21.000Z</time>
      </trkpt>
      <trkpt lat="44.06506" lon="5.96493">
        <ele>537.59997558594</ele>
        <time>2017-04-09T08:02:28.000Z</time>
      </trkpt>
      <trkpt lat="44.06524" lon="5.96493">
        <ele>540.20001220703</ele>
        <time>2017-04-09T08:02:35.000Z</time>
      </trkpt>
      <trkpt lat="44.06544" lon="5.965">
        <ele>541</ele>
        <time>2017-04-09T08:02:43.000Z</time>
      </trkpt>
      <trkpt lat="44.06562" lon="5.96507">
        <ele>542</ele>
        <time>2017-04-09T08:02:51.000Z</time>
      </trkpt>
      <trkpt lat="44.0658" lon="5.96513">
        <ele>543.20001220703</ele>
        <time>2017-04-09T08:02:59.000Z</time>
      </trkpt>
      <trkpt lat="44.06598" lon="5.9651">
        <ele>546.20001220703</ele>
        <time>2017-04-09T08:03:08.000Z</time>
      </trkpt>
      <trkpt lat="44.06616" lon="5.96516">
        <ele>547.20001220703</ele>
        <time>2017-04-09T08:03:19.000Z</time>
      </trkpt>
      <trkpt lat="44.06619" lon="5.96517">
        <ele>547.40002441406</ele>
        <time>2017-04-09T08:03:21.000Z</time>
      </trkpt>
      <trkpt lat="44.06623" lon="5.96519">
        <ele>547.59997558594</ele>
        <time>2017-04-09T08:03:25.000Z</time>
      </trkpt>
      <trkpt lat="44.06631" lon="5.96519">
        <ele>548.40002441406</ele>
        <time>2017-04-09T08:03:31.000Z</time>
      </trkpt>
      <trkpt lat="44.06633" lon="5.96518">
        <ele>549</ele>
        <time>2017-04-09T08:03:33.000Z</time>
      </trkpt>
      <trkpt lat="44.06652" lon="5.96515">
        <ele>551.79998779297</ele>
        <time>2017-04-09T08:03:46.000Z</time>
      </trkpt>
      <trkpt lat="44.06668" lon="5.96512">
        <ele>553.79998779297</ele>
        <time>2017-04-09T08:03:58.000Z</time>
      </trkpt>
      <trkpt lat="44.06674" lon="5.96513">
        <ele>554.59997558594</ele>
        <time>2017-04-09T08:04:03.000Z</time>
      </trkpt>
      <trkpt lat="44.06693" lon="5.96515">
        <ele>556</ele>
        <time>2017-04-09T08:04:14.000Z</time>
      </trkpt>
      <trkpt lat="44.06712" lon="5.96517">
        <ele>558</ele>
        <time>2017-04-09T08:04:28.000Z</time>
      </trkpt>
      <trkpt lat="44.06725" lon="5.96516">
        <ele>559.59997558594</ele>
        <time>2017-04-09T08:04:39.000Z</time>
      </trkpt>
      <trkpt lat="44.06726" lon="5.96495">
        <ele>561.79998779297</ele>
        <time>2017-04-09T08:04:52.000Z</time>
      </trkpt>
      <trkpt lat="44.06726" lon="5.96466">
        <ele>562.79998779297</ele>
        <time>2017-04-09T08:05:01.000Z</time>
      </trkpt>
      <trkpt lat="44.06726" lon="5.9644">
        <ele>562.20001220703</ele>
        <time>2017-04-09T08:05:05.000Z</time>
      </trkpt>
      <trkpt lat="44.0673" lon="5.96417">
        <ele>560.59997558594</ele>
        <time>2017-04-09T08:05:09.000Z</time>
      </trkpt>
      <trkpt lat="44.0673" lon="5.9639">
        <ele>557.40002441406</ele>
        <time>2017-04-09T08:05:14.000Z</time>
      </trkpt>
      <trkpt lat="44.06734" lon="5.96363">
        <ele>552.40002441406</ele>
        <time>2017-04-09T08:05:19.000Z</time>
      </trkpt>
      <trkpt lat="44.0674" lon="5.96336">
        <ele>549</ele>
        <time>2017-04-09T08:05:23.000Z</time>
      </trkpt>
      <trkpt lat="44.06747" lon="5.96304">
        <ele>546.59997558594</ele>
        <time>2017-04-09T08:05:27.000Z</time>
      </trkpt>
      <trkpt lat="44.06755" lon="5.96281">
        <ele>544.20001220703</ele>
        <time>2017-04-09T08:05:30.000Z</time>
      </trkpt>
      <trkpt lat="44.06765" lon="5.96252">
        <ele>544.59997558594</ele>
        <time>2017-04-09T08:05:34.000Z</time>
      </trkpt>
      <trkpt lat="44.06772" lon="5.96226">
        <ele>544.59997558594</ele>
        <time>2017-04-09T08:05:38.000Z</time>
      </trkpt>
      <trkpt lat="44.06778" lon="5.962">
        <ele>545.79998779297</ele>
        <time>2017-04-09T08:05:44.000Z</time>
      </trkpt>
      <trkpt lat="44.06781" lon="5.96173">
        <ele>546.79998779297</ele>
        <time>2017-04-09T08:05:54.000Z</time>
      </trkpt>
      <trkpt lat="44.0678" lon="5.9617">
        <ele>546.79998779297</ele>
        <time>2017-04-09T08:05:55.000Z</time>
      </trkpt>
      <trkpt lat="44.06766" lon="5.96152">
        <ele>546.20001220703</ele>
        <time>2017-04-09T08:06:05.000Z</time>
      </trkpt>
      <trkpt lat="44.06751" lon="5.96138">
        <ele>544.59997558594</ele>
        <time>2017-04-09T08:06:14.000Z</time>
      </trkpt>
      <trkpt lat="44.06734" lon="5.96125">
        <ele>544.20001220703</ele>
        <time>2017-04-09T08:06:24.000Z</time>
      </trkpt>
      <trkpt lat="44.06731" lon="5.96102">
        <ele>546.59997558594</ele>
        <time>2017-04-09T08:06:34.000Z</time>
      </trkpt>
      <trkpt lat="44.06749" lon="5.96095">
        <ele>549.20001220703</ele>
        <time>2017-04-09T08:06:44.000Z</time>
      </trkpt>
      <trkpt lat="44.06768" lon="5.96091">
        <ele>551.40002441406</ele>
        <time>2017-04-09T08:06:54.000Z</time>
      </trkpt>
      <trkpt lat="44.06775" lon="5.96087">
        <ele>552.40002441406</ele>
        <time>2017-04-09T08:06:58.000Z</time>
      </trkpt>
      <trkpt lat="44.06782" lon="5.96076">
        <ele>553.79998779297</ele>
        <time>2017-04-09T08:07:04.000Z</time>
      </trkpt>
      <trkpt lat="44.0679" lon="5.96073">
        <ele>554.79998779297</ele>
        <time>2017-04-09T08:07:09.000Z</time>
      </trkpt>
      <trkpt lat="44.06804" lon="5.9609">
        <ele>554.20001220703</ele>
        <time>2017-04-09T08:07:19.000Z</time>
      </trkpt>
      <trkpt lat="44.06817" lon="5.96113">
        <ele>553.40002441406</ele>
        <time>2017-04-09T08:07:28.000Z</time>
      </trkpt>
      <trkpt lat="44.06832" lon="5.96127">
        <ele>553.20001220703</ele>
        <time>2017-04-09T08:07:37.000Z</time>
      </trkpt>
      <trkpt lat="44.06851" lon="5.96131">
        <ele>554.40002441406</ele>
        <time>2017-04-09T08:07:46.000Z</time>
      </trkpt>
      <trkpt lat="44.06871" lon="5.9613">
        <ele>556.20001220703</ele>
        <time>2017-04-09T08:07:55.000Z</time>
      </trkpt>
      <trkpt lat="44.06889" lon="5.96129">
        <ele>557.40002441406</ele>
        <time>2017-04-09T08:08:03.000Z</time>
      </trkpt>
      <trkpt lat="44.06908" lon="5.96133">
        <ele>558</ele>
        <time>2017-04-09T08:08:10.000Z</time>
      </trkpt>
      <trkpt lat="44.06926" lon="5.96135">
        <ele>558.79998779297</ele>
        <time>2017-04-09T08:08:17.000Z</time>
      </trkpt>
      <trkpt lat="44.06944" lon="5.96136">
        <ele>560</ele>
        <time>2017-04-09T08:08:24.000Z</time>
      </trkpt>
      <trkpt lat="44.06962" lon="5.96142">
        <ele>561.40002441406</ele>
        <time>2017-04-09T08:08:31.000Z</time>
      </trkpt>
      <trkpt lat="44.06979" lon="5.96152">
        <ele>562.20001220703</ele>
        <time>2017-04-09T08:08:38.000Z</time>
      </trkpt>
      <trkpt lat="44.06996" lon="5.96164">
        <ele>563</ele>
        <time>2017-04-09T08:08:46.000Z</time>
      </trkpt>
      <trkpt lat="44.07013" lon="5.96174">
        <ele>563.59997558594</ele>
        <time>2017-04-09T08:08:54.000Z</time>
      </trkpt>
      <trkpt lat="44.0703" lon="5.96184">
        <ele>564.40002441406</ele>
        <time>2017-04-09T08:09:02.000Z</time>
      </trkpt>
      <trkpt lat="44.07046" lon="5.96198">
        <ele>564</ele>
        <time>2017-04-09T08:09:10.000Z</time>
      </trkpt>
      <trkpt lat="44.07061" lon="5.96211">
        <ele>564</ele>
        <time>2017-04-09T08:09:18.000Z</time>
      </trkpt>
      <trkpt lat="44.07077" lon="5.96224">
        <ele>563.79998779297</ele>
        <time>2017-04-09T08:09:26.000Z</time>
      </trkpt>
      <trkpt lat="44.07095" lon="5.96228">
        <ele>565.40002441406</ele>
        <time>2017-04-09T08:09:34.000Z</time>
      </trkpt>
      <trkpt lat="44.07111" lon="5.96209">
        <ele>569.79998779297</ele>
        <time>2017-04-09T08:09:41.000Z</time>
      </trkpt>
      <trkpt lat="44.07117" lon="5.96182">
        <ele>572.40002441406</ele>
        <time>2017-04-09T08:09:48.000Z</time>
      </trkpt>
      <trkpt lat="44.07126" lon="5.96157">
        <ele>574.79998779297</ele>
        <time>2017-04-09T08:09:55.000Z</time>
      </trkpt>
      <trkpt lat="44.07143" lon="5.96147">
        <ele>574.79998779297</ele>
        <time>2017-04-09T08:10:01.000Z</time>
      </trkpt>
      <trkpt lat="44.07162" lon="5.96138">
        <ele>574.40002441406</ele>
        <time>2017-04-09T08:10:07.000Z</time>
      </trkpt>
      <trkpt lat="44.07183" lon="5.96131">
        <ele>573.59997558594</ele>
        <time>2017-04-09T08:10:13.000Z</time>
      </trkpt>
      <trkpt lat="44.07202" lon="5.96124">
        <ele>573.59997558594</ele>
        <time>2017-04-09T08:10:19.000Z</time>
      </trkpt>
      <trkpt lat="44.07222" lon="5.96117">
        <ele>573.79998779297</ele>
        <time>2017-04-09T08:10:25.000Z</time>
      </trkpt>
      <trkpt lat="44.07241" lon="5.96111">
        <ele>574.20001220703</ele>
        <time>2017-04-09T08:10:31.000Z</time>
      </trkpt>
      <trkpt lat="44.0726" lon="5.96103">
        <ele>576</ele>
        <time>2017-04-09T08:10:37.000Z</time>
      </trkpt>
      <trkpt lat="44.07279" lon="5.96097">
        <ele>577.79998779297</ele>
        <time>2017-04-09T08:10:44.000Z</time>
      </trkpt>
      <trkpt lat="44.07298" lon="5.96088">
        <ele>579</ele>
        <time>2017-04-09T08:10:51.000Z</time>
      </trkpt>
      <trkpt lat="44.07317" lon="5.96079">
        <ele>579.79998779297</ele>
        <time>2017-04-09T08:10:57.000Z</time>
      </trkpt>
      <trkpt lat="44.07335" lon="5.9607">
        <ele>580.20001220703</ele>
        <time>2017-04-09T08:11:02.000Z</time>
      </trkpt>
      <trkpt lat="44.07356" lon="5.96061">
        <ele>580.59997558594</ele>
        <time>2017-04-09T08:11:08.000Z</time>
      </trkpt>
      <trkpt lat="44.07373" lon="5.96055">
        <ele>580.40002441406</ele>
        <time>2017-04-09T08:11:13.000Z</time>
      </trkpt>
      <trkpt lat="44.07393" lon="5.96047">
        <ele>580.40002441406</ele>
        <time>2017-04-09T08:11:19.000Z</time>
      </trkpt>
      <trkpt lat="44.07413" lon="5.96039">
        <ele>580.40002441406</ele>
        <time>2017-04-09T08:11:25.000Z</time>
      </trkpt>
      <trkpt lat="44.07431" lon="5.96032">
        <ele>580.79998779297</ele>
        <time>2017-04-09T08:11:30.000Z</time>
      </trkpt>
      <trkpt lat="44.07448" lon="5.96025">
        <ele>581</ele>
        <time>2017-04-09T08:11:35.000Z</time>
      </trkpt>
      <trkpt lat="44.07466" lon="5.96017">
        <ele>580.20001220703</ele>
        <time>2017-04-09T08:11:41.000Z</time>
      </trkpt>
      <trkpt lat="44.07477" lon="5.95997">
        <ele>583</ele>
        <time>2017-04-09T08:11:48.000Z</time>
      </trkpt>
      <trkpt lat="44.07472" lon="5.9597">
        <ele>589.40002441406</ele>
        <time>2017-04-09T08:11:55.000Z</time>
      </trkpt>
      <trkpt lat="44.07465" lon="5.95944">
        <ele>594.79998779297</ele>
        <time>2017-04-09T08:12:02.000Z</time>
      </trkpt>
      <trkpt lat="44.07467" lon="5.95937">
        <ele>595.40002441406</ele>
        <time>2017-04-09T08:12:04.000Z</time>
      </trkpt>
      <trkpt lat="44.07478" lon="5.95936">
        <ele>593.79998779297</ele>
        <time>2017-04-09T08:12:08.000Z</time>
      </trkpt>
      <trkpt lat="44.07499" lon="5.95938">
        <ele>589.40002441406</ele>
        <time>2017-04-09T08:12:15.000Z</time>
      </trkpt>
      <trkpt lat="44.07517" lon="5.95938">
        <ele>585.20001220703</ele>
        <time>2017-04-09T08:12:21.000Z</time>
      </trkpt>
      <trkpt lat="44.07535" lon="5.95942">
        <ele>582.40002441406</ele>
        <time>2017-04-09T08:12:27.000Z</time>
      </trkpt>
      <trkpt lat="44.07556" lon="5.95945">
        <ele>581</ele>
        <time>2017-04-09T08:12:34.000Z</time>
      </trkpt>
      <trkpt lat="44.07575" lon="5.95949">
        <ele>579.79998779297</ele>
        <time>2017-04-09T08:12:41.000Z</time>
      </trkpt>
      <trkpt lat="44.07595" lon="5.95952">
        <ele>579.20001220703</ele>
        <time>2017-04-09T08:12:49.000Z</time>
      </trkpt>
      <trkpt lat="44.07614" lon="5.95956">
        <ele>579.59997558594</ele>
        <time>2017-04-09T08:12:56.000Z</time>
      </trkpt>
      <trkpt lat="44.07633" lon="5.95955">
        <ele>581.79998779297</ele>
        <time>2017-04-09T08:13:03.000Z</time>
      </trkpt>
      <trkpt lat="44.07652" lon="5.95957">
        <ele>583.59997558594</ele>
        <time>2017-04-09T08:13:11.000Z</time>
      </trkpt>
      <trkpt lat="44.07673" lon="5.95959">
        <ele>585.40002441406</ele>
        <time>2017-04-09T08:13:19.000Z</time>
      </trkpt>
      <trkpt lat="44.07692" lon="5.95961">
        <ele>586.40002441406</ele>
        <time>2017-04-09T08:13:26.000Z</time>
      </trkpt>
      <trkpt lat="44.07712" lon="5.95964">
        <ele>587</ele>
        <time>2017-04-09T08:13:34.000Z</time>
      </trkpt>
      <trkpt lat="44.07731" lon="5.95962">
        <ele>588.59997558594</ele>
        <time>2017-04-09T08:13:41.000Z</time>
      </trkpt>
      <trkpt lat="44.07736" lon="5.95961">
        <ele>589</ele>
        <time>2017-04-09T08:13:43.000Z</time>
      </trkpt>
      <trkpt lat="44.07757" lon="5.95962">
        <ele>590.20001220703</ele>
        <time>2017-04-09T08:13:50.000Z</time>
      </trkpt>
      <trkpt lat="44.07775" lon="5.95959">
        <ele>591.40002441406</ele>
        <time>2017-04-09T08:13:57.000Z</time>
      </trkpt>
      <trkpt lat="44.07794" lon="5.95954">
        <ele>592</ele>
        <time>2017-04-09T08:14:03.000Z</time>
      </trkpt>
      <trkpt lat="44.07815" lon="5.95951">
        <ele>592.20001220703</ele>
        <time>2017-04-09T08:14:09.000Z</time>
      </trkpt>
      <trkpt lat="44.07837" lon="5.95953">
        <ele>591.59997558594</ele>
        <time>2017-04-09T08:14:14.000Z</time>
      </trkpt>
      <trkpt lat="44.07847" lon="5.95954">
        <ele>591</ele>
        <time>2017-04-09T08:14:16.000Z</time>
      </trkpt>
      <trkpt lat="44.07863" lon="5.9594">
        <ele>591.59997558594</ele>
        <time>2017-04-09T08:14:20.000Z</time>
      </trkpt>
      <trkpt lat="44.07872" lon="5.95917">
        <ele>593.40002441406</ele>
        <time>2017-04-09T08:14:24.000Z</time>
      </trkpt>
      <trkpt lat="44.07879" lon="5.9589">
        <ele>595.79998779297</ele>
        <time>2017-04-09T08:14:28.000Z</time>
      </trkpt>
      <trkpt lat="44.07886" lon="5.95862">
        <ele>598</ele>
        <time>2017-04-09T08:14:32.000Z</time>
      </trkpt>
      <trkpt lat="44.07891" lon="5.95834">
        <ele>600</ele>
        <time>2017-04-09T08:14:36.000Z</time>
      </trkpt>
      <trkpt lat="44.07905" lon="5.95819">
        <ele>598.20001220703</ele>
        <time>2017-04-09T08:14:40.000Z</time>
      </trkpt>
      <trkpt lat="44.07909" lon="5.95818">
        <ele>597.59997558594</ele>
        <time>2017-04-09T08:14:41.000Z</time>
      </trkpt>
      <trkpt lat="44.07929" lon="5.95813">
        <ele>594.20001220703</ele>
        <time>2017-04-09T08:14:47.000Z</time>
      </trkpt>
      <trkpt lat="44.07948" lon="5.95811">
        <ele>592</ele>
        <time>2017-04-09T08:14:53.000Z</time>
      </trkpt>
      <trkpt lat="44.07964" lon="5.95802">
        <ele>592.20001220703</ele>
        <time>2017-04-09T08:15:01.000Z</time>
      </trkpt>
      <trkpt lat="44.07954" lon="5.95781">
        <ele>592.59997558594</ele>
        <time>2017-04-09T08:15:09.000Z</time>
      </trkpt>
      <trkpt lat="44.07941" lon="5.95762">
        <ele>593.20001220703</ele>
        <time>2017-04-09T08:15:17.000Z</time>
      </trkpt>
      <trkpt lat="44.07933" lon="5.95739">
        <ele>594.20001220703</ele>
        <time>2017-04-09T08:15:25.000Z</time>
      </trkpt>
      <trkpt lat="44.0792" lon="5.95721">
        <ele>595.40002441406</ele>
        <time>2017-04-09T08:15:32.000Z</time>
      </trkpt>
      <trkpt lat="44.07907" lon="5.95703">
        <ele>596.79998779297</ele>
        <time>2017-04-09T08:15:40.000Z</time>
      </trkpt>
      <trkpt lat="44.07894" lon="5.95686">
        <ele>598.40002441406</ele>
        <time>2017-04-09T08:15:47.000Z</time>
      </trkpt>
      <trkpt lat="44.07881" lon="5.95668">
        <ele>599.79998779297</ele>
        <time>2017-04-09T08:15:54.000Z</time>
      </trkpt>
      <trkpt lat="44.07862" lon="5.95655">
        <ele>601.40002441406</ele>
        <time>2017-04-09T08:16:02.000Z</time>
      </trkpt>
      <trkpt lat="44.07846" lon="5.95644">
        <ele>602.40002441406</ele>
        <time>2017-04-09T08:16:09.000Z</time>
      </trkpt>
      <trkpt lat="44.07828" lon="5.95631">
        <ele>603.79998779297</ele>
        <time>2017-04-09T08:16:17.000Z</time>
      </trkpt>
      <trkpt lat="44.0781" lon="5.95622">
        <ele>605</ele>
        <time>2017-04-09T08:16:24.000Z</time>
      </trkpt>
      <trkpt lat="44.07794" lon="5.9561">
        <ele>606.20001220703</ele>
        <time>2017-04-09T08:16:31.000Z</time>
      </trkpt>
      <trkpt lat="44.07777" lon="5.95599">
        <ele>607.59997558594</ele>
        <time>2017-04-09T08:16:38.000Z</time>
      </trkpt>
      <trkpt lat="44.0776" lon="5.95588">
        <ele>607.79998779297</ele>
        <time>2017-04-09T08:16:46.000Z</time>
      </trkpt>
      <trkpt lat="44.07744" lon="5.95576">
        <ele>608.20001220703</ele>
        <time>2017-04-09T08:16:54.000Z</time>
      </trkpt>
      <trkpt lat="44.07729" lon="5.95563">
        <ele>608.59997558594</ele>
        <time>2017-04-09T08:17:01.000Z</time>
      </trkpt>
      <trkpt lat="44.07713" lon="5.95546">
        <ele>608.40002441406</ele>
        <time>2017-04-09T08:17:08.000Z</time>
      </trkpt>
      <trkpt lat="44.07697" lon="5.95527">
        <ele>607.79998779297</ele>
        <time>2017-04-09T08:17:15.000Z</time>
      </trkpt>
      <trkpt lat="44.07682" lon="5.95509">
        <ele>607</ele>
        <time>2017-04-09T08:17:21.000Z</time>
      </trkpt>
      <trkpt lat="44.07666" lon="5.95494">
        <ele>606.20001220703</ele>
        <time>2017-04-09T08:17:26.000Z</time>
      </trkpt>
      <trkpt lat="44.07649" lon="5.95481">
        <ele>605.40002441406</ele>
        <time>2017-04-09T08:17:31.000Z</time>
      </trkpt>
      <trkpt lat="44.07632" lon="5.95463">
        <ele>604.59997558594</ele>
        <time>2017-04-09T08:17:36.000Z</time>
      </trkpt>
      <trkpt lat="44.07629" lon="5.95459">
        <ele>604.40002441406</ele>
        <time>2017-04-09T08:17:37.000Z</time>
      </trkpt>
      <trkpt lat="44.07619" lon="5.95437">
        <ele>603.40002441406</ele>
        <time>2017-04-09T08:17:42.000Z</time>
      </trkpt>
      <trkpt lat="44.0761" lon="5.95414">
        <ele>602.59997558594</ele>
        <time>2017-04-09T08:17:47.000Z</time>
      </trkpt>
      <trkpt lat="44.076" lon="5.95389">
        <ele>601.79998779297</ele>
        <time>2017-04-09T08:17:52.000Z</time>
      </trkpt>
      <trkpt lat="44.07595" lon="5.95361">
        <ele>601.40002441406</ele>
        <time>2017-04-09T08:17:58.000Z</time>
      </trkpt>
      <trkpt lat="44.07588" lon="5.95337">
        <ele>601.59997558594</ele>
        <time>2017-04-09T08:18:04.000Z</time>
      </trkpt>
      <trkpt lat="44.07585" lon="5.95311">
        <ele>601.79998779297</ele>
        <time>2017-04-09T08:18:11.000Z</time>
      </trkpt>
      <trkpt lat="44.07581" lon="5.95285">
        <ele>601</ele>
        <time>2017-04-09T08:18:18.000Z</time>
      </trkpt>
      <trkpt lat="44.07582" lon="5.9526">
        <ele>600.79998779297</ele>
        <time>2017-04-09T08:18:24.000Z</time>
      </trkpt>
      <trkpt lat="44.0758" lon="5.95231">
        <ele>600.20001220703</ele>
        <time>2017-04-09T08:18:30.000Z</time>
      </trkpt>
      <trkpt lat="44.07578" lon="5.95203">
        <ele>599.20001220703</ele>
        <time>2017-04-09T08:18:35.000Z</time>
      </trkpt>
      <trkpt lat="44.07591" lon="5.95181">
        <ele>599</ele>
        <time>2017-04-09T08:18:41.000Z</time>
      </trkpt>
      <trkpt lat="44.07608" lon="5.95169">
        <ele>599.59997558594</ele>
        <time>2017-04-09T08:18:47.000Z</time>
      </trkpt>
      <trkpt lat="44.07616" lon="5.95143">
        <ele>598.79998779297</ele>
        <time>2017-04-09T08:18:53.000Z</time>
      </trkpt>
      <trkpt lat="44.07614" lon="5.95117">
        <ele>597</ele>
        <time>2017-04-09T08:18:59.000Z</time>
      </trkpt>
      <trkpt lat="44.07624" lon="5.95095">
        <ele>596.59997558594</ele>
        <time>2017-04-09T08:19:05.000Z</time>
      </trkpt>
      <trkpt lat="44.07627" lon="5.95087">
        <ele>596.40002441406</ele>
        <time>2017-04-09T08:19:08.000Z</time>
      </trkpt>
      <trkpt lat="44.07623" lon="5.95065">
        <ele>594.59997558594</ele>
        <time>2017-04-09T08:20:29.000Z</time>
      </trkpt>
      <trkpt lat="44.07619" lon="5.95043">
        <ele>593.20001220703</ele>
        <time>2017-04-09T08:20:34.000Z</time>
      </trkpt>
      <trkpt lat="44.07629" lon="5.95027">
        <ele>593.59997558594</ele>
        <time>2017-04-09T08:20:38.000Z</time>
      </trkpt>
      <trkpt lat="44.07646" lon="5.95013">
        <ele>594.40002441406</ele>
        <time>2017-04-09T08:20:46.000Z</time>
      </trkpt>
      <trkpt lat="44.07665" lon="5.95008">
        <ele>596.20001220703</ele>
        <time>2017-04-09T08:20:56.000Z</time>
      </trkpt>
      <trkpt lat="44.07682" lon="5.95">
        <ele>597.59997558594</ele>
        <time>2017-04-09T08:21:05.000Z</time>
      </trkpt>
      <trkpt lat="44.07702" lon="5.94993">
        <ele>599.40002441406</ele>
        <time>2017-04-09T08:21:13.000Z</time>
      </trkpt>
      <trkpt lat="44.07722" lon="5.94995">
        <ele>600.59997558594</ele>
        <time>2017-04-09T08:21:20.000Z</time>
      </trkpt>
      <trkpt lat="44.07741" lon="5.94999">
        <ele>601</ele>
        <time>2017-04-09T08:21:25.000Z</time>
      </trkpt>
      <trkpt lat="44.07751" lon="5.95001">
        <ele>601.20001220703</ele>
        <time>2017-04-09T08:21:27.000Z</time>
      </trkpt>
      <trkpt lat="44.07771" lon="5.95005">
        <ele>601.79998779297</ele>
        <time>2017-04-09T08:21:30.000Z</time>
      </trkpt>
      <trkpt lat="44.07784" lon="5.95005">
        <ele>601.40002441406</ele>
        <time>2017-04-09T08:21:32.000Z</time>
      </trkpt>
      <trkpt lat="44.07806" lon="5.95001">
        <ele>600.20001220703</ele>
        <time>2017-04-09T08:21:35.000Z</time>
      </trkpt>
      <trkpt lat="44.07815" lon="5.94999">
        <ele>598.79998779297</ele>
        <time>2017-04-09T08:21:37.000Z</time>
      </trkpt>
      <trkpt lat="44.07826" lon="5.94976">
        <ele>592.40002441406</ele>
        <time>2017-04-09T08:21:44.000Z</time>
      </trkpt>
      <trkpt lat="44.07844" lon="5.94962">
        <ele>587.20001220703</ele>
        <time>2017-04-09T08:21:48.000Z</time>
      </trkpt>
      <trkpt lat="44.07855" lon="5.94958">
        <ele>585.79998779297</ele>
        <time>2017-04-09T08:21:50.000Z</time>
      </trkpt>
      <trkpt lat="44.07874" lon="5.94951">
        <ele>583.59997558594</ele>
        <time>2017-04-09T08:21:54.000Z</time>
      </trkpt>
      <trkpt lat="44.07891" lon="5.94945">
        <ele>581.40002441406</ele>
        <time>2017-04-09T08:21:58.000Z</time>
      </trkpt>
      <trkpt lat="44.07911" lon="5.94944">
        <ele>580</ele>
        <time>2017-04-09T08:22:03.000Z</time>
      </trkpt>
      <trkpt lat="44.07932" lon="5.94943">
        <ele>580.40002441406</ele>
        <time>2017-04-09T08:22:08.000Z</time>
      </trkpt>
      <trkpt lat="44.07952" lon="5.94943">
        <ele>580.40002441406</ele>
        <time>2017-04-09T08:22:12.000Z</time>
      </trkpt>
      <trkpt lat="44.0797" lon="5.94945">
        <ele>579.40002441406</ele>
        <time>2017-04-09T08:22:16.000Z</time>
      </trkpt>
      <trkpt lat="44.07991" lon="5.94946">
        <ele>578</ele>
        <time>2017-04-09T08:22:21.000Z</time>
      </trkpt>
      <trkpt lat="44.0801" lon="5.94947">
        <ele>577.40002441406</ele>
        <time>2017-04-09T08:22:25.000Z</time>
      </trkpt>
      <trkpt lat="44.08029" lon="5.94948">
        <ele>577</ele>
        <time>2017-04-09T08:22:29.000Z</time>
      </trkpt>
      <trkpt lat="44.08048" lon="5.9495">
        <ele>577.20001220703</ele>
        <time>2017-04-09T08:22:33.000Z</time>
      </trkpt>
      <trkpt lat="44.08051" lon="5.94949">
        <ele>577.40002441406</ele>
        <time>2017-04-09T08:22:34.000Z</time>
      </trkpt>
      <trkpt lat="44.08051" lon="5.94925">
        <ele>577.20001220703</ele>
        <time>2017-04-09T08:22:40.000Z</time>
      </trkpt>
      <trkpt lat="44.08041" lon="5.94899">
        <ele>577</ele>
        <time>2017-04-09T08:22:47.000Z</time>
      </trkpt>
      <trkpt lat="44.08032" lon="5.94872">
        <ele>576.79998779297</ele>
        <time>2017-04-09T08:22:53.000Z</time>
      </trkpt>
      <trkpt lat="44.08025" lon="5.94857">
        <ele>576.59997558594</ele>
        <time>2017-04-09T08:22:56.000Z</time>
      </trkpt>
      <trkpt lat="44.08006" lon="5.94844">
        <ele>576.59997558594</ele>
        <time>2017-04-09T08:23:01.000Z</time>
      </trkpt>
      <trkpt lat="44.08001" lon="5.94843">
        <ele>576.79998779297</ele>
        <time>2017-04-09T08:23:02.000Z</time>
      </trkpt>
      <trkpt lat="44.07993" lon="5.9484">
        <ele>576.79998779297</ele>
        <time>2017-04-09T08:23:04.000Z</time>
      </trkpt>
      <trkpt lat="44.07976" lon="5.94832">
        <ele>577</ele>
        <time>2017-04-09T08:23:08.000Z</time>
      </trkpt>
      <trkpt lat="44.07956" lon="5.94823">
        <ele>577</ele>
        <time>2017-04-09T08:23:12.000Z</time>
      </trkpt>
      <trkpt lat="44.0794" lon="5.94817">
        <ele>577</ele>
        <time>2017-04-09T08:23:15.000Z</time>
      </trkpt>
      <trkpt lat="44.07923" lon="5.94809">
        <ele>575.59997558594</ele>
        <time>2017-04-09T08:23:18.000Z</time>
      </trkpt>
      <trkpt lat="44.07904" lon="5.94801">
        <ele>574.59997558594</ele>
        <time>2017-04-09T08:23:21.000Z</time>
      </trkpt>
      <trkpt lat="44.07886" lon="5.94794">
        <ele>573.59997558594</ele>
        <time>2017-04-09T08:23:24.000Z</time>
      </trkpt>
      <trkpt lat="44.07874" lon="5.9479">
        <ele>572.79998779297</ele>
        <time>2017-04-09T08:23:26.000Z</time>
      </trkpt>
      <trkpt lat="44.07854" lon="5.94794">
        <ele>571</ele>
        <time>2017-04-09T08:23:29.000Z</time>
      </trkpt>
      <trkpt lat="44.07836" lon="5.94809">
        <ele>570</ele>
        <time>2017-04-09T08:23:32.000Z</time>
      </trkpt>
      <trkpt lat="44.07815" lon="5.94817">
        <ele>569.40002441406</ele>
        <time>2017-04-09T08:23:35.000Z</time>
      </trkpt>
      <trkpt lat="44.07801" lon="5.94817">
        <ele>568.79998779297</ele>
        <time>2017-04-09T08:23:37.000Z</time>
      </trkpt>
      <trkpt lat="44.07787" lon="5.94814">
        <ele>568</ele>
        <time>2017-04-09T08:23:39.000Z</time>
      </trkpt>
      <trkpt lat="44.07769" lon="5.94799">
        <ele>566.59997558594</ele>
        <time>2017-04-09T08:23:42.000Z</time>
      </trkpt>
      <trkpt lat="44.0776" lon="5.94772">
        <ele>566</ele>
        <time>2017-04-09T08:23:45.000Z</time>
      </trkpt>
      <trkpt lat="44.07753" lon="5.94754">
        <ele>565.59997558594</ele>
        <time>2017-04-09T08:23:47.000Z</time>
      </trkpt>
      <trkpt lat="44.07739" lon="5.94734">
        <ele>564.79998779297</ele>
        <time>2017-04-09T08:23:50.000Z</time>
      </trkpt>
      <trkpt lat="44.07733" lon="5.94728">
        <ele>564.40002441406</ele>
        <time>2017-04-09T08:23:51.000Z</time>
      </trkpt>
      <trkpt lat="44.07715" lon="5.94716">
        <ele>563.79998779297</ele>
        <time>2017-04-09T08:23:54.000Z</time>
      </trkpt>
      <trkpt lat="44.07696" lon="5.94703">
        <ele>563.20001220703</ele>
        <time>2017-04-09T08:23:57.000Z</time>
      </trkpt>
      <trkpt lat="44.07678" lon="5.94691">
        <ele>562</ele>
        <time>2017-04-09T08:24:00.000Z</time>
      </trkpt>
      <trkpt lat="44.07661" lon="5.94679">
        <ele>560.59997558594</ele>
        <time>2017-04-09T08:24:03.000Z</time>
      </trkpt>
      <trkpt lat="44.07646" lon="5.94663">
        <ele>559.59997558594</ele>
        <time>2017-04-09T08:24:06.000Z</time>
      </trkpt>
      <trkpt lat="44.07634" lon="5.94642">
        <ele>558.79998779297</ele>
        <time>2017-04-09T08:24:09.000Z</time>
      </trkpt>
      <trkpt lat="44.07623" lon="5.94619">
        <ele>558.20001220703</ele>
        <time>2017-04-09T08:24:12.000Z</time>
      </trkpt>
      <trkpt lat="44.07612" lon="5.94596">
        <ele>557.79998779297</ele>
        <time>2017-04-09T08:24:15.000Z</time>
      </trkpt>
      <trkpt lat="44.07601" lon="5.94575">
        <ele>557.20001220703</ele>
        <time>2017-04-09T08:24:18.000Z</time>
      </trkpt>
      <trkpt lat="44.07588" lon="5.94556">
        <ele>556.79998779297</ele>
        <time>2017-04-09T08:24:21.000Z</time>
      </trkpt>
      <trkpt lat="44.07574" lon="5.9454">
        <ele>555.79998779297</ele>
        <time>2017-04-09T08:24:24.000Z</time>
      </trkpt>
      <trkpt lat="44.07558" lon="5.94525">
        <ele>554.79998779297</ele>
        <time>2017-04-09T08:24:27.000Z</time>
      </trkpt>
      <trkpt lat="44.07541" lon="5.94511">
        <ele>553.79998779297</ele>
        <time>2017-04-09T08:24:30.000Z</time>
      </trkpt>
      <trkpt lat="44.07526" lon="5.94496">
        <ele>553</ele>
        <time>2017-04-09T08:24:33.000Z</time>
      </trkpt>
      <trkpt lat="44.07514" lon="5.94482">
        <ele>552.40002441406</ele>
        <time>2017-04-09T08:24:36.000Z</time>
      </trkpt>
      <trkpt lat="44.07507" lon="5.94475">
        <ele>552</ele>
        <time>2017-04-09T08:24:38.000Z</time>
      </trkpt>
      <trkpt lat="44.07505" lon="5.94463">
        <ele>554.20001220703</ele>
        <time>2017-04-09T08:24:42.000Z</time>
      </trkpt>
      <trkpt lat="44.07507" lon="5.94436">
        <ele>558.20001220703</ele>
        <time>2017-04-09T08:24:55.000Z</time>
      </trkpt>
      <trkpt lat="44.07508" lon="5.94431">
        <ele>558.79998779297</ele>
        <time>2017-04-09T08:24:58.000Z</time>
      </trkpt>
      <trkpt lat="44.07521" lon="5.94426">
        <ele>559</ele>
        <time>2017-04-09T08:25:08.000Z</time>
      </trkpt>
      <trkpt lat="44.0753" lon="5.94417">
        <ele>560.40002441406</ele>
        <time>2017-04-09T08:25:16.000Z</time>
      </trkpt>
      <trkpt lat="44.07546" lon="5.94404">
        <ele>563.40002441406</ele>
        <time>2017-04-09T08:25:28.000Z</time>
      </trkpt>
      <trkpt lat="44.07562" lon="5.94388">
        <ele>565.59997558594</ele>
        <time>2017-04-09T08:25:41.000Z</time>
      </trkpt>
      <trkpt lat="44.07576" lon="5.94371">
        <ele>570</ele>
        <time>2017-04-09T08:25:54.000Z</time>
      </trkpt>
      <trkpt lat="44.0759" lon="5.94356">
        <ele>572.59997558594</ele>
        <time>2017-04-09T08:26:08.000Z</time>
      </trkpt>
      <trkpt lat="44.076" lon="5.94335">
        <ele>574.79998779297</ele>
        <time>2017-04-09T08:26:23.000Z</time>
      </trkpt>
      <trkpt lat="44.07607" lon="5.94311">
        <ele>577.59997558594</ele>
        <time>2017-04-09T08:26:37.000Z</time>
      </trkpt>
      <trkpt lat="44.07609" lon="5.94284">
        <ele>581</ele>
        <time>2017-04-09T08:26:51.000Z</time>
      </trkpt>
      <trkpt lat="44.07616" lon="5.9426">
        <ele>584.59997558594</ele>
        <time>2017-04-09T08:27:05.000Z</time>
      </trkpt>
      <trkpt lat="44.07626" lon="5.94237">
        <ele>588</ele>
        <time>2017-04-09T08:27:20.000Z</time>
      </trkpt>
      <trkpt lat="44.07638" lon="5.94218">
        <ele>590.79998779297</ele>
        <time>2017-04-09T08:27:34.000Z</time>
      </trkpt>
      <trkpt lat="44.07637" lon="5.94197">
        <ele>594.79998779297</ele>
        <time>2017-04-09T08:27:47.000Z</time>
      </trkpt>
      <trkpt lat="44.07637" lon="5.9419">
        <ele>596.20001220703</ele>
        <time>2017-04-09T08:27:51.000Z</time>
      </trkpt>
      <trkpt lat="44.07645" lon="5.94166">
        <ele>600.20001220703</ele>
        <time>2017-04-09T08:28:05.000Z</time>
      </trkpt>
      <trkpt lat="44.07659" lon="5.94149">
        <ele>601.59997558594</ele>
        <time>2017-04-09T08:28:18.000Z</time>
      </trkpt>
      <trkpt lat="44.07672" lon="5.9413">
        <ele>603.79998779297</ele>
        <time>2017-04-09T08:28:31.000Z</time>
      </trkpt>
      <trkpt lat="44.07676" lon="5.94124">
        <ele>604.59997558594</ele>
        <time>2017-04-09T08:28:36.000Z</time>
      </trkpt>
      <trkpt lat="44.0768" lon="5.9412">
        <ele>604.59997558594</ele>
        <time>2017-04-09T08:28:41.000Z</time>
      </trkpt>
      <trkpt lat="44.07681" lon="5.94118">
        <ele>604.79998779297</ele>
        <time>2017-04-09T08:28:42.000Z</time>
      </trkpt>
      <trkpt lat="44.07678" lon="5.94093">
        <ele>607.79998779297</ele>
        <time>2017-04-09T08:29:25.000Z</time>
      </trkpt>
      <trkpt lat="44.0769" lon="5.94073">
        <ele>608.59997558594</ele>
        <time>2017-04-09T08:29:36.000Z</time>
      </trkpt>
      <trkpt lat="44.0769" lon="5.94064">
        <ele>609.59997558594</ele>
        <time>2017-04-09T08:29:40.000Z</time>
      </trkpt>
      <trkpt lat="44.07682" lon="5.94058">
        <ele>611.20001220703</ele>
        <time>2017-04-09T08:29:45.000Z</time>
      </trkpt>
      <trkpt lat="44.07676" lon="5.94052">
        <ele>611.79998779297</ele>
        <time>2017-04-09T08:29:49.000Z</time>
      </trkpt>
      <trkpt lat="44.07672" lon="5.94043">
        <ele>612.40002441406</ele>
        <time>2017-04-09T08:29:53.000Z</time>
      </trkpt>
      <trkpt lat="44.07655" lon="5.94031">
        <ele>614.40002441406</ele>
        <time>2017-04-09T08:30:03.000Z</time>
      </trkpt>
      <trkpt lat="44.07637" lon="5.94028">
        <ele>616.40002441406</ele>
        <time>2017-04-09T08:30:13.000Z</time>
      </trkpt>
      <trkpt lat="44.07618" lon="5.94028">
        <ele>618.40002441406</ele>
        <time>2017-04-09T08:30:24.000Z</time>
      </trkpt>
      <trkpt lat="44.07599" lon="5.94026">
        <ele>619.20001220703</ele>
        <time>2017-04-09T08:30:36.000Z</time>
      </trkpt>
      <trkpt lat="44.07586" lon="5.94041">
        <ele>619</ele>
        <time>2017-04-09T08:30:49.000Z</time>
      </trkpt>
      <trkpt lat="44.07587" lon="5.94044">
        <ele>619.20001220703</ele>
        <time>2017-04-09T08:30:51.000Z</time>
      </trkpt>
      <trkpt lat="44.07594" lon="5.94069">
        <ele>617.59997558594</ele>
        <time>2017-04-09T08:31:00.000Z</time>
      </trkpt>
      <trkpt lat="44.07584" lon="5.94094">
        <ele>613.79998779297</ele>
        <time>2017-04-09T08:31:06.000Z</time>
      </trkpt>
      <trkpt lat="44.07573" lon="5.9411">
        <ele>612</ele>
        <time>2017-04-09T08:31:11.000Z</time>
      </trkpt>
      <trkpt lat="44.0756" lon="5.94128">
        <ele>611.59997558594</ele>
        <time>2017-04-09T08:31:16.000Z</time>
      </trkpt>
      <trkpt lat="44.07545" lon="5.94144">
        <ele>611.20001220703</ele>
        <time>2017-04-09T08:31:21.000Z</time>
      </trkpt>
      <trkpt lat="44.07528" lon="5.94163">
        <ele>609.20001220703</ele>
        <time>2017-04-09T08:31:26.000Z</time>
      </trkpt>
      <trkpt lat="44.07514" lon="5.94174">
        <ele>607.59997558594</ele>
        <time>2017-04-09T08:31:29.000Z</time>
      </trkpt>
      <trkpt lat="44.07496" lon="5.9419">
        <ele>605.40002441406</ele>
        <time>2017-04-09T08:31:33.000Z</time>
      </trkpt>
      <trkpt lat="44.07478" lon="5.94202">
        <ele>606</ele>
        <time>2017-04-09T08:31:37.000Z</time>
      </trkpt>
      <trkpt lat="44.0746" lon="5.94203">
        <ele>608.20001220703</ele>
        <time>2017-04-09T08:31:45.000Z</time>
      </trkpt>
      <trkpt lat="44.07454" lon="5.94205">
        <ele>608.79998779297</ele>
        <time>2017-04-09T08:31:47.000Z</time>
      </trkpt>
      <trkpt lat="44.07435" lon="5.94214">
        <ele>609</ele>
        <time>2017-04-09T08:31:54.000Z</time>
      </trkpt>
      <trkpt lat="44.07419" lon="5.94222">
        <ele>610.59997558594</ele>
        <time>2017-04-09T08:32:01.000Z</time>
      </trkpt>
      <trkpt lat="44.07416" lon="5.94223">
        <ele>611</ele>
        <time>2017-04-09T08:32:02.000Z</time>
      </trkpt>
      <trkpt lat="44.07398" lon="5.94232">
        <ele>611.20001220703</ele>
        <time>2017-04-09T08:32:09.000Z</time>
      </trkpt>
      <trkpt lat="44.07386" lon="5.9423">
        <ele>612.79998779297</ele>
        <time>2017-04-09T08:32:13.000Z</time>
      </trkpt>
      <trkpt lat="44.0738" lon="5.94247">
        <ele>609.59997558594</ele>
        <time>2017-04-09T08:32:18.000Z</time>
      </trkpt>
      <trkpt lat="44.07366" lon="5.94263">
        <ele>609</ele>
        <time>2017-04-09T08:32:25.000Z</time>
      </trkpt>
      <trkpt lat="44.07354" lon="5.94282">
        <ele>606.40002441406</ele>
        <time>2017-04-09T08:32:31.000Z</time>
      </trkpt>
      <trkpt lat="44.07342" lon="5.94301">
        <ele>603.20001220703</ele>
        <time>2017-04-09T08:32:36.000Z</time>
      </trkpt>
      <trkpt lat="44.07336" lon="5.94307">
        <ele>602.59997558594</ele>
        <time>2017-04-09T08:32:38.000Z</time>
      </trkpt>
      <trkpt lat="44.07315" lon="5.9431">
        <ele>602</ele>
        <time>2017-04-09T08:32:44.000Z</time>
      </trkpt>
      <trkpt lat="44.07303" lon="5.94312">
        <ele>601.59997558594</ele>
        <time>2017-04-09T08:32:47.000Z</time>
      </trkpt>
      <trkpt lat="44.07287" lon="5.94299">
        <ele>604.79998779297</ele>
        <time>2017-04-09T08:32:52.000Z</time>
      </trkpt>
      <trkpt lat="44.07271" lon="5.94284">
        <ele>606.40002441406</ele>
        <time>2017-04-09T08:32:58.000Z</time>
      </trkpt>
      <trkpt lat="44.07254" lon="5.94271">
        <ele>606.40002441406</ele>
        <time>2017-04-09T08:33:03.000Z</time>
      </trkpt>
      <trkpt lat="44.07237" lon="5.9428">
        <ele>603.59997558594</ele>
        <time>2017-04-09T08:33:07.000Z</time>
      </trkpt>
      <trkpt lat="44.07232" lon="5.94282">
        <ele>603</ele>
        <time>2017-04-09T08:33:08.000Z</time>
      </trkpt>
      <trkpt lat="44.07214" lon="5.94269">
        <ele>602.79998779297</ele>
        <time>2017-04-09T08:33:12.000Z</time>
      </trkpt>
      <trkpt lat="44.07194" lon="5.9426">
        <ele>602</ele>
        <time>2017-04-09T08:33:16.000Z</time>
      </trkpt>
      <trkpt lat="44.07182" lon="5.94252">
        <ele>602.20001220703</ele>
        <time>2017-04-09T08:33:20.000Z</time>
      </trkpt>
      <trkpt lat="44.07164" lon="5.94236">
        <ele>603.20001220703</ele>
        <time>2017-04-09T08:33:26.000Z</time>
      </trkpt>
      <trkpt lat="44.07146" lon="5.94229">
        <ele>603</ele>
        <time>2017-04-09T08:33:31.000Z</time>
      </trkpt>
      <trkpt lat="44.07126" lon="5.94217">
        <ele>602.40002441406</ele>
        <time>2017-04-09T08:33:36.000Z</time>
      </trkpt>
      <trkpt lat="44.07106" lon="5.94213">
        <ele>601.20001220703</ele>
        <time>2017-04-09T08:33:40.000Z</time>
      </trkpt>
      <trkpt lat="44.0709" lon="5.94198">
        <ele>600.20001220703</ele>
        <time>2017-04-09T08:33:44.000Z</time>
      </trkpt>
      <trkpt lat="44.07082" lon="5.94191">
        <ele>600</ele>
        <time>2017-04-09T08:33:46.000Z</time>
      </trkpt>
      <trkpt lat="44.07065" lon="5.94198">
        <ele>596.79998779297</ele>
        <time>2017-04-09T08:33:50.000Z</time>
      </trkpt>
      <trkpt lat="44.0706" lon="5.94203">
        <ele>595.59997558594</ele>
        <time>2017-04-09T08:33:51.000Z</time>
      </trkpt>
      <trkpt lat="44.07055" lon="5.94207">
        <ele>594.20001220703</ele>
        <time>2017-04-09T08:33:52.000Z</time>
      </trkpt>
      <trkpt lat="44.07035" lon="5.942">
        <ele>591.79998779297</ele>
        <time>2017-04-09T08:33:56.000Z</time>
      </trkpt>
      <trkpt lat="44.07032" lon="5.94195">
        <ele>592</ele>
        <time>2017-04-09T08:33:57.000Z</time>
      </trkpt>
      <trkpt lat="44.07021" lon="5.94186">
        <ele>591.79998779297</ele>
        <time>2017-04-09T08:34:00.000Z</time>
      </trkpt>
      <trkpt lat="44.07003" lon="5.94177">
        <ele>591.59997558594</ele>
        <time>2017-04-09T08:34:04.000Z</time>
      </trkpt>
      <trkpt lat="44.06998" lon="5.94177">
        <ele>591.40002441406</ele>
        <time>2017-04-09T08:34:05.000Z</time>
      </trkpt>
      <trkpt lat="44.0698" lon="5.9417">
        <ele>591</ele>
        <time>2017-04-09T08:34:10.000Z</time>
      </trkpt>
      <trkpt lat="44.06974" lon="5.94164">
        <ele>591.40002441406</ele>
        <time>2017-04-09T08:34:12.000Z</time>
      </trkpt>
      <trkpt lat="44.06969" lon="5.94163">
        <ele>591.20001220703</ele>
        <time>2017-04-09T08:34:13.000Z</time>
      </trkpt>
      <trkpt lat="44.0695" lon="5.94168">
        <ele>588.40002441406</ele>
        <time>2017-04-09T08:34:17.000Z</time>
      </trkpt>
      <trkpt lat="44.06944" lon="5.9417">
        <ele>587.59997558594</ele>
        <time>2017-04-09T08:34:18.000Z</time>
      </trkpt>
      <trkpt lat="44.06928" lon="5.94159">
        <ele>588.40002441406</ele>
        <time>2017-04-09T08:34:22.000Z</time>
      </trkpt>
      <trkpt lat="44.0691" lon="5.94146">
        <ele>589.59997558594</ele>
        <time>2017-04-09T08:34:27.000Z</time>
      </trkpt>
      <trkpt lat="44.06894" lon="5.94133">
        <ele>589.59997558594</ele>
        <time>2017-04-09T08:34:31.000Z</time>
      </trkpt>
      <trkpt lat="44.06886" lon="5.94129">
        <ele>589.20001220703</ele>
        <time>2017-04-09T08:34:33.000Z</time>
      </trkpt>
      <trkpt lat="44.06868" lon="5.94116">
        <ele>588</ele>
        <time>2017-04-09T08:34:38.000Z</time>
      </trkpt>
      <trkpt lat="44.06852" lon="5.94113">
        <ele>586.59997558594</ele>
        <time>2017-04-09T08:34:42.000Z</time>
      </trkpt>
      <trkpt lat="44.06843" lon="5.94114">
        <ele>585.59997558594</ele>
        <time>2017-04-09T08:34:44.000Z</time>
      </trkpt>
      <trkpt lat="44.06824" lon="5.94124">
        <ele>583.20001220703</ele>
        <time>2017-04-09T08:34:49.000Z</time>
      </trkpt>
      <trkpt lat="44.06804" lon="5.94127">
        <ele>580.40002441406</ele>
        <time>2017-04-09T08:34:55.000Z</time>
      </trkpt>
      <trkpt lat="44.06783" lon="5.94124">
        <ele>577.59997558594</ele>
        <time>2017-04-09T08:34:59.000Z</time>
      </trkpt>
      <trkpt lat="44.06762" lon="5.94122">
        <ele>573.79998779297</ele>
        <time>2017-04-09T08:35:02.000Z</time>
      </trkpt>
      <trkpt lat="44.06748" lon="5.94125">
        <ele>571.20001220703</ele>
        <time>2017-04-09T08:35:04.000Z</time>
      </trkpt>
      <trkpt lat="44.06728" lon="5.9413">
        <ele>567.79998779297</ele>
        <time>2017-04-09T08:35:07.000Z</time>
      </trkpt>
      <trkpt lat="44.06709" lon="5.94134">
        <ele>564.59997558594</ele>
        <time>2017-04-09T08:35:10.000Z</time>
      </trkpt>
      <trkpt lat="44.06702" lon="5.94135">
        <ele>563.40002441406</ele>
        <time>2017-04-09T08:35:11.000Z</time>
      </trkpt>
      <trkpt lat="44.0668" lon="5.94131">
        <ele>559.40002441406</ele>
        <time>2017-04-09T08:35:14.000Z</time>
      </trkpt>
      <trkpt lat="44.06672" lon="5.9413">
        <ele>558.20001220703</ele>
        <time>2017-04-09T08:35:15.000Z</time>
      </trkpt>
      <trkpt lat="44.06657" lon="5.94129">
        <ele>556.40002441406</ele>
        <time>2017-04-09T08:35:17.000Z</time>
      </trkpt>
      <trkpt lat="44.06635" lon="5.94131">
        <ele>553.79998779297</ele>
        <time>2017-04-09T08:35:20.000Z</time>
      </trkpt>
      <trkpt lat="44.06612" lon="5.94133">
        <ele>551.40002441406</ele>
        <time>2017-04-09T08:35:23.000Z</time>
      </trkpt>
      <trkpt lat="44.06587" lon="5.94136">
        <ele>548.79998779297</ele>
        <time>2017-04-09T08:35:26.000Z</time>
      </trkpt>
      <trkpt lat="44.06568" lon="5.94134">
        <ele>546.40002441406</ele>
        <time>2017-04-09T08:35:28.000Z</time>
      </trkpt>
      <trkpt lat="44.0655" lon="5.94134">
        <ele>544.40002441406</ele>
        <time>2017-04-09T08:35:30.000Z</time>
      </trkpt>
      <trkpt lat="44.06525" lon="5.94137">
        <ele>542.40002441406</ele>
        <time>2017-04-09T08:35:33.000Z</time>
      </trkpt>
      <trkpt lat="44.06499" lon="5.94143">
        <ele>537</ele>
        <time>2017-04-09T08:35:36.000Z</time>
      </trkpt>
      <trkpt lat="44.06476" lon="5.94149">
        <ele>531</ele>
        <time>2017-04-09T08:35:39.000Z</time>
      </trkpt>
      <trkpt lat="44.06469" lon="5.94149">
        <ele>529.59997558594</ele>
        <time>2017-04-09T08:35:40.000Z</time>
      </trkpt>
      <trkpt lat="44.06451" lon="5.94151">
        <ele>525.79998779297</ele>
        <time>2017-04-09T08:35:43.000Z</time>
      </trkpt>
      <trkpt lat="44.06453" lon="5.94175">
        <ele>523.79998779297</ele>
        <time>2017-04-09T08:35:48.000Z</time>
      </trkpt>
      <trkpt lat="44.06463" lon="5.94196">
        <ele>522.59997558594</ele>
        <time>2017-04-09T08:35:53.000Z</time>
      </trkpt>
      <trkpt lat="44.06452" lon="5.94197">
        <ele>521.59997558594</ele>
        <time>2017-04-09T08:35:56.000Z</time>
      </trkpt>
      <trkpt lat="44.06428" lon="5.94193">
        <ele>517</ele>
        <time>2017-04-09T08:36:00.000Z</time>
      </trkpt>
      <trkpt lat="44.06407" lon="5.94189">
        <ele>511.60000610352</ele>
        <time>2017-04-09T08:36:03.000Z</time>
      </trkpt>
      <trkpt lat="44.06385" lon="5.94192">
        <ele>506.39999389648</ele>
        <time>2017-04-09T08:36:06.000Z</time>
      </trkpt>
      <trkpt lat="44.06379" lon="5.94195">
        <ele>505</ele>
        <time>2017-04-09T08:36:07.000Z</time>
      </trkpt>
      <trkpt lat="44.06379" lon="5.94201">
        <ele>504.60000610352</ele>
        <time>2017-04-09T08:36:08.000Z</time>
      </trkpt>
      <trkpt lat="44.0639" lon="5.94223">
        <ele>506</ele>
        <time>2017-04-09T08:36:11.000Z</time>
      </trkpt>
      <trkpt lat="44.06401" lon="5.94233">
        <ele>506.60000610352</ele>
        <time>2017-04-09T08:36:13.000Z</time>
      </trkpt>
      <trkpt lat="44.06417" lon="5.94251">
        <ele>506.60000610352</ele>
        <time>2017-04-09T08:36:16.000Z</time>
      </trkpt>
      <trkpt lat="44.06419" lon="5.94282">
        <ele>501</ele>
        <time>2017-04-09T08:36:20.000Z</time>
      </trkpt>
      <trkpt lat="44.06406" lon="5.94283">
        <ele>498.79998779297</ele>
        <time>2017-04-09T08:36:24.000Z</time>
      </trkpt>
      <trkpt lat="44.06398" lon="5.94283">
        <ele>497.79998779297</ele>
        <time>2017-04-09T08:36:26.000Z</time>
      </trkpt>
      <trkpt lat="44.06387" lon="5.94282">
        <ele>496.39999389648</ele>
        <time>2017-04-09T08:36:28.000Z</time>
      </trkpt>
      <trkpt lat="44.0637" lon="5.9427">
        <ele>495.39999389648</ele>
        <time>2017-04-09T08:36:32.000Z</time>
      </trkpt>
      <trkpt lat="44.06354" lon="5.94258">
        <ele>494.39999389648</ele>
        <time>2017-04-09T08:36:35.000Z</time>
      </trkpt>
      <trkpt lat="44.06337" lon="5.94239">
        <ele>493.79998779297</ele>
        <time>2017-04-09T08:36:38.000Z</time>
      </trkpt>
      <trkpt lat="44.06332" lon="5.94232">
        <ele>494</ele>
        <time>2017-04-09T08:36:39.000Z</time>
      </trkpt>
      <trkpt lat="44.06323" lon="5.94207">
        <ele>494.20001220703</ele>
        <time>2017-04-09T08:36:42.000Z</time>
      </trkpt>
      <trkpt lat="44.06307" lon="5.94188">
        <ele>492.60000610352</ele>
        <time>2017-04-09T08:36:48.000Z</time>
      </trkpt>
      <trkpt lat="44.06302" lon="5.94183">
        <ele>492</ele>
        <time>2017-04-09T08:36:49.000Z</time>
      </trkpt>
      <trkpt lat="44.06289" lon="5.94173">
        <ele>490.39999389648</ele>
        <time>2017-04-09T08:36:51.000Z</time>
      </trkpt>
      <trkpt lat="44.0627" lon="5.94162">
        <ele>488.20001220703</ele>
        <time>2017-04-09T08:36:54.000Z</time>
      </trkpt>
      <trkpt lat="44.06261" lon="5.94157">
        <ele>487.60000610352</ele>
        <time>2017-04-09T08:36:56.000Z</time>
      </trkpt>
      <trkpt lat="44.06241" lon="5.94155">
        <ele>485.39999389648</ele>
        <time>2017-04-09T08:37:01.000Z</time>
      </trkpt>
      <trkpt lat="44.06222" lon="5.94148">
        <ele>483.79998779297</ele>
        <time>2017-04-09T08:37:06.000Z</time>
      </trkpt>
      <trkpt lat="44.06202" lon="5.94153">
        <ele>481.39999389648</ele>
        <time>2017-04-09T08:37:14.000Z</time>
      </trkpt>
      <trkpt lat="44.06183" lon="5.94156">
        <ele>479.60000610352</ele>
        <time>2017-04-09T08:37:19.000Z</time>
      </trkpt>
      <trkpt lat="44.06164" lon="5.94158">
        <ele>478.79998779297</ele>
        <time>2017-04-09T08:37:22.000Z</time>
      </trkpt>
      <trkpt lat="44.06144" lon="5.94162">
        <ele>477.79998779297</ele>
        <time>2017-04-09T08:37:25.000Z</time>
      </trkpt>
      <trkpt lat="44.06129" lon="5.94167">
        <ele>476.20001220703</ele>
        <time>2017-04-09T08:37:27.000Z</time>
      </trkpt>
      <trkpt lat="44.06113" lon="5.94181">
        <ele>472.60000610352</ele>
        <time>2017-04-09T08:37:30.000Z</time>
      </trkpt>
      <trkpt lat="44.0611" lon="5.94186">
        <ele>471.60000610352</ele>
        <time>2017-04-09T08:37:31.000Z</time>
      </trkpt>
      <trkpt lat="44.06097" lon="5.94197">
        <ele>469.79998779297</ele>
        <time>2017-04-09T08:37:42.000Z</time>
      </trkpt>
      <trkpt lat="44.0608" lon="5.94223">
        <ele>464.20001220703</ele>
        <time>2017-04-09T08:37:46.000Z</time>
      </trkpt>
      <trkpt lat="44.0607" lon="5.94238">
        <ele>465.20001220703</ele>
        <time>2017-04-09T08:37:48.000Z</time>
      </trkpt>
      <trkpt lat="44.06054" lon="5.94252">
        <ele>466.20001220703</ele>
        <time>2017-04-09T08:37:51.000Z</time>
      </trkpt>
      <trkpt lat="44.06047" lon="5.94255">
        <ele>465.60000610352</ele>
        <time>2017-04-09T08:37:52.000Z</time>
      </trkpt>
      <trkpt lat="44.06025" lon="5.94268">
        <ele>463.60000610352</ele>
        <time>2017-04-09T08:37:55.000Z</time>
      </trkpt>
      <trkpt lat="44.06019" lon="5.94273">
        <ele>463.79998779297</ele>
        <time>2017-04-09T08:37:56.000Z</time>
      </trkpt>
      <trkpt lat="44.06002" lon="5.94286">
        <ele>464</ele>
        <time>2017-04-09T08:38:06.000Z</time>
      </trkpt>
      <trkpt lat="44.05987" lon="5.94301">
        <ele>463</ele>
        <time>2017-04-09T08:38:17.000Z</time>
      </trkpt>
      <trkpt lat="44.05968" lon="5.94305">
        <ele>461.39999389648</ele>
        <time>2017-04-09T08:38:23.000Z</time>
      </trkpt>
      <trkpt lat="44.05957" lon="5.94308">
        <ele>460.39999389648</ele>
        <time>2017-04-09T08:38:25.000Z</time>
      </trkpt>
      <trkpt lat="44.05941" lon="5.94319">
        <ele>463.20001220703</ele>
        <time>2017-04-09T08:38:32.000Z</time>
      </trkpt>
      <trkpt lat="44.05926" lon="5.94329">
        <ele>465.39999389648</ele>
        <time>2017-04-09T08:38:52.000Z</time>
      </trkpt>
      <trkpt lat="44.05906" lon="5.94329">
        <ele>463.60000610352</ele>
        <time>2017-04-09T08:39:07.000Z</time>
      </trkpt>
      <trkpt lat="44.05889" lon="5.94336">
        <ele>464.39999389648</ele>
        <time>2017-04-09T08:39:12.000Z</time>
      </trkpt>
      <trkpt lat="44.05876" lon="5.94345">
        <ele>463.79998779297</ele>
        <time>2017-04-09T08:39:18.000Z</time>
      </trkpt>
      <trkpt lat="44.05859" lon="5.94343">
        <ele>459.39999389648</ele>
        <time>2017-04-09T08:39:24.000Z</time>
      </trkpt>
      <trkpt lat="44.05839" lon="5.94336">
        <ele>457.20001220703</ele>
        <time>2017-04-09T08:39:31.000Z</time>
      </trkpt>
      <trkpt lat="44.0582" lon="5.94336">
        <ele>456.39999389648</ele>
        <time>2017-04-09T08:39:40.000Z</time>
      </trkpt>
      <trkpt lat="44.05818" lon="5.94336">
        <ele>456.20001220703</ele>
        <time>2017-04-09T08:39:41.000Z</time>
      </trkpt>
      <trkpt lat="44.05803" lon="5.94336">
        <ele>455.39999389648</ele>
        <time>2017-04-09T08:39:50.000Z</time>
      </trkpt>
      <trkpt lat="44.05798" lon="5.94326">
        <ele>453.20001220703</ele>
        <time>2017-04-09T08:41:23.000Z</time>
      </trkpt>
      <trkpt lat="44.05784" lon="5.94317">
        <ele>450.20001220703</ele>
        <time>2017-04-09T08:41:30.000Z</time>
      </trkpt>
      <trkpt lat="44.05778" lon="5.94313">
        <ele>448.60000610352</ele>
        <time>2017-04-09T08:41:46.000Z</time>
      </trkpt>
      <trkpt lat="44.0577" lon="5.94301">
        <ele>450.20001220703</ele>
        <time>2017-04-09T08:41:52.000Z</time>
      </trkpt>
      <trkpt lat="44.05767" lon="5.94276">
        <ele>453.79998779297</ele>
        <time>2017-04-09T08:42:01.000Z</time>
      </trkpt>
      <trkpt lat="44.05769" lon="5.9425">
        <ele>455.79998779297</ele>
        <time>2017-04-09T08:42:09.000Z</time>
      </trkpt>
      <trkpt lat="44.05768" lon="5.94248">
        <ele>456.39999389648</ele>
        <time>2017-04-09T08:42:10.000Z</time>
      </trkpt>
      <trkpt lat="44.0575" lon="5.94258">
        <ele>460</ele>
        <time>2017-04-09T08:42:19.000Z</time>
      </trkpt>
      <trkpt lat="44.05748" lon="5.94257">
        <ele>460.39999389648</ele>
        <time>2017-04-09T08:42:21.000Z</time>
      </trkpt>
      <trkpt lat="44.05751" lon="5.94251">
        <ele>460.39999389648</ele>
        <time>2017-04-09T08:42:25.000Z</time>
      </trkpt>
      <trkpt lat="44.05754" lon="5.94225">
        <ele>462.60000610352</ele>
        <time>2017-04-09T08:43:55.000Z</time>
      </trkpt>
      <trkpt lat="44.05743" lon="5.94203">
        <ele>468.60000610352</ele>
        <time>2017-04-09T08:44:03.000Z</time>
      </trkpt>
      <trkpt lat="44.05729" lon="5.94186">
        <ele>474.79998779297</ele>
        <time>2017-04-09T08:44:13.000Z</time>
      </trkpt>
      <trkpt lat="44.05719" lon="5.94165">
        <ele>480.39999389648</ele>
        <time>2017-04-09T08:44:20.000Z</time>
      </trkpt>
      <trkpt lat="44.05717" lon="5.94138">
        <ele>482.39999389648</ele>
        <time>2017-04-09T08:44:26.000Z</time>
      </trkpt>
      <trkpt lat="44.05718" lon="5.94117">
        <ele>484.20001220703</ele>
        <time>2017-04-09T08:44:35.000Z</time>
      </trkpt>
      <trkpt lat="44.05724" lon="5.9412">
        <ele>481.60000610352</ele>
        <time>2017-04-09T08:44:41.000Z</time>
      </trkpt>
      <trkpt lat="44.05725" lon="5.94123">
        <ele>481</ele>
        <time>2017-04-09T08:44:43.000Z</time>
      </trkpt>
      <trkpt lat="44.05733" lon="5.94136">
        <ele>476.79998779297</ele>
        <time>2017-04-09T08:44:50.000Z</time>
      </trkpt>
      <trkpt lat="44.05742" lon="5.94143">
        <ele>473</ele>
        <time>2017-04-09T08:45:00.000Z</time>
      </trkpt>
      <trkpt lat="44.05748" lon="5.94122">
        <ele>473</ele>
        <time>2017-04-09T08:45:14.000Z</time>
      </trkpt>
      <trkpt lat="44.05761" lon="5.94112">
        <ele>468.20001220703</ele>
        <time>2017-04-09T08:45:24.000Z</time>
      </trkpt>
      <trkpt lat="44.05774" lon="5.94095">
        <ele>463.39999389648</ele>
        <time>2017-04-09T08:45:28.000Z</time>
      </trkpt>
      <trkpt lat="44.05782" lon="5.94072">
        <ele>463.60000610352</ele>
        <time>2017-04-09T08:45:31.000Z</time>
      </trkpt>
      <trkpt lat="44.05787" lon="5.94057">
        <ele>464.79998779297</ele>
        <time>2017-04-09T08:45:33.000Z</time>
      </trkpt>
      <trkpt lat="44.05792" lon="5.94046">
        <ele>467.39999389648</ele>
        <time>2017-04-09T08:45:35.000Z</time>
      </trkpt>
      <trkpt lat="44.05805" lon="5.94027">
        <ele>471.79998779297</ele>
        <time>2017-04-09T08:45:39.000Z</time>
      </trkpt>
      <trkpt lat="44.05812" lon="5.94018">
        <ele>474</ele>
        <time>2017-04-09T08:45:41.000Z</time>
      </trkpt>
      <trkpt lat="44.05828" lon="5.94001">
        <ele>472.20001220703</ele>
        <time>2017-04-09T08:45:46.000Z</time>
      </trkpt>
      <trkpt lat="44.05846" lon="5.93992">
        <ele>468.39999389648</ele>
        <time>2017-04-09T08:46:55.000Z</time>
      </trkpt>
      <trkpt lat="44.05854" lon="5.93993">
        <ele>467</ele>
        <time>2017-04-09T08:46:59.000Z</time>
      </trkpt>
      <trkpt lat="44.0587" lon="5.93999">
        <ele>467.20001220703</ele>
        <time>2017-04-09T08:47:10.000Z</time>
      </trkpt>
      <trkpt lat="44.05868" lon="5.93983">
        <ele>466.20001220703</ele>
        <time>2017-04-09T08:47:16.000Z</time>
      </trkpt>
      <trkpt lat="44.05861" lon="5.93958">
        <ele>465.79998779297</ele>
        <time>2017-04-09T08:47:27.000Z</time>
      </trkpt>
      <trkpt lat="44.05843" lon="5.93948">
        <ele>472.60000610352</ele>
        <time>2017-04-09T08:47:37.000Z</time>
      </trkpt>
      <trkpt lat="44.05826" lon="5.93934">
        <ele>479.79998779297</ele>
        <time>2017-04-09T08:47:47.000Z</time>
      </trkpt>
      <trkpt lat="44.05813" lon="5.93934">
        <ele>483.39999389648</ele>
        <time>2017-04-09T08:47:56.000Z</time>
      </trkpt>
      <trkpt lat="44.05808" lon="5.93912">
        <ele>487.79998779297</ele>
        <time>2017-04-09T08:48:13.000Z</time>
      </trkpt>
      <trkpt lat="44.05809" lon="5.93898">
        <ele>488</ele>
        <time>2017-04-09T08:48:21.000Z</time>
      </trkpt>
      <trkpt lat="44.05806" lon="5.93899">
        <ele>489</ele>
        <time>2017-04-09T08:48:25.000Z</time>
      </trkpt>
      <trkpt lat="44.05792" lon="5.93914">
        <ele>492.20001220703</ele>
        <time>2017-04-09T08:48:45.000Z</time>
      </trkpt>
      <trkpt lat="44.05775" lon="5.93925">
        <ele>492.39999389648</ele>
        <time>2017-04-09T08:48:59.000Z</time>
      </trkpt>
      <trkpt lat="44.05762" lon="5.93945">
        <ele>488.60000610352</ele>
        <time>2017-04-09T08:49:15.000Z</time>
      </trkpt>
      <trkpt lat="44.05756" lon="5.93954">
        <ele>487</ele>
        <time>2017-04-09T08:49:23.000Z</time>
      </trkpt>
      <trkpt lat="44.05739" lon="5.93963">
        <ele>490.39999389648</ele>
        <time>2017-04-09T08:49:38.000Z</time>
      </trkpt>
      <trkpt lat="44.05721" lon="5.93971">
        <ele>494.20001220703</ele>
        <time>2017-04-09T08:49:56.000Z</time>
      </trkpt>
      <trkpt lat="44.05702" lon="5.93974">
        <ele>498.60000610352</ele>
        <time>2017-04-09T08:50:07.000Z</time>
      </trkpt>
      <trkpt lat="44.05685" lon="5.93967">
        <ele>503.20001220703</ele>
        <time>2017-04-09T08:50:15.000Z</time>
      </trkpt>
      <trkpt lat="44.0567" lon="5.93952">
        <ele>507.20001220703</ele>
        <time>2017-04-09T08:50:25.000Z</time>
      </trkpt>
      <trkpt lat="44.05655" lon="5.93937">
        <ele>511.39999389648</ele>
        <time>2017-04-09T08:50:37.000Z</time>
      </trkpt>
      <trkpt lat="44.05642" lon="5.93921">
        <ele>515.40002441406</ele>
        <time>2017-04-09T08:50:49.000Z</time>
      </trkpt>
      <trkpt lat="44.0563" lon="5.93902">
        <ele>519.20001220703</ele>
        <time>2017-04-09T08:51:02.000Z</time>
      </trkpt>
      <trkpt lat="44.05614" lon="5.93887">
        <ele>523.20001220703</ele>
        <time>2017-04-09T08:51:14.000Z</time>
      </trkpt>
      <trkpt lat="44.05597" lon="5.93873">
        <ele>525.40002441406</ele>
        <time>2017-04-09T08:51:25.000Z</time>
      </trkpt>
      <trkpt lat="44.05581" lon="5.93859">
        <ele>526.79998779297</ele>
        <time>2017-04-09T08:51:37.000Z</time>
      </trkpt>
      <trkpt lat="44.05563" lon="5.93853">
        <ele>529.20001220703</ele>
        <time>2017-04-09T08:51:52.000Z</time>
      </trkpt>
      <trkpt lat="44.05545" lon="5.93843">
        <ele>531.59997558594</ele>
        <time>2017-04-09T08:52:05.000Z</time>
      </trkpt>
      <trkpt lat="44.05527" lon="5.93836">
        <ele>534.20001220703</ele>
        <time>2017-04-09T08:52:20.000Z</time>
      </trkpt>
      <trkpt lat="44.05508" lon="5.93831">
        <ele>535.59997558594</ele>
        <time>2017-04-09T08:52:33.000Z</time>
      </trkpt>
      <trkpt lat="44.0549" lon="5.93828">
        <ele>537.20001220703</ele>
        <time>2017-04-09T08:52:45.000Z</time>
      </trkpt>
      <trkpt lat="44.05471" lon="5.93824">
        <ele>538.59997558594</ele>
        <time>2017-04-09T08:52:58.000Z</time>
      </trkpt>
      <trkpt lat="44.05453" lon="5.93819">
        <ele>540</ele>
        <time>2017-04-09T08:53:09.000Z</time>
      </trkpt>
      <trkpt lat="44.05435" lon="5.93815">
        <ele>541.20001220703</ele>
        <time>2017-04-09T08:53:20.000Z</time>
      </trkpt>
      <trkpt lat="44.05417" lon="5.93807">
        <ele>541.59997558594</ele>
        <time>2017-04-09T08:53:31.000Z</time>
      </trkpt>
      <trkpt lat="44.054" lon="5.938">
        <ele>542.59997558594</ele>
        <time>2017-04-09T08:53:42.000Z</time>
      </trkpt>
      <trkpt lat="44.05394" lon="5.93799">
        <ele>543</ele>
        <time>2017-04-09T08:53:47.000Z</time>
      </trkpt>
      <trkpt lat="44.05388" lon="5.93799">
        <ele>543.40002441406</ele>
        <time>2017-04-09T08:53:50.000Z</time>
      </trkpt>
      <trkpt lat="44.05377" lon="5.93793">
        <ele>544</ele>
        <time>2017-04-09T08:53:55.000Z</time>
      </trkpt>
      <trkpt lat="44.05374" lon="5.93791">
        <ele>544.20001220703</ele>
        <time>2017-04-09T08:53:57.000Z</time>
      </trkpt>
      <trkpt lat="44.05364" lon="5.93796">
        <ele>544.79998779297</ele>
        <time>2017-04-09T08:54:02.000Z</time>
      </trkpt>
      <trkpt lat="44.05357" lon="5.938">
        <ele>545</ele>
        <time>2017-04-09T08:54:08.000Z</time>
      </trkpt>
      <trkpt lat="44.05344" lon="5.93797">
        <ele>545</ele>
        <time>2017-04-09T08:56:59.000Z</time>
      </trkpt>
      <trkpt lat="44.05338" lon="5.9378">
        <ele>545</ele>
        <time>2017-04-09T08:58:56.000Z</time>
      </trkpt>
      <trkpt lat="44.05323" lon="5.93764">
        <ele>545</ele>
        <time>2017-04-09T08:59:09.000Z</time>
      </trkpt>
      <trkpt lat="44.05305" lon="5.93753">
        <ele>545</ele>
        <time>2017-04-09T08:59:20.000Z</time>
      </trkpt>
      <trkpt lat="44.05289" lon="5.93742">
        <ele>545</ele>
        <time>2017-04-09T08:59:31.000Z</time>
      </trkpt>
      <trkpt lat="44.05288" lon="5.9374">
        <ele>545</ele>
        <time>2017-04-09T08:59:32.000Z</time>
      </trkpt>
      <trkpt lat="44.05286" lon="5.93733">
        <ele>545</ele>
        <time>2017-04-09T08:59:36.000Z</time>
      </trkpt>
      <trkpt lat="44.05292" lon="5.93719">
        <ele>545.40002441406</ele>
        <time>2017-04-09T08:59:43.000Z</time>
      </trkpt>
      <trkpt lat="44.05297" lon="5.93695">
        <ele>546.59997558594</ele>
        <time>2017-04-09T08:59:56.000Z</time>
      </trkpt>
      <trkpt lat="44.05306" lon="5.93673">
        <ele>547.79998779297</ele>
        <time>2017-04-09T09:00:09.000Z</time>
      </trkpt>
      <trkpt lat="44.05306" lon="5.93671">
        <ele>547.79998779297</ele>
        <time>2017-04-09T09:00:10.000Z</time>
      </trkpt>
      <trkpt lat="44.05309" lon="5.93664">
        <ele>548.40002441406</ele>
        <time>2017-04-09T09:00:16.000Z</time>
      </trkpt>
      <trkpt lat="44.05317" lon="5.93647">
        <ele>549.59997558594</ele>
        <time>2017-04-09T09:00:24.000Z</time>
      </trkpt>
      <trkpt lat="44.05321" lon="5.93634">
        <ele>550.40002441406</ele>
        <time>2017-04-09T09:00:28.000Z</time>
      </trkpt>
      <trkpt lat="44.05325" lon="5.9361">
        <ele>551.20001220703</ele>
        <time>2017-04-09T09:00:36.000Z</time>
      </trkpt>
      <trkpt lat="44.05332" lon="5.93586">
        <ele>552.40002441406</ele>
        <time>2017-04-09T09:00:43.000Z</time>
      </trkpt>
      <trkpt lat="44.05335" lon="5.93559">
        <ele>553.40002441406</ele>
        <time>2017-04-09T09:00:51.000Z</time>
      </trkpt>
      <trkpt lat="44.05337" lon="5.9355">
        <ele>553.40002441406</ele>
        <time>2017-04-09T09:00:55.000Z</time>
      </trkpt>
      <trkpt lat="44.05355" lon="5.93559">
        <ele>553.79998779297</ele>
        <time>2017-04-09T09:01:02.000Z</time>
      </trkpt>
      <trkpt lat="44.05358" lon="5.93561">
        <ele>553.79998779297</ele>
        <time>2017-04-09T09:01:03.000Z</time>
      </trkpt>
      <trkpt lat="44.05373" lon="5.93574">
        <ele>552.59997558594</ele>
        <time>2017-04-09T09:01:08.000Z</time>
      </trkpt>
      <trkpt lat="44.05386" lon="5.9359">
        <ele>551.20001220703</ele>
        <time>2017-04-09T09:01:12.000Z</time>
      </trkpt>
      <trkpt lat="44.05393" lon="5.93613">
        <ele>550</ele>
        <time>2017-04-09T09:01:16.000Z</time>
      </trkpt>
      <trkpt lat="44.05416" lon="5.93615">
        <ele>548.59997558594</ele>
        <time>2017-04-09T09:01:21.000Z</time>
      </trkpt>
      <trkpt lat="44.0542" lon="5.93617">
        <ele>548.20001220703</ele>
        <time>2017-04-09T09:01:22.000Z</time>
      </trkpt>
      <trkpt lat="44.05425" lon="5.93617">
        <ele>548</ele>
        <time>2017-04-09T09:01:23.000Z</time>
      </trkpt>
      <trkpt lat="44.0544" lon="5.93632">
        <ele>546.59997558594</ele>
        <time>2017-04-09T09:01:27.000Z</time>
      </trkpt>
      <trkpt lat="44.05444" lon="5.93637">
        <ele>546</ele>
        <time>2017-04-09T09:01:28.000Z</time>
      </trkpt>
      <trkpt lat="44.05462" lon="5.93637">
        <ele>544.79998779297</ele>
        <time>2017-04-09T09:01:31.000Z</time>
      </trkpt>
      <trkpt lat="44.05483" lon="5.93628">
        <ele>543.79998779297</ele>
        <time>2017-04-09T09:01:35.000Z</time>
      </trkpt>
      <trkpt lat="44.05489" lon="5.93627">
        <ele>543.40002441406</ele>
        <time>2017-04-09T09:01:36.000Z</time>
      </trkpt>
      <trkpt lat="44.05501" lon="5.93624">
        <ele>542.59997558594</ele>
        <time>2017-04-09T09:01:38.000Z</time>
      </trkpt>
      <trkpt lat="44.05511" lon="5.9362">
        <ele>542</ele>
        <time>2017-04-09T09:01:40.000Z</time>
      </trkpt>
      <trkpt lat="44.05532" lon="5.93618">
        <ele>540.20001220703</ele>
        <time>2017-04-09T09:01:44.000Z</time>
      </trkpt>
      <trkpt lat="44.05551" lon="5.93622">
        <ele>539.20001220703</ele>
        <time>2017-04-09T09:01:47.000Z</time>
      </trkpt>
      <trkpt lat="44.05558" lon="5.93621">
        <ele>539</ele>
        <time>2017-04-09T09:01:48.000Z</time>
      </trkpt>
      <trkpt lat="44.0557" lon="5.93618">
        <ele>538.40002441406</ele>
        <time>2017-04-09T09:01:50.000Z</time>
      </trkpt>
      <trkpt lat="44.05583" lon="5.93622">
        <ele>537.59997558594</ele>
        <time>2017-04-09T09:01:53.000Z</time>
      </trkpt>
      <trkpt lat="44.05575" lon="5.93639">
        <ele>537.59997558594</ele>
        <time>2017-04-09T09:01:57.000Z</time>
      </trkpt>
      <trkpt lat="44.05564" lon="5.93652">
        <ele>538</ele>
        <time>2017-04-09T09:02:00.000Z</time>
      </trkpt>
      <trkpt lat="44.05552" lon="5.93676">
        <ele>537.59997558594</ele>
        <time>2017-04-09T09:02:04.000Z</time>
      </trkpt>
      <trkpt lat="44.0555" lon="5.9369">
        <ele>536.79998779297</ele>
        <time>2017-04-09T09:02:09.000Z</time>
      </trkpt>
      <trkpt lat="44.05562" lon="5.93713">
        <ele>535.20001220703</ele>
        <time>2017-04-09T09:02:15.000Z</time>
      </trkpt>
      <trkpt lat="44.05568" lon="5.93718">
        <ele>534.79998779297</ele>
        <time>2017-04-09T09:02:17.000Z</time>
      </trkpt>
      <trkpt lat="44.05589" lon="5.93725">
        <ele>534.20001220703</ele>
        <time>2017-04-09T09:02:22.000Z</time>
      </trkpt>
      <trkpt lat="44.05596" lon="5.93733">
        <ele>533.20001220703</ele>
        <time>2017-04-09T09:02:24.000Z</time>
      </trkpt>
      <trkpt lat="44.05604" lon="5.93739">
        <ele>532.59997558594</ele>
        <time>2017-04-09T09:02:26.000Z</time>
      </trkpt>
      <trkpt lat="44.05623" lon="5.93739">
        <ele>531.59997558594</ele>
        <time>2017-04-09T09:02:30.000Z</time>
      </trkpt>
      <trkpt lat="44.05615" lon="5.9372">
        <ele>533.59997558594</ele>
        <time>2017-04-09T09:02:36.000Z</time>
      </trkpt>
      <trkpt lat="44.05612" lon="5.93717">
        <ele>534</ele>
        <time>2017-04-09T09:02:37.000Z</time>
      </trkpt>
      <trkpt lat="44.0561" lon="5.93709">
        <ele>534.20001220703</ele>
        <time>2017-04-09T09:02:39.000Z</time>
      </trkpt>
      <trkpt lat="44.05619" lon="5.937">
        <ele>533.79998779297</ele>
        <time>2017-04-09T09:02:46.000Z</time>
      </trkpt>
      <trkpt lat="44.05633" lon="5.93694">
        <ele>532.79998779297</ele>
        <time>2017-04-09T09:02:52.000Z</time>
      </trkpt>
      <trkpt lat="44.05636" lon="5.93693">
        <ele>532.59997558594</ele>
        <time>2017-04-09T09:02:53.000Z</time>
      </trkpt>
      <trkpt lat="44.05648" lon="5.93684">
        <ele>531.59997558594</ele>
        <time>2017-04-09T09:02:58.000Z</time>
      </trkpt>
      <trkpt lat="44.0566" lon="5.93684">
        <ele>530.59997558594</ele>
        <time>2017-04-09T09:03:01.000Z</time>
      </trkpt>
      <trkpt lat="44.05669" lon="5.93681">
        <ele>529.79998779297</ele>
        <time>2017-04-09T09:03:03.000Z</time>
      </trkpt>
      <trkpt lat="44.05691" lon="5.93687">
        <ele>527.59997558594</ele>
        <time>2017-04-09T09:03:08.000Z</time>
      </trkpt>
      <trkpt lat="44.057" lon="5.93683">
        <ele>526</ele>
        <time>2017-04-09T09:03:10.000Z</time>
      </trkpt>
      <trkpt lat="44.05705" lon="5.93681">
        <ele>525.20001220703</ele>
        <time>2017-04-09T09:03:11.000Z</time>
      </trkpt>
      <trkpt lat="44.05723" lon="5.93667">
        <ele>522</ele>
        <time>2017-04-09T09:03:15.000Z</time>
      </trkpt>
      <trkpt lat="44.05727" lon="5.93647">
        <ele>522.59997558594</ele>
        <time>2017-04-09T09:03:20.000Z</time>
      </trkpt>
      <trkpt lat="44.05719" lon="5.9364">
        <ele>524.20001220703</ele>
        <time>2017-04-09T09:03:23.000Z</time>
      </trkpt>
      <trkpt lat="44.05702" lon="5.93624">
        <ele>525.40002441406</ele>
        <time>2017-04-09T09:03:29.000Z</time>
      </trkpt>
      <trkpt lat="44.05684" lon="5.93611">
        <ele>526.59997558594</ele>
        <time>2017-04-09T09:03:34.000Z</time>
      </trkpt>
      <trkpt lat="44.05664" lon="5.93599">
        <ele>527.40002441406</ele>
        <time>2017-04-09T09:03:39.000Z</time>
      </trkpt>
      <trkpt lat="44.05649" lon="5.93587">
        <ele>527.79998779297</ele>
        <time>2017-04-09T09:03:45.000Z</time>
      </trkpt>
      <trkpt lat="44.05632" lon="5.93572">
        <ele>528.20001220703</ele>
        <time>2017-04-09T09:03:51.000Z</time>
      </trkpt>
      <trkpt lat="44.05616" lon="5.93559">
        <ele>528.59997558594</ele>
        <time>2017-04-09T09:04:00.000Z</time>
      </trkpt>
      <trkpt lat="44.05599" lon="5.93551">
        <ele>530</ele>
        <time>2017-04-09T09:04:10.000Z</time>
      </trkpt>
      <trkpt lat="44.0558" lon="5.93539">
        <ele>531.59997558594</ele>
        <time>2017-04-09T09:04:22.000Z</time>
      </trkpt>
      <trkpt lat="44.05565" lon="5.93529">
        <ele>533</ele>
        <time>2017-04-09T09:04:30.000Z</time>
      </trkpt>
      <trkpt lat="44.05548" lon="5.93516">
        <ele>534.20001220703</ele>
        <time>2017-04-09T09:04:39.000Z</time>
      </trkpt>
      <trkpt lat="44.05531" lon="5.93506">
        <ele>535.59997558594</ele>
        <time>2017-04-09T09:04:50.000Z</time>
      </trkpt>
      <trkpt lat="44.05514" lon="5.9349">
        <ele>536.79998779297</ele>
        <time>2017-04-09T09:05:04.000Z</time>
      </trkpt>
      <trkpt lat="44.05513" lon="5.93488">
        <ele>537</ele>
        <time>2017-04-09T09:05:05.000Z</time>
      </trkpt>
      <trkpt lat="44.05496" lon="5.93477">
        <ele>538.59997558594</ele>
        <time>2017-04-09T09:05:17.000Z</time>
      </trkpt>
      <trkpt lat="44.05482" lon="5.9346">
        <ele>539</ele>
        <time>2017-04-09T09:05:31.000Z</time>
      </trkpt>
      <trkpt lat="44.05469" lon="5.9345">
        <ele>540</ele>
        <time>2017-04-09T09:05:50.000Z</time>
      </trkpt>
      <trkpt lat="44.05461" lon="5.93438">
        <ele>539.79998779297</ele>
        <time>2017-04-09T09:05:55.000Z</time>
      </trkpt>
      <trkpt lat="44.05447" lon="5.93416">
        <ele>539.59997558594</ele>
        <time>2017-04-09T09:06:02.000Z</time>
      </trkpt>
      <trkpt lat="44.05433" lon="5.93398">
        <ele>539.40002441406</ele>
        <time>2017-04-09T09:06:07.000Z</time>
      </trkpt>
      <trkpt lat="44.05418" lon="5.93383">
        <ele>540</ele>
        <time>2017-04-09T09:06:13.000Z</time>
      </trkpt>
      <trkpt lat="44.05398" lon="5.93369">
        <ele>541.20001220703</ele>
        <time>2017-04-09T09:06:20.000Z</time>
      </trkpt>
      <trkpt lat="44.05383" lon="5.93353">
        <ele>541.20001220703</ele>
        <time>2017-04-09T09:06:25.000Z</time>
      </trkpt>
      <trkpt lat="44.05366" lon="5.9334">
        <ele>542</ele>
        <time>2017-04-09T09:06:31.000Z</time>
      </trkpt>
      <trkpt lat="44.05347" lon="5.93328">
        <ele>541.59997558594</ele>
        <time>2017-04-09T09:06:38.000Z</time>
      </trkpt>
      <trkpt lat="44.05329" lon="5.93316">
        <ele>540.59997558594</ele>
        <time>2017-04-09T09:06:45.000Z</time>
      </trkpt>
      <trkpt lat="44.05311" lon="5.93309">
        <ele>540</ele>
        <time>2017-04-09T09:06:52.000Z</time>
      </trkpt>
      <trkpt lat="44.05292" lon="5.93304">
        <ele>540.20001220703</ele>
        <time>2017-04-09T09:07:02.000Z</time>
      </trkpt>
      <trkpt lat="44.05274" lon="5.93303">
        <ele>540.79998779297</ele>
        <time>2017-04-09T09:07:11.000Z</time>
      </trkpt>
      <trkpt lat="44.05257" lon="5.93314">
        <ele>541.40002441406</ele>
        <time>2017-04-09T09:07:23.000Z</time>
      </trkpt>
      <trkpt lat="44.05242" lon="5.9333">
        <ele>542.59997558594</ele>
        <time>2017-04-09T09:07:35.000Z</time>
      </trkpt>
      <trkpt lat="44.05225" lon="5.93342">
        <ele>543.40002441406</ele>
        <time>2017-04-09T09:07:48.000Z</time>
      </trkpt>
      <trkpt lat="44.05209" lon="5.93353">
        <ele>542.59997558594</ele>
        <time>2017-04-09T09:08:00.000Z</time>
      </trkpt>
      <trkpt lat="44.05193" lon="5.93365">
        <ele>541.79998779297</ele>
        <time>2017-04-09T09:08:11.000Z</time>
      </trkpt>
      <trkpt lat="44.05176" lon="5.93361">
        <ele>541.59997558594</ele>
        <time>2017-04-09T09:08:15.000Z</time>
      </trkpt>
      <trkpt lat="44.05163" lon="5.93352">
        <ele>541.20001220703</ele>
        <time>2017-04-09T09:08:18.000Z</time>
      </trkpt>
      <trkpt lat="44.05144" lon="5.93367">
        <ele>540</ele>
        <time>2017-04-09T09:08:22.000Z</time>
      </trkpt>
      <trkpt lat="44.05128" lon="5.93383">
        <ele>538.59997558594</ele>
        <time>2017-04-09T09:08:26.000Z</time>
      </trkpt>
      <trkpt lat="44.05112" lon="5.93381">
        <ele>537.40002441406</ele>
        <time>2017-04-09T09:08:30.000Z</time>
      </trkpt>
      <trkpt lat="44.05107" lon="5.93371">
        <ele>537.40002441406</ele>
        <time>2017-04-09T09:08:32.000Z</time>
      </trkpt>
      <trkpt lat="44.05101" lon="5.93362">
        <ele>537.79998779297</ele>
        <time>2017-04-09T09:08:34.000Z</time>
      </trkpt>
      <trkpt lat="44.05085" lon="5.93348">
        <ele>538.40002441406</ele>
        <time>2017-04-09T09:08:39.000Z</time>
      </trkpt>
      <trkpt lat="44.05081" lon="5.93347">
        <ele>538.40002441406</ele>
        <time>2017-04-09T09:08:40.000Z</time>
      </trkpt>
      <trkpt lat="44.0506" lon="5.93342">
        <ele>538.79998779297</ele>
        <time>2017-04-09T09:08:46.000Z</time>
      </trkpt>
      <trkpt lat="44.05042" lon="5.93338">
        <ele>539</ele>
        <time>2017-04-09T09:08:51.000Z</time>
      </trkpt>
      <trkpt lat="44.05035" lon="5.93339">
        <ele>539.20001220703</ele>
        <time>2017-04-09T09:08:53.000Z</time>
      </trkpt>
      <trkpt lat="44.05018" lon="5.93348">
        <ele>539.20001220703</ele>
        <time>2017-04-09T09:08:57.000Z</time>
      </trkpt>
      <trkpt lat="44.05004" lon="5.93357">
        <ele>539</ele>
        <time>2017-04-09T09:09:00.000Z</time>
      </trkpt>
      <trkpt lat="44.04985" lon="5.9336">
        <ele>539.40002441406</ele>
        <time>2017-04-09T09:09:03.000Z</time>
      </trkpt>
      <trkpt lat="44.04967" lon="5.93362">
        <ele>539.79998779297</ele>
        <time>2017-04-09T09:09:06.000Z</time>
      </trkpt>
      <trkpt lat="44.04956" lon="5.93366">
        <ele>540</ele>
        <time>2017-04-09T09:09:08.000Z</time>
      </trkpt>
      <trkpt lat="44.04939" lon="5.93378">
        <ele>540</ele>
        <time>2017-04-09T09:09:12.000Z</time>
      </trkpt>
      <trkpt lat="44.04922" lon="5.93391">
        <ele>538</ele>
        <time>2017-04-09T09:09:17.000Z</time>
      </trkpt>
      <trkpt lat="44.04905" lon="5.93404">
        <ele>536.20001220703</ele>
        <time>2017-04-09T09:09:22.000Z</time>
      </trkpt>
      <trkpt lat="44.04889" lon="5.93417">
        <ele>534.59997558594</ele>
        <time>2017-04-09T09:09:27.000Z</time>
      </trkpt>
      <trkpt lat="44.04882" lon="5.93423">
        <ele>533.59997558594</ele>
        <time>2017-04-09T09:09:29.000Z</time>
      </trkpt>
      <trkpt lat="44.04866" lon="5.9343">
        <ele>531.79998779297</ele>
        <time>2017-04-09T09:09:33.000Z</time>
      </trkpt>
      <trkpt lat="44.04857" lon="5.93433">
        <ele>530.79998779297</ele>
        <time>2017-04-09T09:09:35.000Z</time>
      </trkpt>
      <trkpt lat="44.04841" lon="5.93424">
        <ele>530.40002441406</ele>
        <time>2017-04-09T09:09:39.000Z</time>
      </trkpt>
      <trkpt lat="44.04838" lon="5.93418">
        <ele>530.40002441406</ele>
        <time>2017-04-09T09:09:40.000Z</time>
      </trkpt>
      <trkpt lat="44.04831" lon="5.93405">
        <ele>530.40002441406</ele>
        <time>2017-04-09T09:09:42.000Z</time>
      </trkpt>
      <trkpt lat="44.04819" lon="5.93378">
        <ele>531.79998779297</ele>
        <time>2017-04-09T09:09:46.000Z</time>
      </trkpt>
      <trkpt lat="44.04813" lon="5.93363">
        <ele>533.40002441406</ele>
        <time>2017-04-09T09:09:48.000Z</time>
      </trkpt>
      <trkpt lat="44.04811" lon="5.93334">
        <ele>536.59997558594</ele>
        <time>2017-04-09T09:09:52.000Z</time>
      </trkpt>
      <trkpt lat="44.04825" lon="5.93313">
        <ele>537.40002441406</ele>
        <time>2017-04-09T09:09:56.000Z</time>
      </trkpt>
      <trkpt lat="44.04831" lon="5.93296">
        <ele>538.79998779297</ele>
        <time>2017-04-09T09:09:59.000Z</time>
      </trkpt>
      <trkpt lat="44.04836" lon="5.9327">
        <ele>540.59997558594</ele>
        <time>2017-04-09T09:10:04.000Z</time>
      </trkpt>
      <trkpt lat="44.04838" lon="5.93243">
        <ele>542.20001220703</ele>
        <time>2017-04-09T09:10:10.000Z</time>
      </trkpt>
      <trkpt lat="44.04829" lon="5.93221">
        <ele>544</ele>
        <time>2017-04-09T09:10:16.000Z</time>
      </trkpt>
      <trkpt lat="44.04814" lon="5.93207">
        <ele>545.79998779297</ele>
        <time>2017-04-09T09:10:22.000Z</time>
      </trkpt>
      <trkpt lat="44.04797" lon="5.93196">
        <ele>547.79998779297</ele>
        <time>2017-04-09T09:10:29.000Z</time>
      </trkpt>
      <trkpt lat="44.04784" lon="5.93177">
        <ele>549.79998779297</ele>
        <time>2017-04-09T09:10:36.000Z</time>
      </trkpt>
      <trkpt lat="44.04773" lon="5.93156">
        <ele>551.79998779297</ele>
        <time>2017-04-09T09:10:44.000Z</time>
      </trkpt>
      <trkpt lat="44.04761" lon="5.93134">
        <ele>553</ele>
        <time>2017-04-09T09:10:53.000Z</time>
      </trkpt>
      <trkpt lat="44.04751" lon="5.93113">
        <ele>553.59997558594</ele>
        <time>2017-04-09T09:11:00.000Z</time>
      </trkpt>
      <trkpt lat="44.04745" lon="5.93088">
        <ele>554.20001220703</ele>
        <time>2017-04-09T09:11:08.000Z</time>
      </trkpt>
      <trkpt lat="44.04747" lon="5.93086">
        <ele>554.40002441406</ele>
        <time>2017-04-09T09:11:09.000Z</time>
      </trkpt>
      <trkpt lat="44.04755" lon="5.9308">
        <ele>554.40002441406</ele>
        <time>2017-04-09T09:11:13.000Z</time>
      </trkpt>
      <trkpt lat="44.04772" lon="5.93068">
        <ele>554.79998779297</ele>
        <time>2017-04-09T09:11:20.000Z</time>
      </trkpt>
      <trkpt lat="44.04785" lon="5.93051">
        <ele>555.20001220703</ele>
        <time>2017-04-09T09:11:28.000Z</time>
      </trkpt>
      <trkpt lat="44.04788" lon="5.93041">
        <ele>555.79998779297</ele>
        <time>2017-04-09T09:11:33.000Z</time>
      </trkpt>
      <trkpt lat="44.04798" lon="5.93036">
        <ele>556</ele>
        <time>2017-04-09T09:11:39.000Z</time>
      </trkpt>
      <trkpt lat="44.04807" lon="5.93032">
        <ele>556</ele>
        <time>2017-04-09T09:11:43.000Z</time>
      </trkpt>
      <trkpt lat="44.04801" lon="5.93037">
        <ele>555.79998779297</ele>
        <time>2017-04-09T09:25:38.000Z</time>
      </trkpt>
      <trkpt lat="44.0478" lon="5.93042">
        <ele>556</ele>
        <time>2017-04-09T09:25:46.000Z</time>
      </trkpt>
      <trkpt lat="44.04761" lon="5.93053">
        <ele>555.40002441406</ele>
        <time>2017-04-09T09:25:53.000Z</time>
      </trkpt>
      <trkpt lat="44.04742" lon="5.93062">
        <ele>554.79998779297</ele>
        <time>2017-04-09T09:25:58.000Z</time>
      </trkpt>
      <trkpt lat="44.04732" lon="5.93066">
        <ele>554.79998779297</ele>
        <time>2017-04-09T09:26:00.000Z</time>
      </trkpt>
      <trkpt lat="44.04719" lon="5.93084">
        <ele>554.40002441406</ele>
        <time>2017-04-09T09:26:05.000Z</time>
      </trkpt>
      <trkpt lat="44.047" lon="5.93093">
        <ele>553.79998779297</ele>
        <time>2017-04-09T09:26:13.000Z</time>
      </trkpt>
      <trkpt lat="44.04681" lon="5.93089">
        <ele>553.59997558594</ele>
        <time>2017-04-09T09:26:22.000Z</time>
      </trkpt>
      <trkpt lat="44.0467" lon="5.93086">
        <ele>553.40002441406</ele>
        <time>2017-04-09T09:26:28.000Z</time>
      </trkpt>
      <trkpt lat="44.0467" lon="5.93084">
        <ele>553.40002441406</ele>
        <time>2017-04-09T09:26:29.000Z</time>
      </trkpt>
      <trkpt lat="44.04667" lon="5.93079">
        <ele>553.59997558594</ele>
        <time>2017-04-09T09:26:31.000Z</time>
      </trkpt>
      <trkpt lat="44.0466" lon="5.93056">
        <ele>554.20001220703</ele>
        <time>2017-04-09T09:26:40.000Z</time>
      </trkpt>
      <trkpt lat="44.04652" lon="5.93046">
        <ele>555</ele>
        <time>2017-04-09T09:26:47.000Z</time>
      </trkpt>
      <trkpt lat="44.04633" lon="5.9304">
        <ele>555</ele>
        <time>2017-04-09T09:26:56.000Z</time>
      </trkpt>
      <trkpt lat="44.0463" lon="5.93033">
        <ele>555.59997558594</ele>
        <time>2017-04-09T09:26:59.000Z</time>
      </trkpt>
      <trkpt lat="44.04634" lon="5.93018">
        <ele>556.79998779297</ele>
        <time>2017-04-09T09:27:07.000Z</time>
      </trkpt>
      <trkpt lat="44.04649" lon="5.9301">
        <ele>558</ele>
        <time>2017-04-09T09:27:15.000Z</time>
      </trkpt>
      <trkpt lat="44.04646" lon="5.92998">
        <ele>558.79998779297</ele>
        <time>2017-04-09T09:27:22.000Z</time>
      </trkpt>
      <trkpt lat="44.04643" lon="5.92994">
        <ele>559.20001220703</ele>
        <time>2017-04-09T09:27:26.000Z</time>
      </trkpt>
      <trkpt lat="44.04643" lon="5.92985">
        <ele>559.79998779297</ele>
        <time>2017-04-09T09:27:31.000Z</time>
      </trkpt>
      <trkpt lat="44.04646" lon="5.92969">
        <ele>561.59997558594</ele>
        <time>2017-04-09T09:27:39.000Z</time>
      </trkpt>
      <trkpt lat="44.04647" lon="5.92963">
        <ele>562.40002441406</ele>
        <time>2017-04-09T09:27:42.000Z</time>
      </trkpt>
      <trkpt lat="44.04639" lon="5.92946">
        <ele>564.40002441406</ele>
        <time>2017-04-09T09:27:55.000Z</time>
      </trkpt>
      <trkpt lat="44.04635" lon="5.92943">
        <ele>564.79998779297</ele>
        <time>2017-04-09T09:27:58.000Z</time>
      </trkpt>
      <trkpt lat="44.0464" lon="5.92932">
        <ele>566.20001220703</ele>
        <time>2017-04-09T09:28:07.000Z</time>
      </trkpt>
      <trkpt lat="44.04648" lon="5.92929">
        <ele>566.79998779297</ele>
        <time>2017-04-09T09:28:11.000Z</time>
      </trkpt>
      <trkpt lat="44.04668" lon="5.92926">
        <ele>566.59997558594</ele>
        <time>2017-04-09T09:28:19.000Z</time>
      </trkpt>
      <trkpt lat="44.04687" lon="5.92921">
        <ele>566.59997558594</ele>
        <time>2017-04-09T09:28:25.000Z</time>
      </trkpt>
      <trkpt lat="44.04696" lon="5.92923">
        <ele>566.20001220703</ele>
        <time>2017-04-09T09:28:28.000Z</time>
      </trkpt>
      <trkpt lat="44.04708" lon="5.92918">
        <ele>566.40002441406</ele>
        <time>2017-04-09T09:28:32.000Z</time>
      </trkpt>
      <trkpt lat="44.04724" lon="5.92908">
        <ele>567</ele>
        <time>2017-04-09T09:28:40.000Z</time>
      </trkpt>
      <trkpt lat="44.04725" lon="5.929">
        <ele>567.59997558594</ele>
        <time>2017-04-09T09:28:44.000Z</time>
      </trkpt>
      <trkpt lat="44.04726" lon="5.92893">
        <ele>568</ele>
        <time>2017-04-09T09:28:48.000Z</time>
      </trkpt>
      <trkpt lat="44.0473" lon="5.92883">
        <ele>569</ele>
        <time>2017-04-09T09:28:53.000Z</time>
      </trkpt>
      <trkpt lat="44.04729" lon="5.92882">
        <ele>569.40002441406</ele>
        <time>2017-04-09T09:28:54.000Z</time>
      </trkpt>
      <trkpt lat="44.04726" lon="5.92875">
        <ele>570.20001220703</ele>
        <time>2017-04-09T09:28:58.000Z</time>
      </trkpt>
      <trkpt lat="44.04726" lon="5.92863">
        <ele>571.79998779297</ele>
        <time>2017-04-09T09:29:05.000Z</time>
      </trkpt>
      <trkpt lat="44.04727" lon="5.92854">
        <ele>573</ele>
        <time>2017-04-09T09:29:09.000Z</time>
      </trkpt>
      <trkpt lat="44.04733" lon="5.9283">
        <ele>575.79998779297</ele>
        <time>2017-04-09T09:29:19.000Z</time>
      </trkpt>
      <trkpt lat="44.04734" lon="5.92821">
        <ele>576.79998779297</ele>
        <time>2017-04-09T09:29:23.000Z</time>
      </trkpt>
      <trkpt lat="44.04735" lon="5.92814">
        <ele>577.59997558594</ele>
        <time>2017-04-09T09:29:27.000Z</time>
      </trkpt>
      <trkpt lat="44.04728" lon="5.92795">
        <ele>580</ele>
        <time>2017-04-09T09:29:40.000Z</time>
      </trkpt>
      <trkpt lat="44.0472" lon="5.92782">
        <ele>581.40002441406</ele>
        <time>2017-04-09T09:29:48.000Z</time>
      </trkpt>
      <trkpt lat="44.04717" lon="5.92757">
        <ele>584</ele>
        <time>2017-04-09T09:30:02.000Z</time>
      </trkpt>
      <trkpt lat="44.04727" lon="5.92737">
        <ele>585.79998779297</ele>
        <time>2017-04-09T09:30:25.000Z</time>
      </trkpt>
      <trkpt lat="44.04742" lon="5.92738">
        <ele>585.40002441406</ele>
        <time>2017-04-09T09:30:35.000Z</time>
      </trkpt>
      <trkpt lat="44.04756" lon="5.92737">
        <ele>585</ele>
        <time>2017-04-09T09:30:43.000Z</time>
      </trkpt>
      <trkpt lat="44.04773" lon="5.92723">
        <ele>586.20001220703</ele>
        <time>2017-04-09T09:30:51.000Z</time>
      </trkpt>
      <trkpt lat="44.04783" lon="5.92702">
        <ele>588.20001220703</ele>
        <time>2017-04-09T09:30:58.000Z</time>
      </trkpt>
      <trkpt lat="44.04788" lon="5.92679">
        <ele>590.79998779297</ele>
        <time>2017-04-09T09:31:07.000Z</time>
      </trkpt>
      <trkpt lat="44.04789" lon="5.92675">
        <ele>591.20001220703</ele>
        <time>2017-04-09T09:31:09.000Z</time>
      </trkpt>
      <trkpt lat="44.04785" lon="5.92659">
        <ele>593</ele>
        <time>2017-04-09T09:31:17.000Z</time>
      </trkpt>
      <trkpt lat="44.04769" lon="5.92645">
        <ele>594.79998779297</ele>
        <time>2017-04-09T09:31:31.000Z</time>
      </trkpt>
      <trkpt lat="44.04763" lon="5.92644">
        <ele>595.20001220703</ele>
        <time>2017-04-09T09:31:37.000Z</time>
      </trkpt>
      <trkpt lat="44.0476" lon="5.92631">
        <ele>596.59997558594</ele>
        <time>2017-04-09T09:31:43.000Z</time>
      </trkpt>
      <trkpt lat="44.04759" lon="5.92628">
        <ele>597</ele>
        <time>2017-04-09T09:31:44.000Z</time>
      </trkpt>
      <trkpt lat="44.04749" lon="5.92606">
        <ele>599.40002441406</ele>
        <time>2017-04-09T09:31:54.000Z</time>
      </trkpt>
      <trkpt lat="44.0474" lon="5.92585">
        <ele>601.59997558594</ele>
        <time>2017-04-09T09:32:03.000Z</time>
      </trkpt>
      <trkpt lat="44.04735" lon="5.92576">
        <ele>602.59997558594</ele>
        <time>2017-04-09T09:32:07.000Z</time>
      </trkpt>
      <trkpt lat="44.04732" lon="5.92573">
        <ele>603</ele>
        <time>2017-04-09T09:32:10.000Z</time>
      </trkpt>
      <trkpt lat="44.04729" lon="5.92571">
        <ele>603.40002441406</ele>
        <time>2017-04-09T09:32:12.000Z</time>
      </trkpt>
      <trkpt lat="44.04724" lon="5.92575">
        <ele>603.40002441406</ele>
        <time>2017-04-09T09:32:17.000Z</time>
      </trkpt>
      <trkpt lat="44.0472" lon="5.92577">
        <ele>603.59997558594</ele>
        <time>2017-04-09T09:32:21.000Z</time>
      </trkpt>
      <trkpt lat="44.04705" lon="5.92574">
        <ele>604.79998779297</ele>
        <time>2017-04-09T09:32:30.000Z</time>
      </trkpt>
      <trkpt lat="44.04702" lon="5.9255">
        <ele>607</ele>
        <time>2017-04-09T09:32:42.000Z</time>
      </trkpt>
      <trkpt lat="44.0471" lon="5.92526">
        <ele>608.40002441406</ele>
        <time>2017-04-09T09:32:53.000Z</time>
      </trkpt>
      <trkpt lat="44.04721" lon="5.92506">
        <ele>609.20001220703</ele>
        <time>2017-04-09T09:33:03.000Z</time>
      </trkpt>
      <trkpt lat="44.04727" lon="5.92486">
        <ele>609.40002441406</ele>
        <time>2017-04-09T09:33:13.000Z</time>
      </trkpt>
      <trkpt lat="44.04736" lon="5.92474">
        <ele>608.79998779297</ele>
        <time>2017-04-09T09:33:18.000Z</time>
      </trkpt>
      <trkpt lat="44.04747" lon="5.92453">
        <ele>609.40002441406</ele>
        <time>2017-04-09T09:33:29.000Z</time>
      </trkpt>
      <trkpt lat="44.04766" lon="5.92443">
        <ele>608.79998779297</ele>
        <time>2017-04-09T09:33:40.000Z</time>
      </trkpt>
      <trkpt lat="44.04784" lon="5.9244">
        <ele>608.40002441406</ele>
        <time>2017-04-09T09:33:48.000Z</time>
      </trkpt>
      <trkpt lat="44.04787" lon="5.92439">
        <ele>608.59997558594</ele>
        <time>2017-04-09T09:33:50.000Z</time>
      </trkpt>
      <trkpt lat="44.04782" lon="5.92434">
        <ele>609.20001220703</ele>
        <time>2017-04-09T09:33:55.000Z</time>
      </trkpt>
      <trkpt lat="44.04765" lon="5.92425">
        <ele>611.40002441406</ele>
        <time>2017-04-09T09:34:07.000Z</time>
      </trkpt>
      <trkpt lat="44.04746" lon="5.92421">
        <ele>613.59997558594</ele>
        <time>2017-04-09T09:34:19.000Z</time>
      </trkpt>
      <trkpt lat="44.04744" lon="5.92418">
        <ele>614</ele>
        <time>2017-04-09T09:34:21.000Z</time>
      </trkpt>
      <trkpt lat="44.04746" lon="5.92394">
        <ele>617.20001220703</ele>
        <time>2017-04-09T09:34:37.000Z</time>
      </trkpt>
      <trkpt lat="44.04743" lon="5.92384">
        <ele>618.40002441406</ele>
        <time>2017-04-09T09:34:44.000Z</time>
      </trkpt>
      <trkpt lat="44.04743" lon="5.92379">
        <ele>619</ele>
        <time>2017-04-09T09:34:48.000Z</time>
      </trkpt>
      <trkpt lat="44.04738" lon="5.92356">
        <ele>621.79998779297</ele>
        <time>2017-04-09T09:36:32.000Z</time>
      </trkpt>
      <trkpt lat="44.04727" lon="5.92337">
        <ele>624.59997558594</ele>
        <time>2017-04-09T09:36:43.000Z</time>
      </trkpt>
      <trkpt lat="44.04711" lon="5.92321">
        <ele>627.79998779297</ele>
        <time>2017-04-09T09:36:53.000Z</time>
      </trkpt>
      <trkpt lat="44.04709" lon="5.92315">
        <ele>628.40002441406</ele>
        <time>2017-04-09T09:36:56.000Z</time>
      </trkpt>
      <trkpt lat="44.0472" lon="5.9229">
        <ele>629</ele>
        <time>2017-04-09T09:37:03.000Z</time>
      </trkpt>
      <trkpt lat="44.04721" lon="5.92286">
        <ele>629.20001220703</ele>
        <time>2017-04-09T09:37:04.000Z</time>
      </trkpt>
      <trkpt lat="44.0473" lon="5.92274">
        <ele>629.20001220703</ele>
        <time>2017-04-09T09:37:10.000Z</time>
      </trkpt>
      <trkpt lat="44.04739" lon="5.92254">
        <ele>628.79998779297</ele>
        <time>2017-04-09T09:37:17.000Z</time>
      </trkpt>
      <trkpt lat="44.0474" lon="5.92245">
        <ele>628.79998779297</ele>
        <time>2017-04-09T09:37:21.000Z</time>
      </trkpt>
      <trkpt lat="44.04742" lon="5.92224">
        <ele>628.79998779297</ele>
        <time>2017-04-09T09:37:28.000Z</time>
      </trkpt>
      <trkpt lat="44.04751" lon="5.9221">
        <ele>628.20001220703</ele>
        <time>2017-04-09T09:37:34.000Z</time>
      </trkpt>
      <trkpt lat="44.04759" lon="5.92199">
        <ele>627</ele>
        <time>2017-04-09T09:37:37.000Z</time>
      </trkpt>
      <trkpt lat="44.04773" lon="5.92183">
        <ele>624.59997558594</ele>
        <time>2017-04-09T09:37:41.000Z</time>
      </trkpt>
      <trkpt lat="44.04777" lon="5.92179">
        <ele>624</ele>
        <time>2017-04-09T09:37:42.000Z</time>
      </trkpt>
      <trkpt lat="44.04787" lon="5.92157">
        <ele>623.59997558594</ele>
        <time>2017-04-09T09:37:48.000Z</time>
      </trkpt>
      <trkpt lat="44.04787" lon="5.92154">
        <ele>623.79998779297</ele>
        <time>2017-04-09T09:37:49.000Z</time>
      </trkpt>
      <trkpt lat="44.04785" lon="5.92145">
        <ele>624.20001220703</ele>
        <time>2017-04-09T09:37:53.000Z</time>
      </trkpt>
      <trkpt lat="44.0479" lon="5.92125">
        <ele>623.40002441406</ele>
        <time>2017-04-09T09:37:58.000Z</time>
      </trkpt>
      <trkpt lat="44.04788" lon="5.92108">
        <ele>624.20001220703</ele>
        <time>2017-04-09T09:38:02.000Z</time>
      </trkpt>
      <trkpt lat="44.04778" lon="5.92097">
        <ele>626.59997558594</ele>
        <time>2017-04-09T09:38:07.000Z</time>
      </trkpt>
      <trkpt lat="44.04779" lon="5.92081">
        <ele>626.79998779297</ele>
        <time>2017-04-09T09:38:11.000Z</time>
      </trkpt>
      <trkpt lat="44.04779" lon="5.92054">
        <ele>627.40002441406</ele>
        <time>2017-04-09T09:38:19.000Z</time>
      </trkpt>
      <trkpt lat="44.0478" lon="5.92046">
        <ele>627.59997558594</ele>
        <time>2017-04-09T09:38:21.000Z</time>
      </trkpt>
      <trkpt lat="44.04788" lon="5.92023">
        <ele>627</ele>
        <time>2017-04-09T09:38:30.000Z</time>
      </trkpt>
      <trkpt lat="44.04784" lon="5.92018">
        <ele>628</ele>
        <time>2017-04-09T09:38:34.000Z</time>
      </trkpt>
      <trkpt lat="44.04783" lon="5.92012">
        <ele>628.59997558594</ele>
        <time>2017-04-09T09:38:38.000Z</time>
      </trkpt>
      <trkpt lat="44.04789" lon="5.91989">
        <ele>628.40002441406</ele>
        <time>2017-04-09T09:38:46.000Z</time>
      </trkpt>
      <trkpt lat="44.04788" lon="5.91985">
        <ele>628.79998779297</ele>
        <time>2017-04-09T09:38:48.000Z</time>
      </trkpt>
      <trkpt lat="44.04782" lon="5.91961">
        <ele>630.79998779297</ele>
        <time>2017-04-09T09:39:01.000Z</time>
      </trkpt>
      <trkpt lat="44.0478" lon="5.91957">
        <ele>631.40002441406</ele>
        <time>2017-04-09T09:39:03.000Z</time>
      </trkpt>
      <trkpt lat="44.0477" lon="5.91936">
        <ele>634.79998779297</ele>
        <time>2017-04-09T09:39:14.000Z</time>
      </trkpt>
      <trkpt lat="44.04771" lon="5.91922">
        <ele>634.59997558594</ele>
        <time>2017-04-09T09:39:19.000Z</time>
      </trkpt>
      <trkpt lat="44.04772" lon="5.91916">
        <ele>634.40002441406</ele>
        <time>2017-04-09T09:39:21.000Z</time>
      </trkpt>
      <trkpt lat="44.04765" lon="5.91921">
        <ele>636.40002441406</ele>
        <time>2017-04-09T09:39:38.000Z</time>
      </trkpt>
      <trkpt lat="44.0477" lon="5.91937">
        <ele>634.59997558594</ele>
        <time>2017-04-09T09:39:42.000Z</time>
      </trkpt>
      <trkpt lat="44.04768" lon="5.91951">
        <ele>634.79998779297</ele>
        <time>2017-04-09T09:39:45.000Z</time>
      </trkpt>
      <trkpt lat="44.04764" lon="5.91947">
        <ele>636</ele>
        <time>2017-04-09T09:39:50.000Z</time>
      </trkpt>
      <trkpt lat="44.0476" lon="5.91941">
        <ele>637.59997558594</ele>
        <time>2017-04-09T09:39:54.000Z</time>
      </trkpt>
      <trkpt lat="44.04754" lon="5.91936">
        <ele>639.40002441406</ele>
        <time>2017-04-09T09:39:58.000Z</time>
      </trkpt>
      <trkpt lat="44.04752" lon="5.91933">
        <ele>640</ele>
        <time>2017-04-09T09:40:00.000Z</time>
      </trkpt>
      <trkpt lat="44.04751" lon="5.91914">
        <ele>641</ele>
        <time>2017-04-09T09:40:09.000Z</time>
      </trkpt>
      <trkpt lat="44.04748" lon="5.91901">
        <ele>642</ele>
        <time>2017-04-09T09:40:16.000Z</time>
      </trkpt>
      <trkpt lat="44.04743" lon="5.91877">
        <ele>643.79998779297</ele>
        <time>2017-04-09T09:40:40.000Z</time>
      </trkpt>
      <trkpt lat="44.0474" lon="5.91868">
        <ele>644.59997558594</ele>
        <time>2017-04-09T09:40:43.000Z</time>
      </trkpt>
      <trkpt lat="44.04742" lon="5.91862">
        <ele>643.79998779297</ele>
        <time>2017-04-09T09:40:47.000Z</time>
      </trkpt>
      <trkpt lat="44.0476" lon="5.91855">
        <ele>639.79998779297</ele>
        <time>2017-04-09T09:41:01.000Z</time>
      </trkpt>
      <trkpt lat="44.04776" lon="5.91844">
        <ele>636.79998779297</ele>
        <time>2017-04-09T09:41:09.000Z</time>
      </trkpt>
      <trkpt lat="44.04793" lon="5.91834">
        <ele>633.79998779297</ele>
        <time>2017-04-09T09:41:19.000Z</time>
      </trkpt>
      <trkpt lat="44.04805" lon="5.9183">
        <ele>632.40002441406</ele>
        <time>2017-04-09T09:41:26.000Z</time>
      </trkpt>
      <trkpt lat="44.04814" lon="5.91823">
        <ele>632.79998779297</ele>
        <time>2017-04-09T09:41:31.000Z</time>
      </trkpt>
      <trkpt lat="44.04818" lon="5.91823">
        <ele>632.59997558594</ele>
        <time>2017-04-09T09:41:34.000Z</time>
      </trkpt>
      <trkpt lat="44.04825" lon="5.91822">
        <ele>632.20001220703</ele>
        <time>2017-04-09T09:41:38.000Z</time>
      </trkpt>
      <trkpt lat="44.04842" lon="5.91814">
        <ele>632.20001220703</ele>
        <time>2017-04-09T09:41:48.000Z</time>
      </trkpt>
      <trkpt lat="44.0486" lon="5.91804">
        <ele>632.20001220703</ele>
        <time>2017-04-09T09:41:58.000Z</time>
      </trkpt>
      <trkpt lat="44.04873" lon="5.91787">
        <ele>632.20001220703</ele>
        <time>2017-04-09T09:42:06.000Z</time>
      </trkpt>
      <trkpt lat="44.04886" lon="5.91767">
        <ele>632.59997558594</ele>
        <time>2017-04-09T09:42:14.000Z</time>
      </trkpt>
      <trkpt lat="44.04893" lon="5.91757">
        <ele>632.59997558594</ele>
        <time>2017-04-09T09:42:18.000Z</time>
      </trkpt>
      <trkpt lat="44.04891" lon="5.91734">
        <ele>636.40002441406</ele>
        <time>2017-04-09T09:42:25.000Z</time>
      </trkpt>
      <trkpt lat="44.0489" lon="5.91719">
        <ele>638.40002441406</ele>
        <time>2017-04-09T09:42:29.000Z</time>
      </trkpt>
      <trkpt lat="44.04893" lon="5.91693">
        <ele>638</ele>
        <time>2017-04-09T09:42:35.000Z</time>
      </trkpt>
      <trkpt lat="44.04901" lon="5.91669">
        <ele>637</ele>
        <time>2017-04-09T09:42:41.000Z</time>
      </trkpt>
      <trkpt lat="44.04901" lon="5.91665">
        <ele>637</ele>
        <time>2017-04-09T09:42:42.000Z</time>
      </trkpt>
      <trkpt lat="44.04899" lon="5.91655">
        <ele>637.79998779297</ele>
        <time>2017-04-09T09:42:46.000Z</time>
      </trkpt>
      <trkpt lat="44.04885" lon="5.91635">
        <ele>641</ele>
        <time>2017-04-09T09:43:28.000Z</time>
      </trkpt>
      <trkpt lat="44.04876" lon="5.91625">
        <ele>642.79998779297</ele>
        <time>2017-04-09T09:43:32.000Z</time>
      </trkpt>
      <trkpt lat="44.04883" lon="5.91606">
        <ele>641.40002441406</ele>
        <time>2017-04-09T09:43:38.000Z</time>
      </trkpt>
      <trkpt lat="44.04887" lon="5.91593">
        <ele>640.59997558594</ele>
        <time>2017-04-09T09:43:43.000Z</time>
      </trkpt>
      <trkpt lat="44.04895" lon="5.91583">
        <ele>638.79998779297</ele>
        <time>2017-04-09T09:43:47.000Z</time>
      </trkpt>
      <trkpt lat="44.04892" lon="5.91569">
        <ele>639</ele>
        <time>2017-04-09T09:43:52.000Z</time>
      </trkpt>
      <trkpt lat="44.04899" lon="5.91558">
        <ele>637</ele>
        <time>2017-04-09T09:43:57.000Z</time>
      </trkpt>
      <trkpt lat="44.04892" lon="5.91541">
        <ele>638.59997558594</ele>
        <time>2017-04-09T09:44:08.000Z</time>
      </trkpt>
      <trkpt lat="44.04899" lon="5.91519">
        <ele>636.79998779297</ele>
        <time>2017-04-09T09:44:18.000Z</time>
      </trkpt>
      <trkpt lat="44.0491" lon="5.91496">
        <ele>635</ele>
        <time>2017-04-09T09:44:29.000Z</time>
      </trkpt>
      <trkpt lat="44.04916" lon="5.91487">
        <ele>634.20001220703</ele>
        <time>2017-04-09T09:44:34.000Z</time>
      </trkpt>
      <trkpt lat="44.04914" lon="5.91465">
        <ele>634.59997558594</ele>
        <time>2017-04-09T09:44:47.000Z</time>
      </trkpt>
      <trkpt lat="44.04906" lon="5.91447">
        <ele>635.79998779297</ele>
        <time>2017-04-09T09:44:55.000Z</time>
      </trkpt>
      <trkpt lat="44.049" lon="5.91423">
        <ele>636.59997558594</ele>
        <time>2017-04-09T09:45:02.000Z</time>
      </trkpt>
      <trkpt lat="44.04898" lon="5.91417">
        <ele>636.79998779297</ele>
        <time>2017-04-09T09:45:04.000Z</time>
      </trkpt>
      <trkpt lat="44.04895" lon="5.91408">
        <ele>637.40002441406</ele>
        <time>2017-04-09T09:45:07.000Z</time>
      </trkpt>
      <trkpt lat="44.04883" lon="5.91394">
        <ele>639.40002441406</ele>
        <time>2017-04-09T09:45:13.000Z</time>
      </trkpt>
      <trkpt lat="44.04883" lon="5.91391">
        <ele>639.40002441406</ele>
        <time>2017-04-09T09:45:14.000Z</time>
      </trkpt>
      <trkpt lat="44.04882" lon="5.9138">
        <ele>639.20001220703</ele>
        <time>2017-04-09T09:45:18.000Z</time>
      </trkpt>
      <trkpt lat="44.0488" lon="5.91376">
        <ele>639.40002441406</ele>
        <time>2017-04-09T09:45:20.000Z</time>
      </trkpt>
      <trkpt lat="44.0487" lon="5.91364">
        <ele>641</ele>
        <time>2017-04-09T09:45:28.000Z</time>
      </trkpt>
      <trkpt lat="44.04867" lon="5.91361">
        <ele>641.40002441406</ele>
        <time>2017-04-09T09:45:30.000Z</time>
      </trkpt>
      <trkpt lat="44.04859" lon="5.91347">
        <ele>642.40002441406</ele>
        <time>2017-04-09T09:45:44.000Z</time>
      </trkpt>
      <trkpt lat="44.04844" lon="5.91335">
        <ele>645.20001220703</ele>
        <time>2017-04-09T09:45:51.000Z</time>
      </trkpt>
      <trkpt lat="44.04838" lon="5.91312">
        <ele>645.40002441406</ele>
        <time>2017-04-09T09:46:03.000Z</time>
      </trkpt>
      <trkpt lat="44.04836" lon="5.91296">
        <ele>645.59997558594</ele>
        <time>2017-04-09T09:46:12.000Z</time>
      </trkpt>
      <trkpt lat="44.04851" lon="5.91282">
        <ele>642.59997558594</ele>
        <time>2017-04-09T09:46:26.000Z</time>
      </trkpt>
      <trkpt lat="44.04859" lon="5.91267">
        <ele>641.20001220703</ele>
        <time>2017-04-09T09:46:36.000Z</time>
      </trkpt>
      <trkpt lat="44.0485" lon="5.91265">
        <ele>642.79998779297</ele>
        <time>2017-04-09T09:46:42.000Z</time>
      </trkpt>
      <trkpt lat="44.0484" lon="5.91273">
        <ele>644.40002441406</ele>
        <time>2017-04-09T09:46:54.000Z</time>
      </trkpt>
      <trkpt lat="44.04823" lon="5.91264">
        <ele>647.59997558594</ele>
        <time>2017-04-09T09:47:06.000Z</time>
      </trkpt>
      <trkpt lat="44.04808" lon="5.91248">
        <ele>650.20001220703</ele>
        <time>2017-04-09T09:47:20.000Z</time>
      </trkpt>
      <trkpt lat="44.0479" lon="5.91243">
        <ele>653.59997558594</ele>
        <time>2017-04-09T09:47:34.000Z</time>
      </trkpt>
      <trkpt lat="44.04774" lon="5.9124">
        <ele>656.59997558594</ele>
        <time>2017-04-09T09:47:48.000Z</time>
      </trkpt>
      <trkpt lat="44.04766" lon="5.91225">
        <ele>657.59997558594</ele>
        <time>2017-04-09T09:48:02.000Z</time>
      </trkpt>
      <trkpt lat="44.04762" lon="5.91229">
        <ele>658.40002441406</ele>
        <time>2017-04-09T09:48:09.000Z</time>
      </trkpt>
      <trkpt lat="44.04757" lon="5.91224">
        <ele>659</ele>
        <time>2017-04-09T09:48:15.000Z</time>
      </trkpt>
      <trkpt lat="44.04751" lon="5.91202">
        <ele>660.40002441406</ele>
        <time>2017-04-09T09:48:30.000Z</time>
      </trkpt>
      <trkpt lat="44.04744" lon="5.91182">
        <ele>661.79998779297</ele>
        <time>2017-04-09T09:48:43.000Z</time>
      </trkpt>
      <trkpt lat="44.0473" lon="5.9119">
        <ele>664</ele>
        <time>2017-04-09T09:49:04.000Z</time>
      </trkpt>
      <trkpt lat="44.04727" lon="5.91192">
        <ele>664.20001220703</ele>
        <time>2017-04-09T09:49:06.000Z</time>
      </trkpt>
      <trkpt lat="44.04721" lon="5.91198">
        <ele>665.20001220703</ele>
        <time>2017-04-09T09:49:11.000Z</time>
      </trkpt>
      <trkpt lat="44.04718" lon="5.91202">
        <ele>665.40002441406</ele>
        <time>2017-04-09T09:49:14.000Z</time>
      </trkpt>
      <trkpt lat="44.0471" lon="5.91224">
        <ele>666.40002441406</ele>
        <time>2017-04-09T09:49:24.000Z</time>
      </trkpt>
      <trkpt lat="44.04702" lon="5.91235">
        <ele>667.79998779297</ele>
        <time>2017-04-09T09:49:30.000Z</time>
      </trkpt>
      <trkpt lat="44.04698" lon="5.91211">
        <ele>668.40002441406</ele>
        <time>2017-04-09T09:49:46.000Z</time>
      </trkpt>
      <trkpt lat="44.04701" lon="5.91196">
        <ele>668.40002441406</ele>
        <time>2017-04-09T09:49:51.000Z</time>
      </trkpt>
      <trkpt lat="44.04703" lon="5.91184">
        <ele>668.20001220703</ele>
        <time>2017-04-09T09:49:56.000Z</time>
      </trkpt>
      <trkpt lat="44.04699" lon="5.91178">
        <ele>669.20001220703</ele>
        <time>2017-04-09T09:50:01.000Z</time>
      </trkpt>
      <trkpt lat="44.04691" lon="5.91195">
        <ele>670</ele>
        <time>2017-04-09T09:50:16.000Z</time>
      </trkpt>
      <trkpt lat="44.04686" lon="5.91202">
        <ele>670.59997558594</ele>
        <time>2017-04-09T09:50:21.000Z</time>
      </trkpt>
      <trkpt lat="44.0468" lon="5.91209">
        <ele>671.59997558594</ele>
        <time>2017-04-09T09:50:26.000Z</time>
      </trkpt>
      <trkpt lat="44.04679" lon="5.9121">
        <ele>671.79998779297</ele>
        <time>2017-04-09T09:50:27.000Z</time>
      </trkpt>
      <trkpt lat="44.04676" lon="5.91204">
        <ele>672.40002441406</ele>
        <time>2017-04-09T09:50:32.000Z</time>
      </trkpt>
      <trkpt lat="44.0467" lon="5.91184">
        <ele>674</ele>
        <time>2017-04-09T09:50:46.000Z</time>
      </trkpt>
      <trkpt lat="44.04656" lon="5.912">
        <ele>676</ele>
        <time>2017-04-09T09:51:00.000Z</time>
      </trkpt>
      <trkpt lat="44.04652" lon="5.91193">
        <ele>677</ele>
        <time>2017-04-09T09:51:05.000Z</time>
      </trkpt>
      <trkpt lat="44.04649" lon="5.91177">
        <ele>678</ele>
        <time>2017-04-09T09:52:43.000Z</time>
      </trkpt>
      <trkpt lat="44.04643" lon="5.91155">
        <ele>679.40002441406</ele>
        <time>2017-04-09T09:52:52.000Z</time>
      </trkpt>
      <trkpt lat="44.04642" lon="5.91149">
        <ele>679.79998779297</ele>
        <time>2017-04-09T09:52:54.000Z</time>
      </trkpt>
      <trkpt lat="44.0464" lon="5.91123">
        <ele>681.79998779297</ele>
        <time>2017-04-09T09:53:03.000Z</time>
      </trkpt>
      <trkpt lat="44.04643" lon="5.91109">
        <ele>682.59997558594</ele>
        <time>2017-04-09T09:53:07.000Z</time>
      </trkpt>
      <trkpt lat="44.04649" lon="5.91085">
        <ele>683.20001220703</ele>
        <time>2017-04-09T09:53:16.000Z</time>
      </trkpt>
      <trkpt lat="44.04642" lon="5.9106">
        <ele>686</ele>
        <time>2017-04-09T09:53:26.000Z</time>
      </trkpt>
      <trkpt lat="44.04637" lon="5.9104">
        <ele>688.59997558594</ele>
        <time>2017-04-09T09:53:36.000Z</time>
      </trkpt>
      <trkpt lat="44.04633" lon="5.91042">
        <ele>689.20001220703</ele>
        <time>2017-04-09T09:53:40.000Z</time>
      </trkpt>
      <trkpt lat="44.04621" lon="5.91064">
        <ele>690</ele>
        <time>2017-04-09T09:53:54.000Z</time>
      </trkpt>
      <trkpt lat="44.04612" lon="5.91085">
        <ele>690.20001220703</ele>
        <time>2017-04-09T09:54:06.000Z</time>
      </trkpt>
      <trkpt lat="44.046" lon="5.91106">
        <ele>691.20001220703</ele>
        <time>2017-04-09T09:54:19.000Z</time>
      </trkpt>
      <trkpt lat="44.0459" lon="5.91129">
        <ele>691.59997558594</ele>
        <time>2017-04-09T09:54:29.000Z</time>
      </trkpt>
      <trkpt lat="44.04583" lon="5.91152">
        <ele>691.59997558594</ele>
        <time>2017-04-09T09:54:38.000Z</time>
      </trkpt>
      <trkpt lat="44.04578" lon="5.91155">
        <ele>692.59997558594</ele>
        <time>2017-04-09T09:54:41.000Z</time>
      </trkpt>
      <trkpt lat="44.04576" lon="5.91146">
        <ele>693.20001220703</ele>
        <time>2017-04-09T09:54:46.000Z</time>
      </trkpt>
      <trkpt lat="44.04579" lon="5.91122">
        <ele>695</ele>
        <time>2017-04-09T09:56:51.000Z</time>
      </trkpt>
      <trkpt lat="44.04587" lon="5.91097">
        <ele>695.59997558594</ele>
        <time>2017-04-09T09:57:00.000Z</time>
      </trkpt>
      <trkpt lat="44.04592" lon="5.9107">
        <ele>696.40002441406</ele>
        <time>2017-04-09T09:57:07.000Z</time>
      </trkpt>
      <trkpt lat="44.04596" lon="5.91044">
        <ele>697.79998779297</ele>
        <time>2017-04-09T09:57:13.000Z</time>
      </trkpt>
      <trkpt lat="44.04599" lon="5.91026">
        <ele>698.20001220703</ele>
        <time>2017-04-09T09:57:16.000Z</time>
      </trkpt>
      <trkpt lat="44.04606" lon="5.91001">
        <ele>698</ele>
        <time>2017-04-09T09:57:22.000Z</time>
      </trkpt>
      <trkpt lat="44.04606" lon="5.90987">
        <ele>699</ele>
        <time>2017-04-09T09:57:26.000Z</time>
      </trkpt>
      <trkpt lat="44.04604" lon="5.90987">
        <ele>699.40002441406</ele>
        <time>2017-04-09T09:57:28.000Z</time>
      </trkpt>
      <trkpt lat="44.04595" lon="5.91012">
        <ele>700.40002441406</ele>
        <time>2017-04-09T09:57:37.000Z</time>
      </trkpt>
      <trkpt lat="44.0459" lon="5.91018">
        <ele>701.40002441406</ele>
        <time>2017-04-09T09:57:40.000Z</time>
      </trkpt>
      <trkpt lat="44.04583" lon="5.91042">
        <ele>701.59997558594</ele>
        <time>2017-04-09T09:57:47.000Z</time>
      </trkpt>
      <trkpt lat="44.04573" lon="5.91064">
        <ele>701.79998779297</ele>
        <time>2017-04-09T09:57:56.000Z</time>
      </trkpt>
      <trkpt lat="44.04567" lon="5.91081">
        <ele>702.20001220703</ele>
        <time>2017-04-09T09:58:02.000Z</time>
      </trkpt>
      <trkpt lat="44.04557" lon="5.91105">
        <ele>702.20001220703</ele>
        <time>2017-04-09T09:58:10.000Z</time>
      </trkpt>
      <trkpt lat="44.04555" lon="5.91108">
        <ele>702.20001220703</ele>
        <time>2017-04-09T09:58:11.000Z</time>
      </trkpt>
      <trkpt lat="44.04548" lon="5.91103">
        <ele>704.40002441406</ele>
        <time>2017-04-09T09:58:17.000Z</time>
      </trkpt>
      <trkpt lat="44.04549" lon="5.91076">
        <ele>707.20001220703</ele>
        <time>2017-04-09T09:58:26.000Z</time>
      </trkpt>
      <trkpt lat="44.04553" lon="5.91052">
        <ele>708.40002441406</ele>
        <time>2017-04-09T09:58:36.000Z</time>
      </trkpt>
      <trkpt lat="44.04556" lon="5.91026">
        <ele>710.40002441406</ele>
        <time>2017-04-09T09:58:46.000Z</time>
      </trkpt>
      <trkpt lat="44.04562" lon="5.91001">
        <ele>711.20001220703</ele>
        <time>2017-04-09T09:58:53.000Z</time>
      </trkpt>
      <trkpt lat="44.04565" lon="5.90979">
        <ele>712</ele>
        <time>2017-04-09T09:59:00.000Z</time>
      </trkpt>
      <trkpt lat="44.04564" lon="5.90967">
        <ele>712.40002441406</ele>
        <time>2017-04-09T09:59:04.000Z</time>
      </trkpt>
      <trkpt lat="44.0456" lon="5.90941">
        <ele>714.20001220703</ele>
        <time>2017-04-09T09:59:14.000Z</time>
      </trkpt>
      <trkpt lat="44.04565" lon="5.90916">
        <ele>713.20001220703</ele>
        <time>2017-04-09T09:59:21.000Z</time>
      </trkpt>
      <trkpt lat="44.04565" lon="5.90906">
        <ele>713.40002441406</ele>
        <time>2017-04-09T09:59:24.000Z</time>
      </trkpt>
      <trkpt lat="44.04558" lon="5.90908">
        <ele>715.40002441406</ele>
        <time>2017-04-09T09:59:31.000Z</time>
      </trkpt>
      <trkpt lat="44.04557" lon="5.90913">
        <ele>715.59997558594</ele>
        <time>2017-04-09T09:59:34.000Z</time>
      </trkpt>
      <trkpt lat="44.04552" lon="5.90937">
        <ele>716.59997558594</ele>
        <time>2017-04-09T09:59:46.000Z</time>
      </trkpt>
      <trkpt lat="44.04545" lon="5.9096">
        <ele>718.40002441406</ele>
        <time>2017-04-09T09:59:56.000Z</time>
      </trkpt>
      <trkpt lat="44.0454" lon="5.90963">
        <ele>719.79998779297</ele>
        <time>2017-04-09T10:00:05.000Z</time>
      </trkpt>
      <trkpt lat="44.0454" lon="5.90938">
        <ele>720.20001220703</ele>
        <time>2017-04-09T10:00:14.000Z</time>
      </trkpt>
      <trkpt lat="44.04538" lon="5.90913">
        <ele>721</ele>
        <time>2017-04-09T10:00:24.000Z</time>
      </trkpt>
      <trkpt lat="44.04531" lon="5.90888">
        <ele>723.40002441406</ele>
        <time>2017-04-09T10:00:33.000Z</time>
      </trkpt>
      <trkpt lat="44.04529" lon="5.90882">
        <ele>723.79998779297</ele>
        <time>2017-04-09T10:00:34.000Z</time>
      </trkpt>
      <trkpt lat="44.04518" lon="5.9086">
        <ele>726.20001220703</ele>
        <time>2017-04-09T10:00:39.000Z</time>
      </trkpt>
      <trkpt lat="44.04506" lon="5.90839">
        <ele>728.79998779297</ele>
        <time>2017-04-09T10:00:53.000Z</time>
      </trkpt>
      <trkpt lat="44.04505" lon="5.90833">
        <ele>728.79998779297</ele>
        <time>2017-04-09T10:00:56.000Z</time>
      </trkpt>
      <trkpt lat="44.04508" lon="5.90807">
        <ele>727.20001220703</ele>
        <time>2017-04-09T10:01:04.000Z</time>
      </trkpt>
      <trkpt lat="44.04516" lon="5.90784">
        <ele>727.59997558594</ele>
        <time>2017-04-09T10:01:13.000Z</time>
      </trkpt>
      <trkpt lat="44.0453" lon="5.90765">
        <ele>726</ele>
        <time>2017-04-09T10:01:20.000Z</time>
      </trkpt>
      <trkpt lat="44.04542" lon="5.90744">
        <ele>725.40002441406</ele>
        <time>2017-04-09T10:01:25.000Z</time>
      </trkpt>
      <trkpt lat="44.04554" lon="5.90723">
        <ele>724.40002441406</ele>
        <time>2017-04-09T10:01:32.000Z</time>
      </trkpt>
      <trkpt lat="44.04566" lon="5.90705">
        <ele>725.20001220703</ele>
        <time>2017-04-09T10:01:38.000Z</time>
      </trkpt>
      <trkpt lat="44.04568" lon="5.907">
        <ele>726</ele>
        <time>2017-04-09T10:01:39.000Z</time>
      </trkpt>
      <trkpt lat="44.04578" lon="5.90676">
        <ele>727.79998779297</ele>
        <time>2017-04-09T10:01:46.000Z</time>
      </trkpt>
      <trkpt lat="44.0459" lon="5.90656">
        <ele>726.79998779297</ele>
        <time>2017-04-09T10:01:53.000Z</time>
      </trkpt>
      <trkpt lat="44.04577" lon="5.90663">
        <ele>730.20001220703</ele>
        <time>2017-04-09T10:02:48.000Z</time>
      </trkpt>
      <trkpt lat="44.04561" lon="5.90679">
        <ele>733</ele>
        <time>2017-04-09T10:02:57.000Z</time>
      </trkpt>
      <trkpt lat="44.04543" lon="5.90693">
        <ele>734.59997558594</ele>
        <time>2017-04-09T10:03:09.000Z</time>
      </trkpt>
      <trkpt lat="44.04528" lon="5.90705">
        <ele>735.79998779297</ele>
        <time>2017-04-09T10:03:20.000Z</time>
      </trkpt>
      <trkpt lat="44.04512" lon="5.90719">
        <ele>736.59997558594</ele>
        <time>2017-04-09T10:03:33.000Z</time>
      </trkpt>
      <trkpt lat="44.04497" lon="5.90735">
        <ele>738.40002441406</ele>
        <time>2017-04-09T10:03:46.000Z</time>
      </trkpt>
      <trkpt lat="44.0448" lon="5.90746">
        <ele>742</ele>
        <time>2017-04-09T10:03:56.000Z</time>
      </trkpt>
      <trkpt lat="44.04464" lon="5.90758">
        <ele>745.20001220703</ele>
        <time>2017-04-09T10:04:09.000Z</time>
      </trkpt>
      <trkpt lat="44.04448" lon="5.90768">
        <ele>748.59997558594</ele>
        <time>2017-04-09T10:06:07.000Z</time>
      </trkpt>
      <trkpt lat="44.04439" lon="5.9079">
        <ele>747.59997558594</ele>
        <time>2017-04-09T10:07:55.000Z</time>
      </trkpt>
      <trkpt lat="44.04432" lon="5.90818">
        <ele>747.59997558594</ele>
        <time>2017-04-09T10:08:02.000Z</time>
      </trkpt>
      <trkpt lat="44.04432" lon="5.90845">
        <ele>750.20001220703</ele>
        <time>2017-04-09T10:08:09.000Z</time>
      </trkpt>
      <trkpt lat="44.04437" lon="5.90872">
        <ele>752.59997558594</ele>
        <time>2017-04-09T10:08:15.000Z</time>
      </trkpt>
      <trkpt lat="44.04445" lon="5.90895">
        <ele>753.40002441406</ele>
        <time>2017-04-09T10:08:20.000Z</time>
      </trkpt>
      <trkpt lat="44.04452" lon="5.90922">
        <ele>751.40002441406</ele>
        <time>2017-04-09T10:08:26.000Z</time>
      </trkpt>
      <trkpt lat="44.04458" lon="5.90946">
        <ele>750</ele>
        <time>2017-04-09T10:08:31.000Z</time>
      </trkpt>
      <trkpt lat="44.04462" lon="5.9097">
        <ele>749.20001220703</ele>
        <time>2017-04-09T10:08:35.000Z</time>
      </trkpt>
      <trkpt lat="44.04464" lon="5.90998">
        <ele>745.79998779297</ele>
        <time>2017-04-09T10:08:39.000Z</time>
      </trkpt>
      <trkpt lat="44.04462" lon="5.91028">
        <ele>741.40002441406</ele>
        <time>2017-04-09T10:08:44.000Z</time>
      </trkpt>
      <trkpt lat="44.04459" lon="5.91053">
        <ele>739</ele>
        <time>2017-04-09T10:08:49.000Z</time>
      </trkpt>
      <trkpt lat="44.04448" lon="5.91079">
        <ele>737.59997558594</ele>
        <time>2017-04-09T10:08:54.000Z</time>
      </trkpt>
      <trkpt lat="44.04434" lon="5.91098">
        <ele>736.59997558594</ele>
        <time>2017-04-09T10:09:02.000Z</time>
      </trkpt>
      <trkpt lat="44.04421" lon="5.9111">
        <ele>737</ele>
        <time>2017-04-09T10:09:08.000Z</time>
      </trkpt>
      <trkpt lat="44.04403" lon="5.91118">
        <ele>740.20001220703</ele>
        <time>2017-04-09T10:09:15.000Z</time>
      </trkpt>
      <trkpt lat="44.04387" lon="5.91127">
        <ele>743.79998779297</ele>
        <time>2017-04-09T10:09:23.000Z</time>
      </trkpt>
      <trkpt lat="44.04367" lon="5.91138">
        <ele>748</ele>
        <time>2017-04-09T10:09:33.000Z</time>
      </trkpt>
      <trkpt lat="44.04353" lon="5.91162">
        <ele>753.40002441406</ele>
        <time>2017-04-09T10:09:45.000Z</time>
      </trkpt>
      <trkpt lat="44.04339" lon="5.91183">
        <ele>759.40002441406</ele>
        <time>2017-04-09T10:09:53.000Z</time>
      </trkpt>
      <trkpt lat="44.04335" lon="5.91187">
        <ele>760.79998779297</ele>
        <time>2017-04-09T10:09:56.000Z</time>
      </trkpt>
      <trkpt lat="44.04322" lon="5.91167">
        <ele>764</ele>
        <time>2017-04-09T10:10:12.000Z</time>
      </trkpt>
      <trkpt lat="44.04314" lon="5.91144">
        <ele>765.40002441406</ele>
        <time>2017-04-09T10:10:28.000Z</time>
      </trkpt>
      <trkpt lat="44.04317" lon="5.91119">
        <ele>764</ele>
        <time>2017-04-09T10:10:46.000Z</time>
      </trkpt>
      <trkpt lat="44.04317" lon="5.91113">
        <ele>763.79998779297</ele>
        <time>2017-04-09T10:10:50.000Z</time>
      </trkpt>
      <trkpt lat="44.04319" lon="5.91102">
        <ele>763.20001220703</ele>
        <time>2017-04-09T10:10:56.000Z</time>
      </trkpt>
      <trkpt lat="44.04323" lon="5.9108">
        <ele>765.40002441406</ele>
        <time>2017-04-09T10:11:08.000Z</time>
      </trkpt>
      <trkpt lat="44.04321" lon="5.91054">
        <ele>768.79998779297</ele>
        <time>2017-04-09T10:11:21.000Z</time>
      </trkpt>
      <trkpt lat="44.04313" lon="5.91062">
        <ele>769.79998779297</ele>
        <time>2017-04-09T10:15:31.000Z</time>
      </trkpt>
      <trkpt lat="44.04303" lon="5.91083">
        <ele>768.40002441406</ele>
        <time>2017-04-09T10:15:39.000Z</time>
      </trkpt>
      <trkpt lat="44.04299" lon="5.91088">
        <ele>769.59997558594</ele>
        <time>2017-04-09T10:15:42.000Z</time>
      </trkpt>
      <trkpt lat="44.0429" lon="5.91112">
        <ele>772.79998779297</ele>
        <time>2017-04-09T10:15:51.000Z</time>
      </trkpt>
      <trkpt lat="44.04283" lon="5.91139">
        <ele>775.59997558594</ele>
        <time>2017-04-09T10:15:58.000Z</time>
      </trkpt>
      <trkpt lat="44.04275" lon="5.91164">
        <ele>778.40002441406</ele>
        <time>2017-04-09T10:16:07.000Z</time>
      </trkpt>
      <trkpt lat="44.04275" lon="5.91192">
        <ele>778.79998779297</ele>
        <time>2017-04-09T10:16:16.000Z</time>
      </trkpt>
      <trkpt lat="44.04272" lon="5.91217">
        <ele>779.59997558594</ele>
        <time>2017-04-09T10:16:24.000Z</time>
      </trkpt>
      <trkpt lat="44.04264" lon="5.91241">
        <ele>782.59997558594</ele>
        <time>2017-04-09T10:16:33.000Z</time>
      </trkpt>
      <trkpt lat="44.04254" lon="5.91263">
        <ele>786.20001220703</ele>
        <time>2017-04-09T10:16:42.000Z</time>
      </trkpt>
      <trkpt lat="44.04243" lon="5.91285">
        <ele>789.59997558594</ele>
        <time>2017-04-09T10:16:55.000Z</time>
      </trkpt>
      <trkpt lat="44.04237" lon="5.91308">
        <ele>791.40002441406</ele>
        <time>2017-04-09T10:17:12.000Z</time>
      </trkpt>
      <trkpt lat="44.04227" lon="5.9133">
        <ele>796.79998779297</ele>
        <time>2017-04-09T10:17:26.000Z</time>
      </trkpt>
      <trkpt lat="44.04215" lon="5.91318">
        <ele>796</ele>
        <time>2017-04-09T10:18:20.000Z</time>
      </trkpt>
      <trkpt lat="44.04208" lon="5.91342">
        <ele>799.59997558594</ele>
        <time>2017-04-09T10:18:34.000Z</time>
      </trkpt>
      <trkpt lat="44.04207" lon="5.91356">
        <ele>800.79998779297</ele>
        <time>2017-04-09T10:18:41.000Z</time>
      </trkpt>
      <trkpt lat="44.0421" lon="5.91374">
        <ele>802.20001220703</ele>
        <time>2017-04-09T10:18:51.000Z</time>
      </trkpt>
      <trkpt lat="44.04223" lon="5.91392">
        <ele>803.40002441406</ele>
        <time>2017-04-09T10:19:06.000Z</time>
      </trkpt>
      <trkpt lat="44.04237" lon="5.91406">
        <ele>804.40002441406</ele>
        <time>2017-04-09T10:19:18.000Z</time>
      </trkpt>
      <trkpt lat="44.04253" lon="5.91423">
        <ele>805.59997558594</ele>
        <time>2017-04-09T10:19:31.000Z</time>
      </trkpt>
      <trkpt lat="44.04271" lon="5.9143">
        <ele>806</ele>
        <time>2017-04-09T10:19:44.000Z</time>
      </trkpt>
      <trkpt lat="44.04289" lon="5.91424">
        <ele>800.40002441406</ele>
        <time>2017-04-09T10:19:56.000Z</time>
      </trkpt>
      <trkpt lat="44.04304" lon="5.91425">
        <ele>795</ele>
        <time>2017-04-09T10:28:26.000Z</time>
      </trkpt>
      <trkpt lat="44.04294" lon="5.91447">
        <ele>800.59997558594</ele>
        <time>2017-04-09T10:28:50.000Z</time>
      </trkpt>
      <trkpt lat="44.04292" lon="5.91473">
        <ele>803.79998779297</ele>
        <time>2017-04-09T10:28:54.000Z</time>
      </trkpt>
      <trkpt lat="44.04291" lon="5.9148">
        <ele>804.40002441406</ele>
        <time>2017-04-09T10:28:55.000Z</time>
      </trkpt>
      <trkpt lat="44.04289" lon="5.91504">
        <ele>806.59997558594</ele>
        <time>2017-04-09T10:28:58.000Z</time>
      </trkpt>
      <trkpt lat="44.04289" lon="5.91529">
        <ele>808.79998779297</ele>
        <time>2017-04-09T10:29:01.000Z</time>
      </trkpt>
      <trkpt lat="44.04294" lon="5.91557">
        <ele>808.59997558594</ele>
        <time>2017-04-09T10:29:08.000Z</time>
      </trkpt>
      <trkpt lat="44.04301" lon="5.91583">
        <ele>806.40002441406</ele>
        <time>2017-04-09T10:29:15.000Z</time>
      </trkpt>
      <trkpt lat="44.04301" lon="5.91587">
        <ele>806.59997558594</ele>
        <time>2017-04-09T10:29:16.000Z</time>
      </trkpt>
      <trkpt lat="44.04309" lon="5.9161">
        <ele>803.40002441406</ele>
        <time>2017-04-09T10:29:24.000Z</time>
      </trkpt>
      <trkpt lat="44.04313" lon="5.91635">
        <ele>802.59997558594</ele>
        <time>2017-04-09T10:29:33.000Z</time>
      </trkpt>
      <trkpt lat="44.04312" lon="5.91663">
        <ele>805.40002441406</ele>
        <time>2017-04-09T10:29:39.000Z</time>
      </trkpt>
      <trkpt lat="44.04309" lon="5.91669">
        <ele>807.20001220703</ele>
        <time>2017-04-09T10:29:40.000Z</time>
      </trkpt>
      <trkpt lat="44.0431" lon="5.91696">
        <ele>806.20001220703</ele>
        <time>2017-04-09T10:29:45.000Z</time>
      </trkpt>
      <trkpt lat="44.0432" lon="5.91718">
        <ele>802</ele>
        <time>2017-04-09T10:29:49.000Z</time>
      </trkpt>
      <trkpt lat="44.0433" lon="5.91726">
        <ele>799</ele>
        <time>2017-04-09T10:29:51.000Z</time>
      </trkpt>
      <trkpt lat="44.04334" lon="5.9173">
        <ele>798.40002441406</ele>
        <time>2017-04-09T10:29:52.000Z</time>
      </trkpt>
      <trkpt lat="44.04344" lon="5.91751">
        <ele>797.59997558594</ele>
        <time>2017-04-09T10:29:59.000Z</time>
      </trkpt>
      <trkpt lat="44.04349" lon="5.91776">
        <ele>798.20001220703</ele>
        <time>2017-04-09T10:30:09.000Z</time>
      </trkpt>
      <trkpt lat="44.04355" lon="5.91801">
        <ele>798.79998779297</ele>
        <time>2017-04-09T10:30:18.000Z</time>
      </trkpt>
      <trkpt lat="44.04364" lon="5.91825">
        <ele>794.20001220703</ele>
        <time>2017-04-09T10:30:31.000Z</time>
      </trkpt>
      <trkpt lat="44.04368" lon="5.91849">
        <ele>789.20001220703</ele>
        <time>2017-04-09T10:30:38.000Z</time>
      </trkpt>
      <trkpt lat="44.04353" lon="5.91869">
        <ele>788.20001220703</ele>
        <time>2017-04-09T10:30:43.000Z</time>
      </trkpt>
      <trkpt lat="44.04349" lon="5.91873">
        <ele>787.79998779297</ele>
        <time>2017-04-09T10:30:44.000Z</time>
      </trkpt>
      <trkpt lat="44.04337" lon="5.91894">
        <ele>783.20001220703</ele>
        <time>2017-04-09T10:30:49.000Z</time>
      </trkpt>
      <trkpt lat="44.04322" lon="5.91906">
        <ele>780.20001220703</ele>
        <time>2017-04-09T10:30:54.000Z</time>
      </trkpt>
      <trkpt lat="44.04318" lon="5.91908">
        <ele>779.79998779297</ele>
        <time>2017-04-09T10:30:56.000Z</time>
      </trkpt>
      <trkpt lat="44.04316" lon="5.9191">
        <ele>779.40002441406</ele>
        <time>2017-04-09T10:30:57.000Z</time>
      </trkpt>
      <trkpt lat="44.04307" lon="5.91917">
        <ele>777.59997558594</ele>
        <time>2017-04-09T10:31:01.000Z</time>
      </trkpt>
      <trkpt lat="44.04298" lon="5.91915">
        <ele>778.20001220703</ele>
        <time>2017-04-09T10:31:05.000Z</time>
      </trkpt>
      <trkpt lat="44.04285" lon="5.91911">
        <ele>779</ele>
        <time>2017-04-09T10:31:08.000Z</time>
      </trkpt>
      <trkpt lat="44.04271" lon="5.91906">
        <ele>780.59997558594</ele>
        <time>2017-04-09T10:31:11.000Z</time>
      </trkpt>
      <trkpt lat="44.04251" lon="5.91899">
        <ele>784</ele>
        <time>2017-04-09T10:31:16.000Z</time>
      </trkpt>
      <trkpt lat="44.04232" lon="5.91903">
        <ele>784</ele>
        <time>2017-04-09T10:31:25.000Z</time>
      </trkpt>
      <trkpt lat="44.04226" lon="5.91903">
        <ele>784.20001220703</ele>
        <time>2017-04-09T10:31:28.000Z</time>
      </trkpt>
      <trkpt lat="44.04219" lon="5.91904">
        <ele>784.59997558594</ele>
        <time>2017-04-09T10:31:32.000Z</time>
      </trkpt>
      <trkpt lat="44.04215" lon="5.91905">
        <ele>784.40002441406</ele>
        <time>2017-04-09T10:31:35.000Z</time>
      </trkpt>
      <trkpt lat="44.04195" lon="5.91904">
        <ele>786.59997558594</ele>
        <time>2017-04-09T10:31:44.000Z</time>
      </trkpt>
      <trkpt lat="44.04193" lon="5.91906">
        <ele>786.79998779297</ele>
        <time>2017-04-09T10:31:46.000Z</time>
      </trkpt>
      <trkpt lat="44.04181" lon="5.91914">
        <ele>786.59997558594</ele>
        <time>2017-04-09T10:31:50.000Z</time>
      </trkpt>
      <trkpt lat="44.04163" lon="5.91924">
        <ele>786.59997558594</ele>
        <time>2017-04-09T10:31:57.000Z</time>
      </trkpt>
      <trkpt lat="44.04157" lon="5.91928">
        <ele>786.59997558594</ele>
        <time>2017-04-09T10:32:01.000Z</time>
      </trkpt>
      <trkpt lat="44.04141" lon="5.91932">
        <ele>787.79998779297</ele>
        <time>2017-04-09T10:32:12.000Z</time>
      </trkpt>
      <trkpt lat="44.04122" lon="5.91937">
        <ele>789.20001220703</ele>
        <time>2017-04-09T10:32:23.000Z</time>
      </trkpt>
      <trkpt lat="44.04117" lon="5.91938">
        <ele>789.79998779297</ele>
        <time>2017-04-09T10:32:27.000Z</time>
      </trkpt>
      <trkpt lat="44.04103" lon="5.91938">
        <ele>791.40002441406</ele>
        <time>2017-04-09T10:32:36.000Z</time>
      </trkpt>
      <trkpt lat="44.0409" lon="5.91937">
        <ele>792.40002441406</ele>
        <time>2017-04-09T10:32:43.000Z</time>
      </trkpt>
      <trkpt lat="44.04071" lon="5.91932">
        <ele>794.79998779297</ele>
        <time>2017-04-09T10:32:54.000Z</time>
      </trkpt>
      <trkpt lat="44.04052" lon="5.91931">
        <ele>794.79998779297</ele>
        <time>2017-04-09T10:33:05.000Z</time>
      </trkpt>
      <trkpt lat="44.04052" lon="5.9193">
        <ele>795</ele>
        <time>2017-04-09T10:33:06.000Z</time>
      </trkpt>
      <trkpt lat="44.04034" lon="5.91927">
        <ele>795.40002441406</ele>
        <time>2017-04-09T10:33:59.000Z</time>
      </trkpt>
      <trkpt lat="44.04016" lon="5.91921">
        <ele>795.59997558594</ele>
        <time>2017-04-09T10:34:09.000Z</time>
      </trkpt>
      <trkpt lat="44.04015" lon="5.91921">
        <ele>795.20001220703</ele>
        <time>2017-04-09T10:34:10.000Z</time>
      </trkpt>
      <trkpt lat="44.04002" lon="5.91926">
        <ele>791.79998779297</ele>
        <time>2017-04-09T10:34:20.000Z</time>
      </trkpt>
      <trkpt lat="44.04006" lon="5.91918">
        <ele>795</ele>
        <time>2017-04-09T10:34:26.000Z</time>
      </trkpt>
      <trkpt lat="44.04008" lon="5.91892">
        <ele>803</ele>
        <time>2017-04-09T10:34:41.000Z</time>
      </trkpt>
      <trkpt lat="44.03993" lon="5.91907">
        <ele>796.40002441406</ele>
        <time>2017-04-09T10:34:58.000Z</time>
      </trkpt>
      <trkpt lat="44.03976" lon="5.91916">
        <ele>791.20001220703</ele>
        <time>2017-04-09T10:35:08.000Z</time>
      </trkpt>
      <trkpt lat="44.03971" lon="5.91918">
        <ele>789.79998779297</ele>
        <time>2017-04-09T10:35:11.000Z</time>
      </trkpt>
      <trkpt lat="44.0396" lon="5.91915">
        <ele>791</ele>
        <time>2017-04-09T10:35:17.000Z</time>
      </trkpt>
      <trkpt lat="44.03947" lon="5.91899">
        <ele>793.20001220703</ele>
        <time>2017-04-09T10:35:27.000Z</time>
      </trkpt>
      <trkpt lat="44.03935" lon="5.91916">
        <ele>790</ele>
        <time>2017-04-09T10:39:02.000Z</time>
      </trkpt>
      <trkpt lat="44.03928" lon="5.91941">
        <ele>786.40002441406</ele>
        <time>2017-04-09T10:39:07.000Z</time>
      </trkpt>
      <trkpt lat="44.03921" lon="5.91947">
        <ele>783.40002441406</ele>
        <time>2017-04-09T10:39:09.000Z</time>
      </trkpt>
      <trkpt lat="44.03908" lon="5.91955">
        <ele>780.79998779297</ele>
        <time>2017-04-09T10:39:12.000Z</time>
      </trkpt>
      <trkpt lat="44.03895" lon="5.91981">
        <ele>780.20001220703</ele>
        <time>2017-04-09T10:39:15.000Z</time>
      </trkpt>
      <trkpt lat="44.03884" lon="5.92002">
        <ele>775.20001220703</ele>
        <time>2017-04-09T10:39:17.000Z</time>
      </trkpt>
      <trkpt lat="44.03874" lon="5.92029">
        <ele>775.59997558594</ele>
        <time>2017-04-09T10:39:20.000Z</time>
      </trkpt>
      <trkpt lat="44.03873" lon="5.92058">
        <ele>776.20001220703</ele>
        <time>2017-04-09T10:39:24.000Z</time>
      </trkpt>
      <trkpt lat="44.03874" lon="5.92078">
        <ele>774</ele>
        <time>2017-04-09T10:39:29.000Z</time>
      </trkpt>
      <trkpt lat="44.03873" lon="5.92094">
        <ele>772</ele>
        <time>2017-04-09T10:39:31.000Z</time>
      </trkpt>
      <trkpt lat="44.03877" lon="5.92116">
        <ele>769.20001220703</ele>
        <time>2017-04-09T10:39:34.000Z</time>
      </trkpt>
      <trkpt lat="44.03884" lon="5.92143">
        <ele>766.20001220703</ele>
        <time>2017-04-09T10:39:55.000Z</time>
      </trkpt>
      <trkpt lat="44.03887" lon="5.92169">
        <ele>764</ele>
        <time>2017-04-09T10:40:00.000Z</time>
      </trkpt>
      <trkpt lat="44.03889" lon="5.92184">
        <ele>762.59997558594</ele>
        <time>2017-04-09T10:40:03.000Z</time>
      </trkpt>
      <trkpt lat="44.03897" lon="5.92205">
        <ele>761.20001220703</ele>
        <time>2017-04-09T10:40:08.000Z</time>
      </trkpt>
      <trkpt lat="44.03908" lon="5.92225">
        <ele>759.79998779297</ele>
        <time>2017-04-09T10:40:15.000Z</time>
      </trkpt>
      <trkpt lat="44.03909" lon="5.92257">
        <ele>756</ele>
        <time>2017-04-09T10:40:21.000Z</time>
      </trkpt>
      <trkpt lat="44.03911" lon="5.92285">
        <ele>752</ele>
        <time>2017-04-09T10:40:25.000Z</time>
      </trkpt>
      <trkpt lat="44.03917" lon="5.92307">
        <ele>748.20001220703</ele>
        <time>2017-04-09T10:40:29.000Z</time>
      </trkpt>
      <trkpt lat="44.03921" lon="5.92334">
        <ele>744.59997558594</ele>
        <time>2017-04-09T10:40:33.000Z</time>
      </trkpt>
      <trkpt lat="44.03923" lon="5.92365">
        <ele>740.20001220703</ele>
        <time>2017-04-09T10:40:37.000Z</time>
      </trkpt>
      <trkpt lat="44.0393" lon="5.92394">
        <ele>735.59997558594</ele>
        <time>2017-04-09T10:40:41.000Z</time>
      </trkpt>
      <trkpt lat="44.03932" lon="5.92414">
        <ele>733</ele>
        <time>2017-04-09T10:40:45.000Z</time>
      </trkpt>
      <trkpt lat="44.03924" lon="5.92419">
        <ele>730.40002441406</ele>
        <time>2017-04-09T10:40:49.000Z</time>
      </trkpt>
      <trkpt lat="44.03904" lon="5.92417">
        <ele>726</ele>
        <time>2017-04-09T10:40:55.000Z</time>
      </trkpt>
      <trkpt lat="44.03899" lon="5.92416">
        <ele>725</ele>
        <time>2017-04-09T10:40:56.000Z</time>
      </trkpt>
      <trkpt lat="44.03887" lon="5.92411">
        <ele>723.20001220703</ele>
        <time>2017-04-09T10:40:59.000Z</time>
      </trkpt>
      <trkpt lat="44.03866" lon="5.92417">
        <ele>715.59997558594</ele>
        <time>2017-04-09T10:41:04.000Z</time>
      </trkpt>
      <trkpt lat="44.03862" lon="5.92416">
        <ele>714.40002441406</ele>
        <time>2017-04-09T10:41:05.000Z</time>
      </trkpt>
      <trkpt lat="44.03854" lon="5.924">
        <ele>717</ele>
        <time>2017-04-09T10:41:10.000Z</time>
      </trkpt>
      <trkpt lat="44.03845" lon="5.92377">
        <ele>721</ele>
        <time>2017-04-09T10:41:20.000Z</time>
      </trkpt>
      <trkpt lat="44.03837" lon="5.92367">
        <ele>722.20001220703</ele>
        <time>2017-04-09T10:42:21.000Z</time>
      </trkpt>
      <trkpt lat="44.0382" lon="5.92353">
        <ele>722.79998779297</ele>
        <time>2017-04-09T10:42:29.000Z</time>
      </trkpt>
      <trkpt lat="44.03801" lon="5.92347">
        <ele>721.79998779297</ele>
        <time>2017-04-09T10:42:34.000Z</time>
      </trkpt>
      <trkpt lat="44.0378" lon="5.92344">
        <ele>720</ele>
        <time>2017-04-09T10:42:39.000Z</time>
      </trkpt>
      <trkpt lat="44.03759" lon="5.92336">
        <ele>718.40002441406</ele>
        <time>2017-04-09T10:42:44.000Z</time>
      </trkpt>
      <trkpt lat="44.03737" lon="5.92331">
        <ele>716.20001220703</ele>
        <time>2017-04-09T10:42:49.000Z</time>
      </trkpt>
      <trkpt lat="44.03714" lon="5.92319">
        <ele>715.20001220703</ele>
        <time>2017-04-09T10:42:53.000Z</time>
      </trkpt>
      <trkpt lat="44.03699" lon="5.92305">
        <ele>715</ele>
        <time>2017-04-09T10:42:56.000Z</time>
      </trkpt>
      <trkpt lat="44.03685" lon="5.92296">
        <ele>712.20001220703</ele>
        <time>2017-04-09T10:43:00.000Z</time>
      </trkpt>
      <trkpt lat="44.03666" lon="5.92301">
        <ele>710.40002441406</ele>
        <time>2017-04-09T10:43:04.000Z</time>
      </trkpt>
      <trkpt lat="44.03655" lon="5.92323">
        <ele>708.20001220703</ele>
        <time>2017-04-09T10:43:08.000Z</time>
      </trkpt>
      <trkpt lat="44.03654" lon="5.92328">
        <ele>707.40002441406</ele>
        <time>2017-04-09T10:43:09.000Z</time>
      </trkpt>
      <trkpt lat="44.03652" lon="5.92334">
        <ele>706.40002441406</ele>
        <time>2017-04-09T10:43:10.000Z</time>
      </trkpt>
      <trkpt lat="44.03661" lon="5.92357">
        <ele>704.79998779297</ele>
        <time>2017-04-09T10:43:15.000Z</time>
      </trkpt>
      <trkpt lat="44.03671" lon="5.92382">
        <ele>704</ele>
        <time>2017-04-09T10:43:19.000Z</time>
      </trkpt>
      <trkpt lat="44.03669" lon="5.92396">
        <ele>702.59997558594</ele>
        <time>2017-04-09T10:43:23.000Z</time>
      </trkpt>
      <trkpt lat="44.03648" lon="5.92394">
        <ele>702.59997558594</ele>
        <time>2017-04-09T10:43:28.000Z</time>
      </trkpt>
      <trkpt lat="44.0363" lon="5.92392">
        <ele>702.79998779297</ele>
        <time>2017-04-09T10:43:33.000Z</time>
      </trkpt>
      <trkpt lat="44.0362" lon="5.92395">
        <ele>702</ele>
        <time>2017-04-09T10:43:36.000Z</time>
      </trkpt>
      <trkpt lat="44.0361" lon="5.92422">
        <ele>696.20001220703</ele>
        <time>2017-04-09T10:43:42.000Z</time>
      </trkpt>
      <trkpt lat="44.03603" lon="5.9243">
        <ele>693.79998779297</ele>
        <time>2017-04-09T10:43:44.000Z</time>
      </trkpt>
      <trkpt lat="44.0359" lon="5.92442">
        <ele>689.40002441406</ele>
        <time>2017-04-09T10:43:47.000Z</time>
      </trkpt>
      <trkpt lat="44.03576" lon="5.92457">
        <ele>685.59997558594</ele>
        <time>2017-04-09T10:43:53.000Z</time>
      </trkpt>
      <trkpt lat="44.03584" lon="5.92471">
        <ele>684.20001220703</ele>
        <time>2017-04-09T10:43:58.000Z</time>
      </trkpt>
      <trkpt lat="44.03595" lon="5.9248">
        <ele>682.79998779297</ele>
        <time>2017-04-09T10:44:02.000Z</time>
      </trkpt>
      <trkpt lat="44.03579" lon="5.925">
        <ele>676.59997558594</ele>
        <time>2017-04-09T10:44:08.000Z</time>
      </trkpt>
      <trkpt lat="44.03574" lon="5.92509">
        <ele>674</ele>
        <time>2017-04-09T10:44:10.000Z</time>
      </trkpt>
      <trkpt lat="44.03566" lon="5.92536">
        <ele>666.59997558594</ele>
        <time>2017-04-09T10:44:16.000Z</time>
      </trkpt>
      <trkpt lat="44.03546" lon="5.92545">
        <ele>663.20001220703</ele>
        <time>2017-04-09T10:44:20.000Z</time>
      </trkpt>
      <trkpt lat="44.03531" lon="5.92552">
        <ele>660.59997558594</ele>
        <time>2017-04-09T10:44:23.000Z</time>
      </trkpt>
      <trkpt lat="44.03509" lon="5.92558">
        <ele>658.20001220703</ele>
        <time>2017-04-09T10:44:28.000Z</time>
      </trkpt>
      <trkpt lat="44.03499" lon="5.9256">
        <ele>657.59997558594</ele>
        <time>2017-04-09T10:44:30.000Z</time>
      </trkpt>
      <trkpt lat="44.0348" lon="5.92559">
        <ele>657</ele>
        <time>2017-04-09T10:44:34.000Z</time>
      </trkpt>
      <trkpt lat="44.03461" lon="5.92558">
        <ele>656.59997558594</ele>
        <time>2017-04-09T10:44:39.000Z</time>
      </trkpt>
      <trkpt lat="44.03453" lon="5.92552">
        <ele>657.20001220703</ele>
        <time>2017-04-09T10:44:42.000Z</time>
      </trkpt>
      <trkpt lat="44.03439" lon="5.92535">
        <ele>659.40002441406</ele>
        <time>2017-04-09T10:45:31.000Z</time>
      </trkpt>
      <trkpt lat="44.03427" lon="5.92512">
        <ele>662.59997558594</ele>
        <time>2017-04-09T10:45:39.000Z</time>
      </trkpt>
      <trkpt lat="44.03423" lon="5.92505">
        <ele>663.79998779297</ele>
        <time>2017-04-09T10:45:41.000Z</time>
      </trkpt>
      <trkpt lat="44.03418" lon="5.92493">
        <ele>665.40002441406</ele>
        <time>2017-04-09T10:45:45.000Z</time>
      </trkpt>
      <trkpt lat="44.03406" lon="5.92471">
        <ele>667.59997558594</ele>
        <time>2017-04-09T10:46:07.000Z</time>
      </trkpt>
      <trkpt lat="44.03401" lon="5.9247">
        <ele>667.40002441406</ele>
        <time>2017-04-09T10:46:08.000Z</time>
      </trkpt>
      <trkpt lat="44.03379" lon="5.92472">
        <ele>667</ele>
        <time>2017-04-09T10:46:12.000Z</time>
      </trkpt>
      <trkpt lat="44.03357" lon="5.92469">
        <ele>665.79998779297</ele>
        <time>2017-04-09T10:46:15.000Z</time>
      </trkpt>
      <trkpt lat="44.03334" lon="5.92464">
        <ele>661</ele>
        <time>2017-04-09T10:46:18.000Z</time>
      </trkpt>
      <trkpt lat="44.03316" lon="5.92459">
        <ele>657.20001220703</ele>
        <time>2017-04-09T10:46:20.000Z</time>
      </trkpt>
      <trkpt lat="44.03298" lon="5.92455">
        <ele>653.20001220703</ele>
        <time>2017-04-09T10:46:22.000Z</time>
      </trkpt>
      <trkpt lat="44.03273" lon="5.92452">
        <ele>648.20001220703</ele>
        <time>2017-04-09T10:46:25.000Z</time>
      </trkpt>
      <trkpt lat="44.03249" lon="5.92454">
        <ele>642.79998779297</ele>
        <time>2017-04-09T10:46:28.000Z</time>
      </trkpt>
      <trkpt lat="44.03235" lon="5.92458">
        <ele>638.59997558594</ele>
        <time>2017-04-09T10:46:30.000Z</time>
      </trkpt>
      <trkpt lat="44.0322" lon="5.92474">
        <ele>634.59997558594</ele>
        <time>2017-04-09T10:46:33.000Z</time>
      </trkpt>
      <trkpt lat="44.03211" lon="5.92486">
        <ele>631.20001220703</ele>
        <time>2017-04-09T10:46:35.000Z</time>
      </trkpt>
      <trkpt lat="44.03202" lon="5.92512">
        <ele>629</ele>
        <time>2017-04-09T10:46:38.000Z</time>
      </trkpt>
      <trkpt lat="44.03197" lon="5.92529">
        <ele>627.79998779297</ele>
        <time>2017-04-09T10:46:40.000Z</time>
      </trkpt>
      <trkpt lat="44.03182" lon="5.92551">
        <ele>624.40002441406</ele>
        <time>2017-04-09T10:46:43.000Z</time>
      </trkpt>
      <trkpt lat="44.0316" lon="5.9256">
        <ele>619</ele>
        <time>2017-04-09T10:46:46.000Z</time>
      </trkpt>
      <trkpt lat="44.03154" lon="5.92563">
        <ele>617</ele>
        <time>2017-04-09T10:46:47.000Z</time>
      </trkpt>
      <trkpt lat="44.0314" lon="5.92567">
        <ele>613.40002441406</ele>
        <time>2017-04-09T10:46:49.000Z</time>
      </trkpt>
      <trkpt lat="44.03123" lon="5.92566">
        <ele>609.40002441406</ele>
        <time>2017-04-09T10:46:52.000Z</time>
      </trkpt>
      <trkpt lat="44.03122" lon="5.92602">
        <ele>604</ele>
        <time>2017-04-09T10:47:41.000Z</time>
      </trkpt>
      <trkpt lat="44.03126" lon="5.92616">
        <ele>602.79998779297</ele>
        <time>2017-04-09T10:47:43.000Z</time>
      </trkpt>
      <trkpt lat="44.03132" lon="5.92629">
        <ele>602.20001220703</ele>
        <time>2017-04-09T10:47:45.000Z</time>
      </trkpt>
      <trkpt lat="44.03145" lon="5.92652">
        <ele>603.59997558594</ele>
        <time>2017-04-09T10:47:50.000Z</time>
      </trkpt>
      <trkpt lat="44.03151" lon="5.92661">
        <ele>604.79998779297</ele>
        <time>2017-04-09T10:47:53.000Z</time>
      </trkpt>
      <trkpt lat="44.03163" lon="5.9268">
        <ele>606.79998779297</ele>
        <time>2017-04-09T10:47:59.000Z</time>
      </trkpt>
      <trkpt lat="44.03174" lon="5.92705">
        <ele>608</ele>
        <time>2017-04-09T10:48:08.000Z</time>
      </trkpt>
      <trkpt lat="44.03178" lon="5.92717">
        <ele>608.40002441406</ele>
        <time>2017-04-09T10:48:13.000Z</time>
      </trkpt>
      <trkpt lat="44.03183" lon="5.92738">
        <ele>607.79998779297</ele>
        <time>2017-04-09T10:48:47.000Z</time>
      </trkpt>
      <trkpt lat="44.03184" lon="5.92765">
        <ele>605.20001220703</ele>
        <time>2017-04-09T10:48:53.000Z</time>
      </trkpt>
      <trkpt lat="44.03179" lon="5.92777">
        <ele>602.40002441406</ele>
        <time>2017-04-09T10:48:55.000Z</time>
      </trkpt>
      <trkpt lat="44.03165" lon="5.92792">
        <ele>598.40002441406</ele>
        <time>2017-04-09T10:48:59.000Z</time>
      </trkpt>
      <trkpt lat="44.03153" lon="5.92804">
        <ele>597.20001220703</ele>
        <time>2017-04-09T10:49:02.000Z</time>
      </trkpt>
      <trkpt lat="44.03143" lon="5.9282">
        <ele>593</ele>
        <time>2017-04-09T10:49:05.000Z</time>
      </trkpt>
      <trkpt lat="44.03131" lon="5.92828">
        <ele>589.59997558594</ele>
        <time>2017-04-09T10:49:07.000Z</time>
      </trkpt>
      <trkpt lat="44.03115" lon="5.92841">
        <ele>587.59997558594</ele>
        <time>2017-04-09T10:49:10.000Z</time>
      </trkpt>
      <trkpt lat="44.03099" lon="5.92859">
        <ele>582.20001220703</ele>
        <time>2017-04-09T10:49:13.000Z</time>
      </trkpt>
      <trkpt lat="44.03094" lon="5.92865">
        <ele>580</ele>
        <time>2017-04-09T10:49:14.000Z</time>
      </trkpt>
      <trkpt lat="44.03089" lon="5.92869">
        <ele>577.79998779297</ele>
        <time>2017-04-09T10:49:15.000Z</time>
      </trkpt>
      <trkpt lat="44.03077" lon="5.92874">
        <ele>575.59997558594</ele>
        <time>2017-04-09T10:49:17.000Z</time>
      </trkpt>
      <trkpt lat="44.03057" lon="5.92883">
        <ele>572.40002441406</ele>
        <time>2017-04-09T10:49:21.000Z</time>
      </trkpt>
      <trkpt lat="44.03039" lon="5.92898">
        <ele>567.40002441406</ele>
        <time>2017-04-09T10:49:26.000Z</time>
      </trkpt>
      <trkpt lat="44.03034" lon="5.92901">
        <ele>565.59997558594</ele>
        <time>2017-04-09T10:49:28.000Z</time>
      </trkpt>
      <trkpt lat="44.03035" lon="5.92907">
        <ele>564.79998779297</ele>
        <time>2017-04-09T10:49:31.000Z</time>
      </trkpt>
      <trkpt lat="44.03049" lon="5.92928">
        <ele>562</ele>
        <time>2017-04-09T10:49:38.000Z</time>
      </trkpt>
      <trkpt lat="44.03032" lon="5.92943">
        <ele>559</ele>
        <time>2017-04-09T10:49:44.000Z</time>
      </trkpt>
      <trkpt lat="44.03026" lon="5.92946">
        <ele>558.40002441406</ele>
        <time>2017-04-09T10:49:45.000Z</time>
      </trkpt>
      <trkpt lat="44.03009" lon="5.92957">
        <ele>551.59997558594</ele>
        <time>2017-04-09T10:49:48.000Z</time>
      </trkpt>
      <trkpt lat="44.02996" lon="5.9297">
        <ele>549.59997558594</ele>
        <time>2017-04-09T10:49:54.000Z</time>
      </trkpt>
      <trkpt lat="44.02987" lon="5.92983">
        <ele>546</ele>
        <time>2017-04-09T10:50:01.000Z</time>
      </trkpt>
      <trkpt lat="44.02977" lon="5.92986">
        <ele>544.20001220703</ele>
        <time>2017-04-09T10:50:03.000Z</time>
      </trkpt>
      <trkpt lat="44.02965" lon="5.93005">
        <ele>538.20001220703</ele>
        <time>2017-04-09T10:50:07.000Z</time>
      </trkpt>
      <trkpt lat="44.0296" lon="5.93014">
        <ele>536</ele>
        <time>2017-04-09T10:50:09.000Z</time>
      </trkpt>
      <trkpt lat="44.02942" lon="5.93018">
        <ele>534</ele>
        <time>2017-04-09T10:50:13.000Z</time>
      </trkpt>
      <trkpt lat="44.02929" lon="5.93019">
        <ele>530.20001220703</ele>
        <time>2017-04-09T10:50:16.000Z</time>
      </trkpt>
      <trkpt lat="44.02926" lon="5.93018">
        <ele>529.59997558594</ele>
        <time>2017-04-09T10:50:17.000Z</time>
      </trkpt>
      <trkpt lat="44.02911" lon="5.93004">
        <ele>528</ele>
        <time>2017-04-09T10:50:23.000Z</time>
      </trkpt>
      <trkpt lat="44.02904" lon="5.93012">
        <ele>524.59997558594</ele>
        <time>2017-04-09T10:50:28.000Z</time>
      </trkpt>
      <trkpt lat="44.0291" lon="5.93037">
        <ele>522.59997558594</ele>
        <time>2017-04-09T10:51:22.000Z</time>
      </trkpt>
      <trkpt lat="44.02926" lon="5.93063">
        <ele>522.20001220703</ele>
        <time>2017-04-09T10:51:26.000Z</time>
      </trkpt>
      <trkpt lat="44.02932" lon="5.9307">
        <ele>521.79998779297</ele>
        <time>2017-04-09T10:51:27.000Z</time>
      </trkpt>
      <trkpt lat="44.02951" lon="5.93089">
        <ele>520.20001220703</ele>
        <time>2017-04-09T10:51:30.000Z</time>
      </trkpt>
      <trkpt lat="44.02959" lon="5.93094">
        <ele>519.59997558594</ele>
        <time>2017-04-09T10:51:31.000Z</time>
      </trkpt>
      <trkpt lat="44.02983" lon="5.93103">
        <ele>520</ele>
        <time>2017-04-09T10:51:34.000Z</time>
      </trkpt>
      <trkpt lat="44.03006" lon="5.93111">
        <ele>520</ele>
        <time>2017-04-09T10:51:37.000Z</time>
      </trkpt>
      <trkpt lat="44.03013" lon="5.93115">
        <ele>519.59997558594</ele>
        <time>2017-04-09T10:51:38.000Z</time>
      </trkpt>
      <trkpt lat="44.0303" lon="5.93134">
        <ele>516.59997558594</ele>
        <time>2017-04-09T10:51:41.000Z</time>
      </trkpt>
      <trkpt lat="44.03043" lon="5.93158">
        <ele>512.79998779297</ele>
        <time>2017-04-09T10:51:44.000Z</time>
      </trkpt>
      <trkpt lat="44.03049" lon="5.9319">
        <ele>506.79998779297</ele>
        <time>2017-04-09T10:51:48.000Z</time>
      </trkpt>
      <trkpt lat="44.03054" lon="5.93204">
        <ele>504.39999389648</ele>
        <time>2017-04-09T10:51:50.000Z</time>
      </trkpt>
      <trkpt lat="44.03057" lon="5.93211">
        <ele>503.20001220703</ele>
        <time>2017-04-09T10:51:51.000Z</time>
      </trkpt>
      <trkpt lat="44.03068" lon="5.9323">
        <ele>500.39999389648</ele>
        <time>2017-04-09T10:51:54.000Z</time>
      </trkpt>
      <trkpt lat="44.03078" lon="5.93241">
        <ele>499.20001220703</ele>
        <time>2017-04-09T10:51:56.000Z</time>
      </trkpt>
      <trkpt lat="44.03094" lon="5.93252">
        <ele>498.39999389648</ele>
        <time>2017-04-09T10:51:59.000Z</time>
      </trkpt>
      <trkpt lat="44.03113" lon="5.93258">
        <ele>498.79998779297</ele>
        <time>2017-04-09T10:52:03.000Z</time>
      </trkpt>
      <trkpt lat="44.03132" lon="5.93262">
        <ele>500</ele>
        <time>2017-04-09T10:52:09.000Z</time>
      </trkpt>
      <trkpt lat="44.03152" lon="5.93266">
        <ele>501</ele>
        <time>2017-04-09T10:52:16.000Z</time>
      </trkpt>
      <trkpt lat="44.0317" lon="5.93271">
        <ele>501.79998779297</ele>
        <time>2017-04-09T10:52:23.000Z</time>
      </trkpt>
      <trkpt lat="44.0319" lon="5.93273">
        <ele>503.39999389648</ele>
        <time>2017-04-09T10:52:30.000Z</time>
      </trkpt>
      <trkpt lat="44.03211" lon="5.93272">
        <ele>505.39999389648</ele>
        <time>2017-04-09T10:52:39.000Z</time>
      </trkpt>
      <trkpt lat="44.03229" lon="5.93284">
        <ele>505</ele>
        <time>2017-04-09T10:52:47.000Z</time>
      </trkpt>
      <trkpt lat="44.03247" lon="5.93286">
        <ele>506.39999389648</ele>
        <time>2017-04-09T10:52:55.000Z</time>
      </trkpt>
      <trkpt lat="44.03264" lon="5.93283">
        <ele>508.39999389648</ele>
        <time>2017-04-09T10:53:10.000Z</time>
      </trkpt>
      <trkpt lat="44.03259" lon="5.93294">
        <ele>506</ele>
        <time>2017-04-09T10:53:15.000Z</time>
      </trkpt>
      <trkpt lat="44.03241" lon="5.9331">
        <ele>501.20001220703</ele>
        <time>2017-04-09T10:53:24.000Z</time>
      </trkpt>
      <trkpt lat="44.03223" lon="5.9332">
        <ele>497.79998779297</ele>
        <time>2017-04-09T10:53:28.000Z</time>
      </trkpt>
      <trkpt lat="44.03218" lon="5.93322">
        <ele>497</ele>
        <time>2017-04-09T10:53:29.000Z</time>
      </trkpt>
      <trkpt lat="44.03204" lon="5.93339">
        <ele>493.79998779297</ele>
        <time>2017-04-09T10:53:33.000Z</time>
      </trkpt>
      <trkpt lat="44.03193" lon="5.93359">
        <ele>490.79998779297</ele>
        <time>2017-04-09T10:53:37.000Z</time>
      </trkpt>
      <trkpt lat="44.03183" lon="5.93374">
        <ele>488</ele>
        <time>2017-04-09T10:53:40.000Z</time>
      </trkpt>
      <trkpt lat="44.03172" lon="5.93394">
        <ele>484.39999389648</ele>
        <time>2017-04-09T10:53:44.000Z</time>
      </trkpt>
      <trkpt lat="44.03164" lon="5.93408">
        <ele>482</ele>
        <time>2017-04-09T10:53:47.000Z</time>
      </trkpt>
      <trkpt lat="44.03154" lon="5.93435">
        <ele>478</ele>
        <time>2017-04-09T10:53:51.000Z</time>
      </trkpt>
      <trkpt lat="44.03139" lon="5.93464">
        <ele>475.39999389648</ele>
        <time>2017-04-09T10:53:54.000Z</time>
      </trkpt>
      <trkpt lat="44.03129" lon="5.93487">
        <ele>473.20001220703</ele>
        <time>2017-04-09T10:53:56.000Z</time>
      </trkpt>
      <trkpt lat="44.0312" lon="5.93509">
        <ele>471.79998779297</ele>
        <time>2017-04-09T10:53:58.000Z</time>
      </trkpt>
      <trkpt lat="44.03108" lon="5.93539">
        <ele>469.79998779297</ele>
        <time>2017-04-09T10:54:01.000Z</time>
      </trkpt>
      <trkpt lat="44.03096" lon="5.93565">
        <ele>468</ele>
        <time>2017-04-09T10:54:04.000Z</time>
      </trkpt>
      <trkpt lat="44.03085" lon="5.93586">
        <ele>466.39999389648</ele>
        <time>2017-04-09T10:54:07.000Z</time>
      </trkpt>
      <trkpt lat="44.03078" lon="5.93615">
        <ele>464.39999389648</ele>
        <time>2017-04-09T10:54:11.000Z</time>
      </trkpt>
      <trkpt lat="44.03074" lon="5.93628">
        <ele>462.60000610352</ele>
        <time>2017-04-09T10:54:13.000Z</time>
      </trkpt>
      <trkpt lat="44.03067" lon="5.93652">
        <ele>459.60000610352</ele>
        <time>2017-04-09T10:54:17.000Z</time>
      </trkpt>
      <trkpt lat="44.03065" lon="5.93658">
        <ele>459</ele>
        <time>2017-04-09T10:54:18.000Z</time>
      </trkpt>
      <trkpt lat="44.03057" lon="5.93686">
        <ele>456.60000610352</ele>
        <time>2017-04-09T10:54:22.000Z</time>
      </trkpt>
      <trkpt lat="44.03055" lon="5.93693">
        <ele>456</ele>
        <time>2017-04-09T10:54:23.000Z</time>
      </trkpt>
      <trkpt lat="44.03048" lon="5.93718">
        <ele>454.20001220703</ele>
        <time>2017-04-09T10:54:27.000Z</time>
      </trkpt>
      <trkpt lat="44.03038" lon="5.93738">
        <ele>452.60000610352</ele>
        <time>2017-04-09T10:54:49.000Z</time>
      </trkpt>
      <trkpt lat="44.03033" lon="5.93742">
        <ele>452.39999389648</ele>
        <time>2017-04-09T10:55:00.000Z</time>
      </trkpt>
    </trkseg>
  </trk>
</gpx>